[[{"header":{"parameterUnit":"m.s-1","parameterCategory":1,"la1":30.6,"la2":28.766,"lo1":-90.7593,"lo2":-88.6598,"dy":0.0162,"dx":0.0183,"nx":116,"ny":114,"refTime":"2024-03-18T18:00:00:Z","depth":0,"parameterNumber":2,"parameterNumberName":"U-component_of_WINDS"},"data":[0.0,0.0,0.0,0.0,0.0,0.0,0.0,0.0,0.0,0.0,0.0,0.0,0.0,0.0,0.0,0.0,0.0,0.0,0.0,0.0,0.0,0.0,0.0,0.0,0.0,0.0,0.0,0.0,0.0,0.0,0.0,0.0,0.0,0.0,0.0,0.0,0.0,0.0,0.0,0.0,0.0,0.0,0.0,0.0,0.0,0.0,0.0,0.0,0.0,0.0,0.0,0.0,0.0,0.0,0.0,0.0,0.0,0.0,0.0,0.0,0.0,0.0,0.0,0.0,0.0,0.0,0.0,0.0,0.0,0.0,0.0,0.0,0.0,0.0,0.0,0.0,0.0,0.0,0.0,0.0,0.0,0.0,0.0,0.0,0.0,0.0,0.0,0.0,0.0,0.0,0.0,0.0,0.0,0.0,0.0,0.0,0.0,0.0,0.0,0.0,0.0,0.0,0.0,0.0,0.0,0.0,0.0,0.0,0.0,0.0,0.0,0.0,0.0,0.0,0.0,0.0,0.0,0.0,0.0,0.0,0.0,0.0,0.0,0.0,0.0,0.0,0.0,0.0,0.0,0.0,0.0,0.0,0.0,0.0,0.0,0.0,0.0,0.0,0.0,0.0,0.0,0.0,0.0,0.0,0.0,0.0,0.0,0.0,0.0,0.0,0.0,0.0,0.0,0.0,0.0,0.0,0.0,0.0,0.0,0.0,0.0,0.0,0.0,0.0,0.0,0.0,0.0,0.0,0.0,0.0,0.0,0.0,0.0,0.0,0.0,0.0,0.0,0.0,0.0,0.0,0.0,0.0,0.0,0.0,0.0,0.0,0.0,0.0,0.0,0.0,0.0,0.0,0.0,0.0,0.0,0.0,0.0,0.0,0.0,0.0,0.0,0.0,0.0,0.0,0.0,0.0,0.0,0.0,0.0,0.0,0.0,0.0,0.0,0.0,0.0,0.0,0.0,0.0,0.0,0.0,0.0,0.0,0.0,0.0,0.0,0.0,0.0,0.0,0.0,0.0,0.0,0.0,0.0,0.0,0.0,0.0,0.0,0.0,0.0,0.0,0.0,0.0,0.0,0.0,0.0,0.0,0.0,0.0,0.0,0.0,0.0,0.0,0.0,0.0,0.0,0.0,0.0,0.0,0.0,0.0,0.0,0.0,0.0,0.0,0.0,0.0,0.0,0.0,0.0,0.0,0.0,0.0,0.0,0.0,0.0,0.0,0.0,0.0,0.0,0.0,0.0,0.0,0.0,0.0,0.0,0.0,0.0,0.0,0.0,0.0,0.0,0.0,0.0,0.0,0.0,0.0,0.0,0.0,0.0,0.0,0.0,0.0,0.0,0.0,0.0,0.0,0.0,0.0,0.0,0.0,0.0,0.0,0.0,0.0,0.0,0.0,0.0,0.0,0.0,0.0,0.0,0.0,0.0,0.0,0.0,0.0,0.0,0.0,0.0,0.0,0.0,0.0,0.0,0.0,0.0,0.0,0.0,0.0,0.0,0.0,0.0,0.0,0.0,0.0,0.0,0.0,0.0,0.0,0.0,0.0,0.0,0.0,0.0,0.0,0.0,0.0,0.0,0.0,0.0,0.0,0.0,0.0,0.0,0.0,0.0,0.0,0.0,0.0,0.0,0.0,0.0,0.0,0.0,0.0,0.0,0.0,0.0,0.0,0.0,0.0,0.0,0.0,0.0,0.0,0.0,0.0,0.0,0.0,0.0,0.0,0.0,0.0,0.0,0.0,0.0,0.0,0.0,0.0,0.0,0.0,0.0,0.0,0.0,0.0,0.0,0.0,0.0,0.0,0.0,0.0,0.0,0.0,0.0,0.0,0.0,0.0,0.0,0.0,0.0,0.0,0.0,0.0,0.0,0.0,0.0,0.0,0.0,0.0,0.0,0.0,0.0,0.0,0.0,0.0,0.0,0.0,0.0,0.0,0.0,0.0,0.0,0.0,0.0,0.0,0.0,0.0,0.0,0.0,0.0,0.0,0.0,0.0,0.0,0.0,0.0,0.0,0.0,0.0,0.0,0.0,0.0,0.0,0.0,0.0,0.0,0.0,0.0,0.0,0.0,0.0,0.0,0.0,0.0,0.0,0.0,0.0,0.0,0.0,0.0,0.0,0.0,0.0,0.0,0.0,0.0,0.0,0.0,0.0,0.0,0.0,0.0,0.0,0.0,0.0,0.0,0.0,0.0,0.0,0.0,0.0,0.0,0.0,0.0,0.0,0.0,0.0,0.0,0.0,0.0,0.0,0.0,0.0,0.0,0.0,0.0,0.0,0.0,0.0,0.0,0.0,0.0,0.0,0.0,0.0,0.0,0.0,0.0,0.0,0.0,0.0,0.0,0.0,0.0,0.0,0.0,0.0,0.0,0.0,0.0,0.0,0.0,0.0,0.0,0.0,0.0,0.0,0.0,0.0,0.0,0.0,0.0,0.0,0.0,0.0,0.0,0.0,0.0,0.0,0.0,0.0,0.0,0.0,0.0,0.0,0.0,0.0,0.0,0.0,0.0,0.0,0.0,0.0,0.0,0.0,0.0,0.0,0.0,0.0,0.0,0.0,0.0,0.0,0.0,0.0,0.0,0.0,0.0,0.0,0.0,0.0,0.0,0.0,0.0,0.0,0.0,0.0,0.0,0.0,0.0,0.0,0.0,0.0,0.0,0.0,0.0,0.0,0.0,0.0,0.0,0.0,0.0,0.0,0.0,0.0,0.0,0.0,0.0,0.0,0.0,0.0,0.0,0.0,0.0,0.0,0.0,0.0,0.0,0.0,0.0,0.0,0.0,0.0,0.0,0.0,0.0,0.0,0.0,0.0,0.0,0.0,0.0,0.0,0.0,0.0,0.0,0.0,0.0,0.0,0.0,0.0,0.0,0.0,0.0,0.0,0.0,0.0,0.0,0.0,0.0,0.0,0.0,0.0,0.0,0.0,0.0,0.0,0.0,0.0,0.0,0.0,0.0,0.0,0.0,0.0,0.0,0.0,0.0,0.0,0.0,0.0,0.0,0.0,0.0,0.0,0.0,0.0,0.0,0.0,0.0,0.0,0.0,0.0,0.0,0.0,0.0,0.0,0.0,0.0,0.0,0.0,0.0,0.0,0.0,0.0,0.0,0.0,0.0,0.0,0.0,0.0,0.0,0.0,0.0,0.0,0.0,0.0,0.0,0.0,0.0,0.0,0.0,0.0,0.0,0.0,0.0,0.0,0.0,0.0,0.0,0.0,0.0,0.0,0.0,0.0,0.0,0.0,0.0,0.0,0.0,0.0,0.0,0.0,0.0,0.0,0.0,0.0,0.0,0.0,0.0,0.0,0.0,0.0,0.0,0.0,0.0,0.0,0.0,0.0,0.0,0.0,0.0,0.0,0.0,0.0,0.0,0.0,0.0,0.0,0.0,0.0,0.0,0.0,0.0,0.0,0.0,0.0,0.0,0.0,0.0,0.0,0.0,0.0,0.0,0.0,0.0,0.0,0.0,0.0,0.0,0.0,0.0,0.0,0.0,0.0,0.0,0.0,0.0,0.0,0.0,0.0,0.0,0.0,0.0,0.0,0.0,0.0,0.0,0.0,0.0,0.0,0.0,0.0,0.0,0.0,0.0,0.0,0.0,0.0,0.0,0.0,0.0,0.0,0.0,0.0,0.0,0.0,0.0,0.0,0.0,0.0,0.0,0.0,0.0,0.0,0.0,0.0,0.0,0.0,0.0,0.0,0.0,0.0,0.0,0.0,0.0,0.0,0.0,0.0,0.0,0.0,0.0,0.0,0.0,0.0,0.0,0.0,0.0,0.0,0.0,0.0,0.0,0.0,0.0,0.0,0.0,0.0,0.0,0.0,0.0,0.0,0.0,0.0,0.0,0.0,0.0,0.0,0.0,0.0,0.0,0.0,0.0,0.0,0.0,0.0,0.0,0.0,0.0,0.0,0.0,0.0,0.0,0.0,0.0,0.0,0.0,0.0,0.0,0.0,0.0,0.0,0.0,0.0,0.0,0.0,0.0,0.0,0.0,0.0,0.0,0.0,0.0,0.0,0.0,0.0,0.0,0.0,0.0,0.0,0.0,0.0,0.0,0.0,0.0,0.0,0.0,0.0,0.0,0.0,0.0,0.0,0.0,0.0,0.0,0.0,0.0,0.0,0.0,0.0,0.0,0.0,0.0,0.0,0.0,0.0,0.0,0.0,0.0,0.0,0.0,0.0,0.0,0.0,0.0,0.0,0.0,0.0,0.0,0.0,0.0,0.0,0.0,0.0,0.0,0.0,0.0,0.0,0.0,0.0,0.0,0.0,0.0,0.0,0.0,0.0,0.0,0.0,0.0,0.0,0.0,0.0,0.0,0.0,0.0,0.0,0.0,0.0,0.0,0.0,0.0,0.0,0.0,0.0,0.0,0.0,0.0,0.0,0.0,0.0,0.0,0.0,0.0,0.0,0.0,0.0,0.0,0.0,0.0,0.0,0.0,0.0,0.0,0.0,0.0,0.0,0.0,0.0,0.0,0.0,0.0,0.0,0.0,0.0,0.0,0.0,0.0,0.0,0.0,0.0,0.0,0.0,0.0,0.0,0.0,0.0,0.0,0.0,0.0,0.0,0.0,0.0,0.0,0.0,0.0,0.0,0.0,0.0,0.0,0.0,0.0,0.0,0.0,0.0,0.0,0.0,0.0,0.0,0.0,0.0,0.0,0.0,0.0,0.0,0.0,0.0,0.0,0.0,0.0,0.0,0.0,0.0,0.0,0.0,0.0,0.0,0.0,0.0,0.0,0.0,0.0,0.0,0.0,0.0,0.0,0.0,0.0,0.0,0.0,0.0,0.0,0.0,0.0,0.0,0.0,0.0,0.0,0.0,0.0,0.0,0.0,0.0,0.0,0.0,0.0,0.0,0.0,0.0,0.0,0.0,0.0,0.0,0.0,0.0,0.0,0.0,0.0,0.0,0.0,0.0,0.0,0.0,0.0,0.0,0.0,0.0,0.0,0.0,0.0,0.0,0.0,0.0,0.0,0.0,0.0,0.0,0.0,0.0,0.0,0.0,0.0,0.0,0.0,0.0,0.0,0.0,0.0,0.0,0.0,0.0,0.0,0.0,0.0,0.0,0.0,0.0,0.0,0.0,0.0,0.0,0.0,0.0,0.0,0.0,0.0,0.0,0.0,0.0,0.0,0.0,0.0,0.0,0.0,0.0,0.0,0.0,0.0,0.0,0.0,0.0,0.0,0.0,0.0,0.0,0.0,0.0,0.0,0.0,0.0,0.0,0.0,0.0,0.0,0.0,0.0,0.0,0.0,0.0,0.0,0.0,0.0,0.0,0.0,0.0,0.0,0.0,0.0,0.0,0.0,0.0,0.0,0.0,0.0,0.0,0.0,0.0,0.0,0.0,0.0,0.0,0.0,0.0,0.0,0.0,0.0,0.0,0.0,0.0,0.0,0.0,0.0,0.0,0.0,0.0,0.0,0.0,0.0,0.0,0.0,0.0,0.0,0.0,0.0,0.0,0.0,0.0,0.0,0.0,0.0,0.0,0.0,0.0,0.0,0.0,0.0,0.0,0.0,0.0,0.0,0.0,0.0,0.0,0.0,0.0,0.0,0.0,0.0,0.0,0.0,0.0,0.0,0.0,0.0,0.0,0.0,0.0,0.0,0.0,0.0,0.0,0.0,0.0,0.0,0.0,0.0,0.0,0.0,0.0,0.0,0.0,0.0,0.0,0.0,0.0,0.0,0.0,0.0,0.0,0.0,0.0,0.0,0.0,0.0,0.0,0.0,0.0,0.0,0.0,0.0,0.0,0.0,0.0,0.0,0.0,0.0,0.0,0.0,0.0,0.0,0.0,0.0,0.0,0.0,0.0,0.0,0.0,0.0,0.0,0.0,0.0,0.0,0.0,0.0,0.0,0.0,0.0,0.0,0.0,0.0,0.0,0.0,0.0,0.0,0.0,0.0,0.0,0.0,0.0,0.0,0.0,0.0,0.0,0.0,0.0,0.0,0.0,0.0,0.0,0.0,0.0,0.0,0.0,0.0,0.0,0.0,0.0,0.0,0.0,0.0,0.0,0.0,0.0,0.0,0.0,0.0,0.0,0.0,0.0,0.0,0.0,0.0,0.0,-1.8623,0.0,0.0,0.0,0.0,0.0,0.0,0.0,0.0,0.0,0.0,0.0,0.0,0.0,0.0,0.0,0.0,0.0,0.0,0.0,0.0,0.0,0.0,0.0,0.0,0.0,0.0,0.0,0.0,0.0,0.0,0.0,0.0,0.0,0.0,0.0,-1.0729,-1.0807,-1.1369,-1.2465,-1.3635,-1.5655,-1.8371,-1.7016,-1.5997,-1.5302,0.0,0.0,0.0,0.0,0.0,0.0,0.0,0.0,0.0,0.0,0.0,0.0,0.0,0.0,0.0,0.0,0.0,0.0,0.0,0.0,0.0,0.0,0.0,0.0,0.0,0.0,0.0,0.0,0.0,0.0,0.0,0.0,0.0,0.0,0.0,0.0,0.0,0.0,0.0,0.0,0.0,0.0,0.0,0.0,0.0,0.0,0.0,0.0,0.0,0.0,0.0,0.0,0.0,0.0,0.0,0.0,0.0,0.0,0.0,0.0,0.0,0.0,0.0,0.0,0.0,0.0,0.0,0.0,0.0,0.0,0.0,-1.9181,0.0,0.0,0.0,0.0,0.0,0.0,0.0,0.0,0.0,0.0,0.0,0.0,0.0,0.0,0.0,0.0,0.0,0.0,0.0,0.0,0.0,0.0,0.0,-1.0389,-1.0941,-1.2075,-1.2289,-1.2417,0.0,0.0,0.0,0.0,0.0,-1.1523,-1.1304,-1.1327,-1.1851,-1.29,-1.5231,-1.767,-2.0147,-2.0103,-1.9309,-1.7829,0.0,0.0,0.0,0.0,0.0,0.0,0.0,0.0,0.0,0.0,0.0,0.0,0.0,0.0,0.0,0.0,0.0,0.0,0.0,0.0,0.0,0.0,0.0,0.0,0.0,0.0,0.0,0.0,0.0,0.0,0.0,0.0,0.0,0.0,0.0,0.0,0.0,0.0,0.0,0.0,0.0,0.0,0.0,0.0,0.0,0.0,0.0,0.0,0.0,0.0,0.0,0.0,0.0,0.0,0.0,0.0,0.0,0.0,0.0,0.0,0.0,0.0,0.0,0.0,-2.2217,-2.2681,-2.3197,-2.3163,-2.3717,-2.4577,-2.2293,-2.1807,-2.2452,-1.9735,0.0,0.0,0.0,0.0,0.0,0.0,0.0,0.0,0.0,0.0,0.0,0.0,0.0,0.0,0.0,0.0,0.0,0.0,0.0,0.0,0.0,-1.1045,-1.1884,-1.3467,-1.4005,-1.4013,-1.3463,0.0,-1.2965,-1.1953,-1.1812,-1.1889,-1.2137,-1.2255,-1.3284,-1.5252,-1.9119,-2.121,-2.1534,-2.182,-2.1373,-2.0245,-1.8088,0.0,0.0,0.0,0.0,0.0,0.0,0.0,0.0,0.0,0.0,0.0,0.0,0.0,0.0,0.0,0.0,0.0,0.0,0.0,0.0,0.0,0.0,0.0,0.0,0.0,0.0,0.0,0.0,0.0,0.0,0.0,0.0,0.0,0.0,0.0,0.0,0.0,0.0,0.0,0.0,0.0,0.0,0.0,-2.0481,-2.0494,0.0,0.0,0.0,0.0,0.0,0.0,0.0,0.0,0.0,0.0,0.0,0.0,0.0,-2.1201,-2.068,-2.2693,-2.3404,-2.2844,-2.4697,-2.5583,-2.5555,-2.537,-2.5504,-2.5851,-2.5124,0.0,-2.282,-2.1259,0.0,0.0,0.0,0.0,0.0,0.0,0.0,0.0,0.0,0.0,0.0,0.0,0.0,0.0,0.0,0.0,0.0,0.0,0.0,0.0,0.0,-1.2844,-1.4296,-1.6776,-1.7221,-1.6918,-1.5855,-1.5542,-1.4695,-1.3147,-1.2908,-1.2756,-1.2656,-1.3404,-1.5305,-1.8339,-2.0734,-2.2434,-2.3487,-2.3289,-2.2665,-2.1675,-1.9487,-1.7743,-1.6396,-1.597,0.0,0.0,0.0,0.0,0.0,0.0,0.0,0.0,0.0,0.0,0.0,0.0,0.0,0.0,0.0,0.0,0.0,0.0,0.0,0.0,0.0,0.0,0.0,0.0,0.0,0.0,0.0,0.0,0.0,0.0,0.0,0.0,0.0,0.0,0.0,0.0,0.0,0.0,0.0,-1.809,-1.9087,-1.8757,-1.8971,-1.8531,0.0,0.0,0.0,0.0,0.0,0.0,0.0,0.0,0.0,-2.2453,-2.2504,-2.2758,-2.3357,-2.4411,-2.4987,-2.5098,-2.5996,-2.6581,-2.683,-2.6632,-2.6433,-2.6235,-2.5711,-2.484,-2.3648,-2.2453,-2.1177,-1.9867,0.0,0.0,0.0,0.0,-1.7621,-1.7442,0.0,0.0,0.0,0.0,0.0,0.0,0.0,0.0,0.0,0.0,0.0,0.0,-1.2891,-1.4541,-1.6534,-1.9116,-1.9478,-1.9124,-1.8152,-1.7715,-1.6746,-1.5099,-1.4559,-1.4127,-1.3783,-1.5085,-1.7221,-2.0153,-2.1497,-2.2943,-2.4404,-2.4105,-2.339,-2.2341,-2.0384,-1.8532,-1.6821,-1.6213,-1.5757,0.0,0.0,0.0,0.0,0.0,0.0,0.0,0.0,0.0,0.0,0.0,0.0,0.0,0.0,0.0,0.0,0.0,0.0,0.0,0.0,0.0,0.0,0.0,0.0,0.0,0.0,0.0,0.0,0.0,0.0,0.0,0.0,0.0,0.0,0.0,0.0,0.0,0.0,-1.8047,-1.9043,-1.7928,-1.9546,-1.9724,0.0,0.0,0.0,0.0,0.0,0.0,-2.1627,-2.1062,-2.1856,-2.4341,-2.4077,-2.445,-2.5565,-2.5754,-2.6018,-2.6384,-2.6331,-2.6524,-2.6886,-2.6674,-2.6293,-2.5766,-2.5374,-2.4801,-2.41,-2.3117,-2.2312,-2.1653,-2.0804,-1.9594,-1.8521,-2.0088,-2.0254,-1.9935,0.0,0.0,0.0,0.0,0.0,0.0,0.0,0.0,0.0,0.0,0.0,-1.1443,-1.2769,-1.5582,-1.7857,-1.9106,-1.9506,-1.9687,-1.9678,-1.9472,-1.8899,-1.7847,-1.6757,-1.6147,-1.6133,-1.7631,-1.8744,-1.9455,-2.1803,-2.3089,-2.3398,-2.3868,-2.3412,-2.2159,-2.0572,-1.9004,-1.7483,-1.6517,-1.5901,-1.5571,0.0,0.0,0.0,0.0,0.0,0.0,0.0,0.0,0.0,0.0,0.0,0.0,0.0,0.0,0.0,0.0,0.0,0.0,0.0,0.0,0.0,0.0,0.0,0.0,0.0,0.0,0.0,0.0,0.0,0.0,0.0,0.0,0.0,0.0,0.0,0.0,0.0,0.0,0.0,-2.0246,-2.3091,0.0,0.0,0.0,0.0,-1.9916,-1.9905,-2.0577,-2.2085,-2.2117,-2.3007,-2.4985,-2.5886,-2.6055,-2.5503,-2.632,-2.6347,-2.5565,-2.5554,-2.5441,-2.5207,-2.5,-2.4614,-2.4134,-2.4295,-2.4191,-2.385,-2.305,-2.2003,-2.0909,-2.0543,-1.9937,-1.9505,-2.167,-2.2432,-2.2614,0.0,0.0,0.0,0.0,0.0,0.0,0.0,0.0,-0.6464,-0.7182,-0.9635,-1.2249,-1.4697,-1.7559,-2.0172,-2.2364,-2.2812,-2.2642,-2.1854,-2.1124,-1.9552,-1.6961,-1.6482,-1.6124,-1.573,-1.6946,-1.788,-1.8563,-2.0473,-2.1661,-2.2156,-2.2732,-2.2498,-2.1555,-2.0418,-1.8947,-1.7305,-1.6639,-1.6204,-1.5915,-1.5845,-1.5644,0.0,0.0,0.0,0.0,0.0,0.0,0.0,0.0,0.0,0.0,0.0,0.0,0.0,0.0,0.0,0.0,0.0,0.0,0.0,0.0,0.0,0.0,0.0,0.0,0.0,0.0,0.0,0.0,0.0,0.0,0.0,0.0,0.0,0.0,0.0,0.0,0.0,-2.0111,-2.2943,0.0,-2.1242,-2.1124,-2.1199,-2.1095,-2.1924,-2.2748,-2.3566,-2.3359,-2.3691,-2.4676,-2.479,-2.4839,-2.4851,-2.5122,-2.5245,-2.5236,-2.5192,-2.5221,-2.5284,-2.5072,-2.4713,-2.4241,-2.3966,-2.3772,-2.3602,-2.3101,-2.2867,-2.2859,-2.3165,-2.2831,-2.2354,-2.4133,-2.4714,-2.462,0.0,0.0,0.0,0.0,0.0,0.0,0.0,0.0,-0.5886,-0.6732,-0.9293,-1.2075,-1.473,-1.7947,-2.0863,-2.3264,-2.4058,-2.3984,-2.2965,-2.1708,-1.9722,-1.6865,-1.6254,-1.5613,-1.4802,-1.5747,-1.6371,-1.6659,-1.8053,-1.9216,-2.0168,-2.0928,-2.0935,-2.0258,-1.9518,-1.8158,-1.6357,-1.6028,-1.5899,-1.5913,-1.5842,-1.5711,-1.5635,0.0,0.0,0.0,0.0,0.0,0.0,0.0,0.0,0.0,0.0,0.0,0.0,0.0,0.0,0.0,0.0,0.0,0.0,0.0,0.0,0.0,0.0,0.0,0.0,0.0,0.0,0.0,0.0,0.0,0.0,0.0,0.0,0.0,0.0,0.0,-2.1608,-1.9477,-2.2354,-2.3506,-2.1021,-2.1526,-2.1971,-2.1879,-2.2569,-2.2972,-2.2979,-2.2782,-2.2635,-2.2576,-2.2694,-2.2957,-2.324,-2.3048,-2.3391,-2.4254,-2.3832,-2.3927,-2.4456,-2.4259,-2.3977,-2.365,-2.3476,-2.3371,-2.3337,-2.3474,-2.3749,-2.414,-2.4535,-2.434,-2.3961,-2.522,-2.5529,-2.52,0.0,0.0,0.0,0.0,0.0,0.0,0.0,-0.438,-0.4973,-0.6091,-0.8477,-1.0779,-1.2551,-1.6412,-1.9514,-2.1205,-2.2602,-2.3198,-2.2703,-2.1022,-1.9324,-1.7749,-1.6114,-1.4677,-1.3423,-1.422,-1.4299,-1.3591,-1.4558,-1.577,-1.7171,-1.8218,-1.8403,-1.7855,-1.7626,-1.6432,-1.4535,-1.4564,-1.496,-1.5481,-1.5155,-1.5455,-1.6061,0.0,0.0,0.0,0.0,0.0,0.0,0.0,0.0,0.0,0.0,0.0,0.0,0.0,0.0,0.0,0.0,0.0,0.0,0.0,0.0,0.0,0.0,0.0,0.0,0.0,0.0,0.0,0.0,0.0,0.0,0.0,0.0,0.0,-1.6833,-1.9609,-2.0738,-1.864,-2.161,-2.2937,-2.0714,-2.1711,-2.2376,-2.2107,-2.1562,-2.0903,-2.0097,-2.0162,-1.9752,-1.8683,-1.9759,-2.0438,-2.0548,-2.0084,-2.067,-2.2267,-2.1175,-2.1215,-2.2224,-2.1942,-2.1796,-2.1755,-2.2213,-2.2437,-2.2505,-2.3463,-2.3872,-2.3927,-2.417,-2.4166,-2.4081,-2.4488,-2.4258,-2.3633,0.0,0.0,0.0,0.0,0.0,0.0,0.0,-0.3376,-0.3936,-0.4567,-0.6624,-0.8388,-0.9321,-1.1679,-1.3825,-1.5315,-1.623,-1.6922,-1.7361,-1.6886,-1.6026,-1.4722,0.0,0.0,-1.1481,-1.1113,-1.033,-0.9155,-0.96,-0.9688,-0.9449,-0.97,-0.9239,-0.8321,-1.0564,-1.0498,-0.888,-1.1217,-1.2725,-1.3684,-1.4923,-1.5945,-1.6793,0.0,0.0,0.0,0.0,0.0,0.0,0.0,0.0,0.0,0.0,0.0,0.0,0.0,0.0,0.0,0.0,0.0,0.0,0.0,0.0,0.0,0.0,0.0,0.0,0.0,0.0,0.0,0.0,0.0,0.0,0.0,-1.4585,-1.5683,-1.6704,-1.874,-2.015,-2.0305,-2.1469,-2.1803,-2.0671,-2.0219,-1.9752,-1.9219,-1.8396,-1.7658,-1.7093,-1.693,-1.6307,-1.5187,-1.5274,-1.5166,-1.4944,-1.4251,-1.4362,-1.5176,-1.3819,-1.3427,-1.3842,-1.2182,-1.1358,-1.1191,-1.0183,-0.9813,-0.9925,-0.9509,-0.9828,-1.1443,-2.0227,-2.4061,-2.3839,-1.7241,-1.1222,-0.6744,0.0,0.0,0.0,0.0,0.0,0.0,0.0,-0.2546,-0.3027,-0.3062,-0.4106,-0.4891,-0.5062,-0.6275,-0.768,-0.9273,-1.0853,-1.2151,-1.2944,-1.2744,-1.1939,0.0,0.0,-0.8231,-0.8024,-0.6929,-0.5697,-0.4438,-0.4267,-0.3976,-0.3579,-0.3434,-0.278,-0.1809,-0.3701,-0.3487,-0.185,-0.4596,-0.6798,-0.8636,-1.0819,-1.373,-1.6794,-1.7725,-1.8125,-1.8349,-1.9392,-1.9013,-1.801,-1.7984,0.0,0.0,0.0,0.0,0.0,0.0,0.0,0.0,0.0,0.0,0.0,0.0,0.0,0.0,0.0,0.0,0.0,0.0,0.0,0.0,0.0,0.0,0.0,0.0,-1.3214,-1.3696,-1.4672,-1.6738,-1.8234,-1.8447,-1.8252,-1.7881,-1.7342,-1.6582,-1.5957,-1.556,-1.4803,-1.4012,-1.3199,-1.2733,-1.1811,-1.028,-0.9979,-0.9663,-0.9408,-0.8443,-0.8346,-0.9044,-0.7431,-0.6869,-0.7142,-0.5611,-0.4878,-0.4773,-0.4261,-0.4097,-0.4182,-0.3982,-0.4276,-0.5539,0.0,0.0,0.0,0.0,-0.5261,-0.1964,0.0,0.0,0.0,0.0,0.0,0.0,0.0,-0.1793,-0.2043,-0.1411,-0.1148,-0.0791,-0.0181,-0.045,-0.1436,-0.3317,-0.5923,-0.79,-0.898,-0.8554,0.0,-0.5781,-0.5246,-0.4587,-0.3747,-0.2183,-0.0759,0.0425,0.1183,0.1471,0.1408,0.1915,0.2616,0.3428,0.3718,0.4572,0.5666,0.4073,0.1572,-0.1523,-0.3743,-0.9334,-1.633,-1.6741,-1.7677,-1.8856,-1.9499,-1.9673,-1.9595,-1.9535,0.0,0.0,0.0,0.0,0.0,0.0,0.0,0.0,0.0,0.0,0.0,0.0,0.0,0.0,0.0,0.0,0.0,0.0,0.0,0.0,0.0,0.0,0.0,0.0,-1.0736,-1.0551,-1.1122,-1.3339,-1.4743,-1.4258,-1.3342,-1.2574,-1.2143,-1.1755,-1.151,-1.1352,-1.0824,-0.9947,-0.87,0.0,0.0,0.0,0.0,-0.4,-0.3791,-0.2477,-0.2257,-0.3078,-0.136,-0.071,-0.1005,-0.0163,0.0201,0.0159,-0.0513,-0.0855,-0.0989,-0.1619,-0.1863,-0.1925,-0.2866,-0.3328,-0.3378,-0.2825,-0.2307,-0.1981,0.0,0.0,0.0,0.0,0.0,0.0,0.0,-0.0555,-0.0285,0.1458,0.1785,0.2567,0.4372,0.4811,0.4069,0.1846,0.0368,-0.1637,-0.4385,0.0,-0.3618,-0.3366,-0.1887,-0.0739,-0.0053,0.199,0.372,0.5006,0.6087,0.7104,0.8097,1.0211,1.1496,1.2185,1.4733,1.4085,1.1164,1.2087,0.9666,0.5267,0.5477,-0.2911,-1.5632,-1.6869,-1.8664,-2.0677,-2.1907,-2.2027,-2.1532,-2.1407,-2.0517,-1.9276,-1.8446,0.0,0.0,0.0,0.0,0.0,0.0,0.0,0.0,0.0,0.0,0.0,0.0,0.0,0.0,0.0,0.0,0.0,0.0,0.0,0.0,-0.8487,-0.8305,-0.7889,-0.648,-0.6453,-0.7575,-1.0124,-1.0246,-0.9663,-0.8439,-0.826,-0.7766,-0.6681,-0.601,-0.5297,-0.4438,-0.3166,-0.2017,-0.1075,0.0682,0.1924,0.2517,0.3929,0.4758,0.5039,0.0,0.0,0.8071,1.0346,1.1372,1.1441,1.2744,1.2962,1.2508,1.281,1.3102,1.2151,0.0036,-0.0263,0.6004,0.4965,0.8928,1.4339,0.0,0.0,0.0,0.0,0.0,0.0,0.0,0.0577,0.1043,0.2557,0.3349,0.4524,0.6501,0.7349,0.7123,0.55,0.3375,0.1161,0.0,-0.0881,-0.0247,0.0764,0.2301,0.3653,0.4736,0.6707,0.8299,0.9492,1.0779,1.2095,1.3483,1.5403,1.6765,1.763,1.9411,1.9252,1.7661,1.7681,1.6841,1.523,1.203,0.5485,-0.2691,-0.5903,-0.8521,-1.0646,-1.2345,-1.3739,-1.5156,-1.7536,-1.8464,-1.87,-1.9349,-1.9745,-1.9503,0.0,0.0,0.0,0.0,0.0,0.0,0.0,0.0,0.0,0.0,0.0,0.0,0.0,0.0,-0.9371,-0.7754,0.0,-0.6711,-0.5746,-0.5286,-0.4551,-0.3347,-0.2601,-0.2911,-0.502,-0.5224,-0.4819,-0.3744,-0.364,-0.321,-0.2193,-0.1498,-0.0641,0.0478,0.1906,0.2973,0.3747,0.5826,0.7144,0.751,0.8846,0.9849,1.0524,1.1556,1.2396,1.3109,1.5054,1.5893,1.5979,1.7124,1.7437,1.7153,1.7275,1.7015,1.5817,0.7998,0.8206,1.2733,1.13,1.3317,1.6464,0.0,0.0,0.0,0.0,0.0,0.0,0.0,0.1811,0.2385,0.3482,0.4644,0.6026,0.7738,0.8729,0.8775,0.7553,0.4759,0.0,0.0,0.1956,0.3054,0.5023,0.6411,0.7898,0.9413,1.0948,1.2292,1.3406,1.4726,1.5956,1.7155,1.8584,1.9662,2.0508,2.1256,2.1987,2.2601,2.1611,2.2309,2.3531,1.7712,1.4569,1.2927,0.8816,0.4359,0.0062,-0.17,-0.4183,-0.7234,-1.1143,-1.3572,-1.5148,-1.6248,-1.7885,-1.8754,-1.5487,-1.6736,0.0,0.0,0.0,0.0,0.0,0.0,0.0,0.0,0.0,-1.0365,-0.9933,-0.8338,-0.6694,-0.5529,-0.4501,-0.355,-0.2678,-0.1886,-0.1041,-0.0227,0.0667,0.1094,0.0651,-0.0054,-0.0109,0.077,0.0989,0.1368,0.2069,0.275,0.3756,0.5108,0.6358,0.7367,0.8107,1.0039,1.1146,1.1286,1.2589,1.3575,1.4242,1.4801,1.5448,1.6133,1.7149,1.7626,1.7612,1.806,1.8128,1.7969,1.7524,1.6666,1.5606,1.5168,1.5636,1.636,1.5058,1.4311,1.3849,0.0,0.0,0.0,0.0,0.0,0.0,0.0,0.0,0.424,0.5725,0.6618,0.773,0.9275,0.9877,0.9243,0.6993,0.538,0.0,0.4373,0.5327,0.653,0.7961,0.9408,1.1057,1.2795,1.3697,1.474,1.5997,1.6927,1.7461,1.7661,1.9544,2.0277,2.0067,2.2084,2.2826,2.2593,2.3609,2.4234,2.447,2.3769,2.3412,2.3198,2.2145,1.3105,0.084,-0.0271,-0.1892,-0.3572,-0.3996,-0.4605,-0.4889,-0.3192,-0.6245,-1.0098,-0.8314,0.0,-1.5414,-1.4663,-1.4115,0.0,-1.5048,-1.4069,-1.3319,0.0,0.0,-1.0309,-0.9665,-0.7854,-0.5775,-0.3875,-0.2457,-0.095,0.1216,0.1628,0.2416,0.4443,0.5304,0.5989,0.6536,0.3761,0.2356,0.3784,0.4469,0.5107,0.5819,0.6528,0.7268,0.8163,0.8909,0.9621,1.0314,1.1773,1.284,1.3344,1.4575,1.5492,1.6108,1.6667,1.722,1.7854,1.8444,1.8727,1.8698,1.8643,1.8308,1.7715,1.7037,1.6383,1.5726,1.5285,1.4947,1.4662,1.3728,1.3348,1.3286,0.0,0.0,0.0,0.0,0.0,0.0,0.0,0.0,0.0,0.5881,0.6713,0.7569,0.8435,0.8317,0.7679,0.655,0.0,0.0,0.6647,0.8081,0.9569,1.0921,1.2586,1.3965,1.5142,1.6101,1.7143,1.8278,1.8856,1.9421,1.9985,2.1094,2.1556,2.1584,2.2501,2.3012,2.3223,2.3795,2.417,2.4375,2.4432,2.4542,2.4652,2.4432,1.9634,1.2697,1.0211,0.7574,0.0,0.0,-0.1047,-0.2341,-0.4455,-0.675,-0.8763,-0.9276,-1.1801,0.0,-1.4514,0.0,0.0,0.0,-1.1724,-1.0508,-1.0576,-0.8512,-0.645,-0.5582,-0.3542,-0.1471,-0.0064,0.1494,0.2976,0.0,0.4817,0.5444,0.6809,0.7735,0.8456,0.8788,0.7854,0.7089,0.6892,0.7156,0.7635,0.8287,0.9043,0.9715,1.0495,1.1495,1.2192,1.2522,1.3778,1.4722,1.5295,1.6139,1.6831,1.7382,1.7626,1.788,1.8145,1.865,1.908,1.9354,1.9319,1.8897,1.8268,1.7999,1.7362,1.65,1.5986,1.533,1.4587,1.3866,1.3425,1.3198,0.0,0.0,0.0,0.0,0.0,0.0,0.0,0.0,0.0,0.0,0.676,0.736,0.773,0.7298,0.6908,0.0,0.0,0.0,0.0,1.022,1.1879,1.3721,1.4991,1.6168,1.7247,1.809,1.9022,2.0008,2.0405,2.1039,2.1908,2.2362,2.2824,2.3202,2.3075,2.3355,2.3867,2.3739,2.3896,2.419,2.419,2.4321,2.4458,2.4078,2.2972,2.1233,1.8177,1.492,0.0,0.0,0.3264,0.1465,-0.198,-0.4258,-0.5951,-0.7392,-1.004,-1.2519,-1.2585,0.0,0.0,-0.9706,-0.8725,-0.7417,-0.5545,-0.3729,-0.2087,-0.0637,0.1484,0.3383,0.4251,0.5632,0.6953,0.7649,0.8054,0.8486,0.9207,1.0118,1.0748,1.0814,1.1393,1.1425,1.0473,0.989,0.9768,1.025,1.1098,1.1859,1.2346,1.3416,1.4179,1.4527,1.5342,1.6176,1.6844,1.745,1.7947,1.8341,1.8458,1.8535,1.8535,1.893,1.9332,1.969,1.969,1.9316,1.8702,1.8702,1.813,1.7223,1.6662,1.5854,1.4916,1.4318,1.371,1.3198,0.0,0.0,0.0,0.0,0.0,0.0,0.0,0.0,0.0,0.0,0.0,0.0,0.0,0.8002,0.7961,0.0,0.0,0.0,0.0,1.1569,1.3257,1.617,1.6336,1.7356,1.9462,1.9534,2.0008,2.0959,2.1368,2.1927,2.2681,2.3147,2.3731,2.4435,2.4052,2.4016,2.4261,2.3867,2.3896,2.419,2.419,2.4321,2.4351,2.2989,2.2147,2.1444,1.9673,0.0,0.0,0.0,1.0267,0.945,1.0331,0.6276,0.0,0.1191,-0.3516,0.0,0.0,0.0,-0.7267,-0.5732,-0.5328,-0.462,-0.1967,-0.0064,0.1878,0.4452,0.6365,0.7889,0.8743,0.9668,1.0438,1.1063,1.1275,1.1584,1.2174,1.3037,1.359,1.3601,1.4147,1.4549,0.0,1.2812,1.1706,1.1706,1.2986,1.3721,1.3721,1.4329,1.5174,1.6293,1.6348,1.6928,1.8027,1.8574,1.8855,1.8893,1.9406,1.9639,1.9639,1.969,1.969,1.969,1.969,1.9316,1.8702,1.8702,1.828,1.7617,1.7089,1.6315,1.5399,1.4873,1.4059,1.3198,0.0,0.0,0.0,0.0,0.0,0.0,0.0,0.0,0.0,0.0,0.0,0.0,0.0,0.0,0.0,0.0,0.0,0.0,0.0,1.3095,1.4634,1.5649,1.7501,1.8867,1.957,2.0215,2.1052,2.2132,2.2258,2.3104,2.4641,2.4785,2.5253,2.593,2.5805,2.5824,2.5879,2.5762,2.5721,2.575,2.5199,2.4614,2.3878,2.2562,2.0582,1.8195,0.0,0.0,0.0,0.9622,0.8356,0.7589,0.6796,0.5053,0.0,0.0,-0.2817,-0.4905,0.0,0.0,-0.2647,-0.1735,0.0125,0.211,0.3578,0.5258,0.6904,0.8348,0.8466,0.84,0.8687,0.9491,1.0148,1.0342,1.2206,1.3552,1.3383,1.4252,1.4609,1.3884,1.3946,0.0,0.0,0.0,0.0,1.313,1.3532,1.3815,1.3815,1.4732,1.562,1.6391,1.6786,1.7518,1.8612,1.8817,1.908,1.9442,1.9603,1.969,1.969,1.969,1.969,1.969,1.969,1.9555,1.9361,1.8957,1.8681,1.8419,1.7522,1.6748,1.6086,1.5543,1.493,1.4212,0.0,0.0,0.0,0.0,0.0,0.0,0.0,0.0,0.0,0.0,0.0,0.0,0.0,0.0,0.0,0.0,0.0,0.0,0.0,0.0,1.4787,1.5581,1.7441,1.8673,1.9088,1.9781,2.0637,2.1676,2.2587,2.3883,2.5507,2.6467,2.7296,2.7971,2.7728,2.7652,2.7656,2.6568,2.5989,2.5754,2.4662,2.3516,2.2347,2.1211,1.8993,0.0,0.0,0.0,0.0,0.7044,0.5891,0.5129,0.3738,0.2946,0.1982,-0.0585,-0.1598,-0.1673,-0.0712,0.0601,0.1926,0.2795,0.5011,0.7303,0.8454,0.979,1.1102,1.2035,1.101,0.9996,1.0106,1.0647,1.085,1.0111,1.2569,1.4351,1.369,1.4244,1.4573,1.4333,1.4204,1.3967,0.0,0.0,0.0,1.3815,1.4179,1.4457,1.4457,1.5564,1.6361,1.6689,1.749,1.8224,1.8893,1.8893,1.908,1.9406,1.9603,1.969,1.969,1.969,1.969,1.969,1.969,1.969,1.9639,1.9132,1.8893,1.8779,1.7706,1.6956,1.6454,1.5883,1.5341,1.4815,0.0,0.0,0.0,0.0,0.0,0.0,0.0,0.0,0.0,0.0,0.0,0.0,0.0,0.0,0.0,0.0,0.0,0.0,0.0,0.0,0.0,1.6055,1.6368,1.7031,1.8207,1.8543,1.9086,1.9906,2.2416,2.4223,2.5338,2.7835,2.939,3.0057,2.9373,2.9173,2.9206,2.6257,2.4813,2.4397,2.2781,2.1344,2.0033,1.9094,0.0,0.0,0.0,0.0,0.0,0.0,0.0,0.0,0.0,0.0716,-0.0423,-0.0088,0.0421,0.1212,0.2462,0.4307,0.6252,0.7767,0.9377,1.097,1.2677,1.3632,1.4392,1.5372,1.3803,1.2334,0.0,0.0,1.2287,1.0451,1.2559,1.4175,1.3506,1.3365,1.3796,0.0,0.0,0.0,0.0,0.0,0.0,1.3815,0.0,1.5588,1.5588,1.6659,1.7271,1.7353,1.8302,1.8855,1.893,1.893,1.893,1.8968,1.9442,1.969,1.969,1.969,1.969,1.969,1.969,1.9639,1.9603,1.9043,1.8817,1.8688,1.7666,1.6942,1.6455,1.5922,1.5404,1.4991,0.0,0.0,0.0,0.0,0.0,0.0,0.0,0.0,0.0,0.0,0.0,0.0,0.0,0.0,0.0,0.0,0.0,0.0,0.0,0.0,0.0,0.0,0.0,0.0,0.0,0.0,0.0,0.0,0.0,2.3777,2.5163,2.5848,2.6589,2.7318,2.7114,2.6903,2.6623,2.5606,2.4979,2.4599,0.0,2.1931,2.0574,0.0,0.0,0.0,0.0,0.0,0.0,0.0,0.0,0.0,0.0,0.1568,0.1245,0.2267,0.3265,0.4488,0.6445,0.8427,1.0393,1.1964,1.399,1.5675,1.6147,1.6863,1.6926,1.53,1.2768,1.0346,0.0,0.0,0.0,0.9872,1.3292,0.0,1.5167,1.5164,0.0,1.4701,0.0,1.3699,1.3375,1.3647,0.0,0.0,1.4744,1.5152,1.5588,1.6312,1.7076,1.7867,1.7787,1.8302,1.9479,1.9479,1.9479,1.9479,1.9639,1.969,1.969,1.969,1.969,1.969,1.9281,1.9095,1.9043,1.8106,1.7706,1.7626,1.6951,1.6634,1.6464,1.6351,1.622,1.6095,0.0,0.0,0.0,0.0,0.0,0.0,0.0,0.0,0.0,0.0,0.0,0.0,0.0,0.0,0.0,0.0,0.0,0.0,0.0,0.0,0.0,0.0,0.0,0.0,0.0,0.0,0.0,0.0,0.0,0.0,0.0,2.5507,2.6275,2.6392,2.6424,2.6055,2.535,2.4127,0.0,0.0,0.0,0.0,0.0,0.0,0.0,0.0,0.0,0.0,0.0,0.0,0.0,0.2553,0.2893,0.2815,0.2916,0.4505,0.0,0.7676,0.9519,1.1977,1.4307,1.5216,1.7135,1.8554,1.7456,1.7796,1.7452,1.4505,1.1787,0.0,0.0,0.0,0.0,0.0,0.0,0.0,1.4621,1.4502,1.4513,0.0,1.4086,0.0,1.3193,1.3705,1.4217,0.0,1.4971,1.5377,1.5952,1.6527,1.7034,1.7394,1.7544,1.7987,1.865,1.9132,1.9244,1.9006,1.9479,1.969,1.969,1.9442,1.9369,1.9332,1.8779,1.8535,1.8496,1.7666,1.7312,1.7229,1.671,1.6522,1.6522,1.6522,1.6522,1.6522,0.0,0.0,0.0,0.0,0.0,0.0,0.0,0.0,0.0,0.0,0.0,0.0,0.0,0.0,0.0,0.0,0.0,0.0,0.0,0.0,0.0,0.0,0.0,0.0,0.0,0.0,0.0,0.0,0.0,0.0,0.0,0.0,0.0,0.0,0.0,0.0,0.0,0.0,0.0,0.0,0.0,0.0,0.0,0.0,0.0,0.0,0.0,0.0,0.0,0.0,0.4281,0.3568,0.4321,0.4403,0.4657,0.6851,0.8878,1.0737,1.2314,1.5144,1.7775,1.7996,1.9535,2.0377,1.7941,1.78,1.7073,1.3472,0.0,0.9175,0.8202,0.9362,1.0008,0.8532,0.0,1.3867,1.3378,1.3166,1.3516,1.4808,1.4607,1.4182,1.379,1.4223,1.4639,1.4823,1.532,1.5864,1.6466,1.6951,1.6993,1.6522,1.7544,1.7827,1.7312,1.8302,1.8612,1.8224,1.9169,1.9603,1.9566,1.9132,1.8855,1.8765,1.8224,1.7987,1.7947,1.7435,1.7188,1.7146,1.668,1.6522,1.6522,1.6522,1.6522,1.6522,0.0,0.0,0.0,0.0,0.0,0.0,0.0,0.0,0.0,0.0,1.1837,1.2198,0.0,0.0,0.0,0.0,0.0,0.0,0.0,0.0,0.0,0.0,0.0,0.0,0.0,0.0,0.0,0.0,0.0,0.0,0.0,0.0,0.0,0.0,0.0,0.0,0.0,0.0,0.0,0.0,0.0,0.0,0.0,0.0,0.0,0.0,0.0,0.0,0.0,0.0,0.5493,0.4267,0.595,0.6308,0.6665,0.9807,1.1564,1.3187,1.6118,1.8088,1.9674,2.124,2.2329,2.2367,2.0029,1.9369,0.0,0.0,0.0,0.922,0.7446,0.8293,0.0,1.0621,0.0,0.0,0.0,0.0,1.5103,0.0,0.0,0.0,0.0,0.0,0.0,0.0,1.5543,1.5864,1.6466,1.6595,1.6595,1.6522,1.7544,1.7827,1.7312,1.7907,1.8419,1.8765,1.8968,1.9043,1.9043,1.893,1.865,1.8224,1.7666,0.0,1.7394,1.6879,1.6637,1.6637,1.6552,1.6522,1.6522,1.6522,1.6522,1.6522,0.0,0.0,0.0,0.0,0.0,0.0,0.0,1.0694,1.145,1.1886,1.2207,1.2445,1.2537,1.2942,1.3207,0.0,0.0,0.0,0.0,0.0,0.0,0.0,0.0,0.0,0.0,0.0,0.0,0.0,0.0,0.0,0.0,0.0,0.0,0.0,0.0,0.0,0.0,0.0,0.0,0.0,0.0,0.0,0.0,0.0,0.0,0.0,0.0,0.0,0.0,0.0,0.798,0.7471,0.856,0.9003,0.9685,1.2305,1.4094,1.5686,1.7945,2.0053,2.1881,2.2804,2.3701,2.3386,1.9511,0.0,0.0,0.0,0.0,0.8475,0.7646,0.0,0.0,0.0,0.0,0.0,0.0,0.0,0.0,0.0,0.0,0.0,0.0,0.0,0.0,1.6028,1.6066,1.6182,1.6466,1.6522,1.6522,1.6522,1.6993,1.7146,1.6879,1.7435,1.7827,1.8066,1.8341,1.8496,1.8458,1.8185,1.7947,1.7666,1.7105,1.6879,1.6879,1.6595,1.6522,1.6522,1.6522,1.6522,1.6522,1.6522,1.6522,1.6522,0.0,0.0,0.0,0.0,0.0,0.0,0.0,1.0837,1.1798,1.2095,1.2392,1.255,1.2488,1.3193,1.3628,0.0,0.0,0.0,0.0,0.0,0.0,0.0,0.0,0.0,0.0,0.0,0.0,0.0,0.0,0.0,0.0,0.0,0.0,0.0,0.0,0.0,0.0,0.0,0.0,0.0,0.0,0.0,0.0,0.0,0.0,0.0,0.0,0.0,0.0,0.0,1.0474,1.0885,1.1252,1.1526,1.2168,1.4205,1.5887,1.7515,1.9252,2.1608,2.3634,2.423,2.495,2.4175,1.9156,1.7463,0.0,0.0,0.849,0.8088,0.8324,0.0,0.0,0.0,0.0,0.0,0.0,0.0,0.0,0.0,0.0,0.0,0.0,0.0,0.0,1.6652,1.6547,1.6522,1.6522,1.6522,1.6522,1.6522,1.6522,1.6522,1.6522,1.6909,1.7188,1.7312,1.7747,1.7947,1.7907,1.7504,1.7229,1.7118,1.668,1.6584,1.6697,1.6697,1.6773,1.6861,1.6748,1.6697,1.6685,1.6559,1.6522,1.6522,0.0,0.0,0.0,0.0,0.0,0.0,0.0,1.0653,1.1277,1.1869,1.2263,1.2651,1.3067,1.3519,1.3741,0.0,0.0,0.0,0.0,0.0,0.0,0.0,0.0,0.0,0.0,0.0,0.0,0.0,0.0,0.0,0.0,0.0,0.0,0.0,0.0,0.0,0.0,0.0,0.0,0.0,0.0,0.0,0.0,0.0,0.0,0.0,0.0,0.0,0.0,0.0,0.0,1.2996,1.3386,1.2917,1.2695,1.5063,0.0,0.0,2.1234,2.2849,2.4131,2.668,2.6842,2.5261,2.1007,0.0,0.0,1.102,0.9197,0.8802,0.9482,0.954,0.0,0.0,0.0,1.2538,0.0,0.0,0.0,0.0,0.0,0.0,0.0,0.0,0.0,1.7368,1.6804,1.6522,1.6522,1.6522,1.6522,1.6522,1.6522,1.6522,1.6522,1.6552,1.6837,1.7312,1.7353,1.7394,1.7394,1.7312,1.7034,1.6552,1.6522,1.6823,0.0,1.73,1.7601,1.8003,1.7501,1.73,1.7237,1.671,1.6522,1.6522,0.0,0.0,0.0,0.0,0.0,0.0,0.9574,1.0362,1.1289,1.1929,1.2512,1.3164,1.3909,1.4552,1.4828,1.4519,0.0,0.0,0.0,0.0,0.0,0.0,0.0,0.0,0.0,0.0,0.0,0.0,0.0,0.0,0.0,0.0,0.0,0.0,0.0,0.0,0.0,0.0,0.0,0.0,0.0,0.0,0.0,0.0,0.0,0.0,0.0,0.0,0.0,0.0,0.0,0.0,1.3509,1.3216,0.0,0.0,1.7193,1.8615,2.1685,2.3827,2.5608,2.7274,2.6486,2.4457,2.1208,0.0,1.5001,1.1095,0.9798,0.9494,1.0018,1.0166,1.0455,0.0,0.0,0.0,0.0,0.0,0.0,0.0,0.0,0.0,0.0,0.0,1.8342,1.7451,1.6848,1.6522,1.6522,1.6522,1.6522,1.6522,1.6522,1.6522,1.6522,1.6522,1.6595,1.6837,1.6837,1.6837,1.685,1.7209,1.7244,1.7049,1.7388,1.7664,0.0,1.7877,1.8003,1.8179,1.7965,1.7877,1.7802,1.725,1.7036,1.6986,0.0,0.0,0.0,0.0,0.0,1.0117,0.9242,1.0409,1.162,1.2275,1.322,1.4069,1.4732,1.5634,1.6052,1.5675,1.4951,0.0,0.0,0.0,0.0,0.0,0.0,0.0,0.0,0.0,0.0,0.0,0.0,0.0,0.0,0.0,0.0,0.0,0.0,0.0,0.0,0.0,0.0,0.0,0.0,0.0,0.0,0.0,0.0,0.0,0.0,0.0,0.0,0.0,0.0,0.0,0.0,0.0,0.0,0.0,1.7154,1.8893,2.1668,2.4436,2.6896,2.8408,2.6809,2.4215,0.0,0.0,1.4229,1.1412,1.0382,1.014,1.0501,1.0862,1.1048,1.0995,0.0,1.3795,0.0,0.0,0.0,0.0,0.0,0.0,0.0,1.927,1.8643,1.7702,1.725,1.7011,1.7011,1.7011,1.6861,1.6522,1.6522,1.6522,1.6522,1.6685,1.6685,1.6522,1.6861,1.6835,1.6547,1.7287,1.7539,1.7413,1.7965,1.8292,0.0,1.8455,1.8543,1.8656,1.8505,1.8455,1.838,1.7827,1.7526,1.7325,0.0,0.0,0.0,0.0,0.0,0.0,0.9509,1.093,1.2309,1.2909,1.4426,1.5506,1.5579,1.6673,1.7257,1.7015,1.5889,0.0,0.0,0.0,0.0,0.0,0.0,0.0,0.0,0.0,0.0,0.0,0.0,0.0,0.0,0.0,0.0,0.0,0.0,0.0,0.0,0.0,0.0,0.0,0.0,0.0,0.0,0.0,0.0,0.0,0.0,0.0,0.0,0.0,0.0,0.0,0.0,0.0,0.0,0.0,1.5689,1.8031,2.1399,2.4617,2.7693,3.0615,2.8483,2.5167,0.0,0.0,1.5006,1.217,1.1021,1.066,1.1199,1.1524,1.162,1.1416,1.2011,0.0,0.0,0.0,0.0,0.0,0.0,0.0,0.0,1.9236,1.8794,1.8242,1.8191,0.0,1.8191,1.8191,1.7677,1.6559,1.6522,1.6522,1.6522,1.7087,1.7087,1.6491,1.7652,1.7601,1.6559,1.7677,1.7903,1.7413,1.7965,1.8518,0.0,1.897,1.9321,1.9736,1.9221,1.897,1.8908,1.8405,1.7852,1.7388,0.0,0.0,0.0,0.0,0.0,0.0,0.0,1.1567,1.2778,1.3711,1.4695,1.5367,1.5505,1.623,1.6427,1.5765,1.5937,0.0,0.0,0.0,0.0,0.0,0.0,0.0,0.0,0.0,0.0,1.5688,1.6527,0.0,0.0,0.0,0.0,0.0,0.0,0.0,0.0,0.0,0.0,0.0,0.0,0.0,0.0,0.0,0.0,0.0,0.0,0.0,0.0,0.0,0.0,0.0,0.0,0.0,0.0,1.3587,1.491,1.6624,1.9204,2.1446,2.3559,2.5584,2.3474,2.0744,2.0093,0.0,1.3204,1.1827,1.1426,1.132,1.1401,1.2044,1.2473,1.2264,1.3146,0.0,0.0,0.0,0.0,0.0,0.0,0.0,0.0,0.0,1.8908,1.8781,1.8417,1.8204,1.8204,1.8204,1.8041,1.7677,1.7677,1.7488,1.7112,1.7287,1.7087,1.6522,1.7275,1.7451,1.7149,1.8254,1.8668,1.853,1.907,1.9397,1.956,1.956,1.966,1.9786,1.9623,1.956,1.9497,1.8957,1.8656,1.8455,0.0,0.0,0.0,0.0,0.0,0.0,0.0,1.2184,1.3311,1.4098,1.5056,1.5628,1.5564,1.6184,1.634,1.5668,1.6181,0.0,0.0,0.0,0.0,0.0,0.0,0.0,0.0,0.0,1.536,1.4409,1.4975,1.4716,1.3743,1.4148,0.0,0.0,0.0,0.0,0.0,0.0,0.0,0.0,0.0,0.0,1.3266,0.0,0.0,0.0,0.0,0.0,0.0,0.0,0.0,0.0,0.0,0.0,0.0,0.0,1.4017,1.5513,0.0,2.0152,2.2037,2.3559,2.155,0.0,0.0,0.0,1.2764,1.2087,1.1884,1.1872,1.1864,1.2511,1.304,1.2914,0.0,0.0,0.0,0.0,0.0,0.0,0.0,0.0,0.0,1.9345,1.9321,1.9321,1.8995,1.8807,1.8807,1.8807,1.8807,1.8807,1.8417,1.794,1.7388,1.7589,1.74,1.6861,1.7626,1.789,1.7727,1.8819,1.9221,1.9008,1.9572,1.9798,0.0,1.9798,1.9798,1.9798,1.9798,1.9685,1.9497,1.9359,1.907,1.8668,0.0,0.0,0.0,0.0,0.0,0.0,0.0,1.2666,1.3821,1.4213,1.5462,1.6126,1.5683,1.6366,1.6678,1.6263,0.0,0.0,0.0,0.0,0.0,0.0,0.0,0.0,0.0,1.4386,1.3945,1.375,1.3668,1.3168,1.2318,1.3557,1.4217,1.4411,0.0,0.0,0.0,0.0,0.0,0.0,1.3236,1.2892,0.0,0.0,0.0,0.0,0.0,0.0,0.0,0.0,0.0,0.0,0.0,0.0,0.0,0.0,0.0,0.0,0.0,1.9914,2.2173,2.3576,2.1728,1.947,0.0,0.0,0.0,0.0,1.2349,1.2145,1.2434,1.2904,1.3314,1.338,0.0,0.0,0.0,0.0,0.0,0.0,0.0,0.0,1.8679,1.9384,1.9849,1.9798,1.9798,1.9798,1.9798,1.9798,1.9798,1.9798,1.8832,1.8053,1.7501,1.8003,1.799,1.7451,1.8518,1.8756,1.8292,1.9334,1.9535,0.0,1.9597,1.9798,1.9798,1.9798,1.9798,1.9798,1.9761,1.9447,1.9083,1.9522,1.9058,1.8204,0.0,0.0,0.0,0.0,0.0,0.0,0.0,0.0,0.0,0.0,1.524,1.5386,1.5122,1.5088,1.4996,0.0,0.0,0.0,0.0,0.0,0.0,0.0,0.0,0.0,0.0,1.3289,1.2876,1.2155,1.2643,1.2686,1.2307,1.2854,1.3766,1.4827,1.3582,1.3331,1.3769,0.0,0.0,0.0,1.2992,1.2638,0.0,0.0,0.0,0.0,1.2339,1.209,0.0,0.0,0.0,0.0,0.0,0.0,0.0,0.0,1.314,1.3982,1.4924,0.0,1.7315,1.8288,1.7449,1.6303,0.0,0.0,0.0,0.0,0.0,1.2045,1.2339,1.2726,1.3108,0.0,0.0,0.0,0.0,0.0,0.0,0.0,1.9953,2.02,1.8533,1.9636,2.0275,1.9836,1.9798,1.9798,1.9798,1.9798,1.9798,1.9798,1.956,1.9183,1.8643,1.8769,1.8555,1.8016,1.8694,1.8908,1.8857,1.951,1.9736,1.9623,1.9748,1.9798,1.9798,1.9798,1.9798,1.9761,1.9359,1.9133,1.8945,1.8694,1.843,1.8204,0.0,0.0,0.0,0.0,0.0,0.0,0.0,0.0,0.0,0.0,0.0,0.0,0.0,0.0,0.0,0.0,0.0,0.0,0.0,0.0,0.0,0.0,0.0,0.0,0.0,1.237,1.1954,1.1411,1.1762,1.2009,1.2152,1.2614,1.3617,1.4967,1.4377,1.3883,1.3602,1.3806,1.3605,1.3084,1.288,0.0,0.0,0.0,0.0,0.0,1.2101,1.1817,0.0,1.1199,1.0965,1.0738,0.0,0.0,0.0,0.0,1.2658,1.3282,1.3914,1.4791,1.5624,1.6003,1.5596,1.5022,1.4693,0.0,0.0,0.0,0.0,0.0,1.2066,0.0,0.0,0.0,0.0,0.0,0.0,0.0,0.0,0.0,2.0009,2.0207,0.0,2.0045,2.0426,1.9849,1.9798,1.9798,1.9798,1.9798,1.9798,1.9798,1.9798,1.9547,1.8983,1.8983,1.8833,1.8581,1.8833,1.9108,1.9397,1.9673,1.9798,1.9798,1.9798,1.9798,1.9798,1.9798,1.966,1.9409,1.9083,1.8869,1.8618,1.8317,1.8204,1.8166,0.0,0.0,0.0,0.0,0.0,0.0,0.0,0.0,0.0,0.0,0.0,0.0,0.0,0.0,0.0,0.0,0.0,0.0,0.0,0.0,0.0,0.0,0.0,1.298,1.2302,1.1448,1.1015,1.1045,1.118,1.1494,1.208,1.2707,1.3663,1.4891,1.5308,1.4873,1.3795,1.3914,1.3552,1.2861,1.2764,0.0,0.0,0.0,0.0,0.0,0.0,0.0,0.0,1.119,1.0905,1.0621,1.0495,0.0,0.0,0.0,0.0,0.0,1.3466,1.4406,1.5165,1.522,1.4926,1.456,0.0,0.0,0.0,0.0,0.0,0.0,0.0,0.0,0.0,0.0,0.0,0.0,0.0,0.0,0.0,1.933,1.9841,0.0,1.9718,2.0401,2.0514,1.9849,1.9798,1.9798,1.9798,1.9798,1.9798,1.9798,1.9798,1.9585,1.9145,1.9096,1.9096,1.9096,1.9096,1.9384,1.9798,1.9798,1.9798,1.9798,1.9798,0.0,1.9798,1.9798,1.9497,1.897,1.8883,1.8568,1.8066,1.7978,1.794,1.789,0.0,0.0,0.0,0.0,0.0,0.0,0.0,0.0,0.0,0.0,0.0,0.0,0.0,0.0,0.0,0.0,0.0,0.0,0.0,0.0,0.0,0.0,1.2345,1.1793,1.0853,1.0331,1.0157,1.0253,1.0937,1.1777,1.2777,1.3182,1.3756,1.4432,1.5104,1.4771,1.3729,1.38,1.3266,1.2421,1.2274,0.0,0.0,0.0,0.0,0.0,0.0,0.0,0.0,1.148,1.1103,1.0784,1.0746,0.0,0.0,0.0,0.0,0.0,1.2276,1.2929,1.362,1.4302,1.4029,1.3501,0.0,0.0,0.0,0.0,0.0,0.0,0.0,0.0,0.0,0.0,0.0,0.0,0.0,0.0,2.0556,1.8659,0.0,2.1683,1.9422,2.0536,2.0928,1.9874,1.9798,1.9798,1.9798,1.9798,1.9798,1.9798,1.9798,1.9761,1.9685,1.9685,1.9685,1.9685,1.9685,1.9723,1.9798,1.9798,1.9798,1.9798,0.0,1.9798,1.9798,1.9798,1.9497,1.8933,1.8518,1.799,1.7451,1.6961,1.6773,1.6835,0.0,0.0,0.0,0.0,0.0,0.0,0.0,0.0,0.0,0.0,0.0,0.0,0.0,0.0,0.0,0.0,0.0,0.0,0.0,0.0,0.0,0.0,1.091,1.0493,1.0233,0.9917,0.9908,1.0202,1.1037,1.1961,1.3007,1.4432,1.5292,1.554,1.5649,1.5089,1.4092,1.358,1.2977,1.2372,0.0,0.0,0.0,0.0,0.0,0.0,0.0,0.0,0.0,0.0,1.1196,1.0875,1.0663,0.0,0.0,0.0,0.0,0.0,1.1496,1.1727,1.1783,1.2039,1.2182,0.0,0.0,0.0,0.0,0.0,0.0,0.0,0.0,0.0,0.0,0.0,0.0,1.6448,1.6546,1.8232,1.9283,0.0,0.0,2.0708,2.0027,2.0632,2.0702,1.9861,1.9798,1.9936,2.025,1.9974,1.9949,2.0263,1.9962,1.9798,1.9798,1.9798,1.9798,1.9798,1.9798,1.9798,1.9798,1.9798,1.9798,1.9798,0.0,1.9798,1.9798,1.9798,1.9321,1.8555,1.8304,1.8053,1.7827,1.7865,1.73,1.6609,0.0,0.0,0.0,0.0,0.0,0.0,0.0,0.0,0.0,0.0,0.0,0.0,0.0,0.0,0.0,0.0,0.0,0.0,0.0,0.0,1.1442,1.0625,0.9808,0.9452,0.9645,0.9443,0.9637,1.0169,1.1145,1.2259,1.3561,1.5434,1.6414,1.6533,1.5932,1.5168,1.4354,1.3341,1.2754,1.2382,0.0,0.0,0.0,0.0,0.0,0.0,0.0,0.0,0.0,0.0,0.0,0.0,0.0,0.0,0.0,1.0341,1.0299,1.0375,1.1092,1.0976,1.0554,0.0,0.0,0.0,0.0,0.0,0.0,0.0,0.0,0.0,0.0,0.0,0.0,0.0,1.5972,1.6519,1.7044,1.7831,1.8581,1.9332,1.9821,2.0287,2.0807,2.0907,2.0627,2.0037,1.9874,2.0112,2.0869,2.0313,2.0263,2.0894,2.0426,2.02,2.02,2.0062,1.9936,1.9798,1.9798,1.9798,1.9798,1.9798,1.9798,1.9798,1.9798,1.9798,1.9798,1.9673,1.9133,1.8367,1.8116,1.7928,1.7852,1.8232,1.7714,1.6798,0.0,0.0,0.0,0.0,0.0,0.0,0.0,0.0,0.0,0.0,0.0,0.0,0.0,0.0,0.0,0.0,0.0,0.0,0.0,0.0,1.0772,0.9727,0.9403,0.9006,0.8518,0.8564,0.8992,0.9823,1.1025,1.2794,1.506,1.5521,1.5976,1.6376,1.5356,1.4601,1.4054,1.3132,1.248,1.2126,1.2126,0.0,0.0,0.0,0.0,0.0,0.0,0.0,0.0,0.0,0.0,0.0,0.0,0.0,1.0548,1.0414,1.0481,1.066,1.1073,1.0973,1.0524,0.9974,0.0,0.0,0.0,0.0,0.0,0.0,0.0,0.0,0.0,0.0,0.0,0.0,1.6705,1.7893,1.7685,0.0,2.083,2.0546,2.1882,2.2468,2.1531,2.143,2.1204,2.0706,2.0112,2.0275,2.1368,2.0903,2.0853,2.1418,2.1393,2.1368,2.1368,2.0853,2.0338,1.9798,1.9798,1.9798,1.9798,1.9798,1.9798,1.9798,1.9798,1.9798,1.9761,1.9284,1.8983,1.8869,1.784,1.7112,1.6647,1.6685,1.6961,1.74,0.0,0.0,0.0,0.0,0.0,0.0,0.0,0.0,0.0,0.0,0.0,0.0,0.0,0.0,0.0,0.0,0.0,0.0,0.0,0.0,0.9935,0.9188,0.8941,0.8944,0.9221,0.9084,0.9377,1.0099,1.2469,1.448,1.6076,1.6557,1.6712,1.6494,1.5404,1.4474,1.3627,1.2803,1.2323,1.2076,1.2076,1.2076,0.0,0.0,0.0,0.0,0.0,0.0,0.0,0.0,1.0625,1.028,0.9986,1.0062,1.0303,1.047,1.0588,1.0678,1.0883,1.0905,1.0615,0.0,0.0,0.0,0.0,0.0,0.0,0.0,0.0,0.0,0.0,0.0,0.0,1.602,1.7284,1.8471,1.9019,1.9858,2.0665,2.136,2.1641,2.1834,2.1976,2.1694,2.1405,2.1192,2.0978,2.1192,2.1958,2.1481,2.143,2.1983,2.133,2.0978,2.0978,2.0413,2.0024,1.9798,1.9798,1.9798,1.9798,1.9798,1.9798,1.9798,1.9798,1.9798,1.9786,1.9585,1.9321,1.8933,1.8568,1.8053,1.7652,1.8317,1.8279,1.7978,0.0,0.0,0.0,0.0,0.0,0.0,0.0,0.0,0.0,0.0,0.0,0.0,0.0,0.0,0.0,0.0,0.0,0.0,0.0,0.9541,0.9643,0.946,0.9235,0.9533,1.0404,1.0136,1.0223,1.0703,1.3321,1.525,1.6458,1.6514,1.6415,1.6114,1.4742,1.3708,1.3054,1.2319,1.2015,1.2076,1.2076,1.2076,0.0,0.0,0.0,0.0,0.0,0.0,0.0,0.0,1.0634,1.0493,1.0091,1.024,1.0567,1.0646,1.0786,1.0872,1.0887,1.0954,1.0831,0.0,0.0,0.0,0.0,0.0,0.0,0.0,0.0,0.0,0.0,0.0,0.0,0.0,1.8054,1.9029,1.9779,2.025,2.0895,2.1788,2.174,2.1811,2.2264,2.197,2.1744,2.1744,2.1594,2.1807,2.2535,2.2046,2.192,2.2297,2.1581,2.1104,2.0928,2.0363,2.0075,2.0075,1.9886,1.9798,1.9798,1.9798,1.9798,1.9798,1.9798,1.9798,1.9798,1.9623,1.9246,1.8733,1.8908,1.8694,1.8292,1.9032,1.8945,1.8518,0.0,0.0,0.0,0.0,0.0,0.0,0.0,0.0,0.0,0.0,0.0,0.0,0.0,0.0,0.0,0.0,0.0,0.0,0.0,0.9522,0.9968,1.0595,1.0355,1.0786,1.1984,1.1616,1.1509,1.1638,1.3221,1.4749,1.6172,1.4954,1.472,0.0,0.0,0.0,1.2327,1.1579,1.1613,1.2067,1.2067,1.2126,1.2126,0.0,0.0,0.0,0.0,0.0,0.0,0.0,1.0678,1.0678,1.0409,1.0866,1.1442,1.1006,1.1091,1.1284,1.1132,1.117,0.0,0.0,0.0,0.0,0.0,0.0,0.0,0.0,0.0,0.0,0.0,0.0,0.0,1.7491,1.8861,1.9902,1.9902,2.1088,2.1877,2.1877,2.2628,2.2865,2.2372,2.2322,2.2322,2.2322,2.1807,2.1983,2.3015,2.2623,2.2322,2.2309,2.2309,2.2033,2.1493,2.0941,2.0706,2.0706,2.0075,1.9798,1.9798,1.9798,1.9798,1.9798,1.9798,1.9798,1.9761,1.9246,1.8719,1.8279,1.8819,1.8694,1.8229,1.8229,1.8568,1.8983,0.0,0.0,0.0,0.0,0.0,0.0,0.0,0.0,0.0,0.0,0.0,0.0,0.0,0.0,0.0,0.0,0.0,0.0,0.0,0.947,0.9856,1.0154,1.0376,1.0961,1.1997,1.2984,1.3435,1.3297,1.437,1.5032,1.5195,1.5037,0.0,1.2958,0.0,0.0,1.0994,1.072,1.0953,1.152,1.152,1.178,1.2076,0.0,0.0,0.0,0.0,0.0,0.0,0.0,0.0,0.0,1.0767,1.115,1.1583,1.1395,1.1318,1.1303,1.1268,1.1096,0.0,0.0,0.0,0.0,0.0,0.0,0.0,0.0,0.0,0.0,0.0,0.0,0.0,1.8248,1.9645,2.0919,2.1236,2.1647,2.2125,2.2702,2.2944,2.3015,2.2912,2.2887,2.2887,2.2887,2.2736,2.2786,2.3053,2.2975,2.2711,2.2322,2.1933,2.1468,2.097,2.0338,2.0062,2.0049,1.9886,1.9798,1.9798,1.9798,1.9798,1.9798,1.9798,1.9798,1.9798,1.9635,1.9472,1.9346,1.951,1.9472,1.9334,1.9334,1.9434,1.9623,0.0,0.0,0.0,0.0,0.0,0.0,0.0,0.0,0.0,0.0,1.1442,0.0,0.0,0.0,0.0,0.0,0.0,0.0,0.0,0.0,1.0192,1.0724,1.1084,1.1849,1.301,1.3806,1.4298,1.4523,1.4955,1.4891,1.4416,0.0,1.3141,1.1648,0.0,1.0489,1.0211,1.0144,1.0454,1.1048,1.114,1.1433,1.1838,0.0,0.0,0.0,0.0,0.0,0.0,0.0,0.0,0.0,1.1861,1.1932,1.1886,1.169,1.1427,1.115,1.1215,0.0,0.0,0.0,0.0,0.0,0.0,0.0,0.0,0.0,0.0,0.0,0.0,1.8046,0.0,1.8833,2.0313,2.1574,2.1851,2.2199,2.2494,2.2777,2.294,2.299,2.2824,2.294,2.3078,2.3078,2.3078,2.3078,2.3078,2.3078,2.2874,2.2334,2.1782,2.123,2.0731,2.0087,1.9798,1.9798,2.0037,2.015,2.0137,1.9911,1.9798,1.9798,1.9798,1.9936,2.015,2.015,2.015,2.015,2.015,1.9999,1.9798,1.9798,1.9798,1.985,0.0,0.0,1.3163,1.3094,0.0,0.0,0.0,0.0,0.0,0.0,1.0992,1.0582,0.0,0.0,0.0,0.0,0.0,0.0,0.0,0.0,1.0803,1.1768,1.2095,1.2934,1.4455,1.4098,1.4292,1.5215,1.5022,1.4502,0.0,0.0,1.1638,1.0988,0.0,0.9481,0.9829,0.9796,1.0125,1.0668,1.0801,1.1104,1.1481,1.1556,0.0,0.0,0.0,0.0,0.0,0.0,0.0,0.0,1.332,1.2967,1.2361,1.2016,1.1491,1.1021,1.1269,0.0,0.0,0.0,0.0,0.0,0.0,0.0,0.0,0.0,0.0,0.0,0.0,1.8267,1.942,1.9433,2.0876,2.199,2.1942,2.2604,2.2949,2.2447,2.2824,2.2937,2.2435,2.2836,2.3078,2.3078,2.3078,2.3078,2.3078,2.3078,2.2862,2.2259,2.1744,2.1204,2.0589,2.0125,1.9874,1.9886,2.0464,2.0794,2.0769,2.0137,1.9849,1.9798,1.9798,2.01,2.0643,2.0643,2.0668,2.0718,2.0718,2.0338,1.9874,1.9874,1.9849,1.9798,0.0,0.0,1.2826,1.2401,0.0,0.0,0.0,0.0,0.0,0.0,0.0,0.0,0.0,0.0,0.0,0.0,0.0,0.0,0.0,0.0,1.093,1.1323,1.1594,1.2332,1.3626,1.3698,1.3982,1.4452,1.4329,0.0,0.0,0.0,0.0,0.969,0.0,0.957,0.9444,0.9627,1.0031,1.0465,1.0431,1.0689,1.114,1.1407,1.163,0.0,0.0,0.0,0.0,0.0,0.0,0.0,1.3673,1.3429,1.3112,1.2538,1.1884,1.1569,0.0,1.2423,0.0,0.0,0.0,0.0,0.0,0.0,0.0,0.0,0.0,1.8026,1.8603,1.9607,2.0392,2.0623,2.191,2.2675,2.2241,2.2742,2.3027,2.2915,2.3002,2.3027,2.2915,2.3002,2.3078,2.3078,2.3078,2.3078,2.3078,2.3078,2.2686,2.1694,2.1556,2.1004,1.9999,2.0313,2.0529,2.0489,2.1041,2.1305,2.1292,2.074,2.0238,1.9798,1.9798,1.9874,1.9987,1.9987,2.0263,2.0718,2.0718,2.0643,2.0529,2.0529,2.0188,1.9901,0.0,0.0,0.0,0.0,0.0,0.0,0.0,0.0,0.0,0.0,0.0,0.0,0.0,0.0,0.0,0.0,1.0954,1.1153,1.1426,1.125,1.1346,1.1828,1.2121,1.2793,1.3903,1.3888,1.393,1.4161,0.0,0.0,0.0,0.0,0.0,0.9625,0.0,0.9686,0.9496,0.9634,0.9913,1.0221,1.0221,1.0507,1.1008,1.1426,1.1721,1.2034,1.2734,0.0,0.0,0.0,0.0,0.0,0.0,0.0,1.3515,1.32,1.2593,1.2286,0.0,0.0,0.0,0.0,0.0,0.0,0.0,0.0,0.0,0.0,1.8582,1.8588,1.9716,2.0389,2.0908,2.1327,2.2163,2.2736,2.2711,2.289,2.2977,2.2774,2.2915,2.3025,2.2761,2.2975,2.3078,2.3078,2.3078,2.3078,2.3078,2.3078,2.2749,2.1907,2.1882,2.1468,2.0614,2.0903,2.1054,2.1066,2.1619,2.1882,2.187,2.1305,2.0891,2.0589,2.0326,2.0363,2.0589,2.0326,2.0552,2.1054,2.1054,2.1054,2.1054,2.1054,2.0702,2.0265,0.0,0.0,0.0,0.0,0.0,0.0,0.0,0.0,0.0,0.0,0.0,0.0,0.0,0.0,1.1029,0.0,0.0,0.0,1.1656,1.1459,1.1654,1.2413,1.258,1.3066,1.3962,1.3772,1.3671,0.0,0.0,0.0,0.0,0.0,0.0,1.0019,0.0,0.9965,0.9904,1.0018,1.0167,1.0318,1.0388,1.0672,1.1116,1.1624,1.2029,1.2381,1.3422,1.3739,1.3844,1.4904,0.0,0.0,0.0,0.0,1.3856,1.3815,1.3362,1.3063,0.0,0.0,0.0,0.0,0.0,0.0,0.0,0.0,0.0,2.0805,1.9821,1.935,2.0576,2.1005,2.1295,2.1752,2.2196,2.2548,2.2811,2.2952,2.2962,2.251,2.2862,2.2962,2.2498,2.2862,2.3078,2.3078,2.3078,2.3078,2.3078,2.3078,2.2874,2.2334,2.2309,2.2046,2.1493,2.1581,2.1631,2.1631,2.2184,2.2447,2.2435,2.1983,2.1669,2.1468,2.1004,2.1016,2.1317,2.0953,2.1079,2.1493,2.1594,2.1631,2.1631,2.1631,2.128,2.0857,0.0,0.0,0.0,0.0,0.0,0.0,0.0,0.0,0.0,0.0,1.1185,0.0,0.0,1.1082,1.1082,1.1082,1.112,1.1233,1.1432,0.0,0.0,1.1711,1.148,1.1509,1.1786,1.2238,1.2283,0.0,0.0,0.0,0.0,0.0,0.0,1.0098,0.0,0.0,1.0767,1.1283,1.1525,1.1568,1.1568,1.1608,1.175,1.2133,1.2423,0.0,0.0,1.4195,1.446,1.5014,1.5256,0.0,0.0,0.0,1.4517,1.4229,1.3781,1.3639,0.0,0.0,0.0,0.0,0.0,0.0,0.0,0.0,2.0299,0.0,2.098,2.064,2.1542,2.1756,2.174,2.1559,2.2389,2.2711,2.1832,2.2535,2.3053,2.2977,2.3027,2.304,2.2977,2.3027,2.3078,2.3078,2.3078,2.3078,2.3078,2.3078,2.2874,2.2334,2.2309,2.2046,2.1493,2.197,2.2196,2.2209,2.2761,2.2965,2.2965,2.2949,2.2397,2.1493,2.1405,2.1154,2.0857,2.1204,2.143,2.1543,2.202,2.2196,2.2196,2.2196,2.1845,2.138,0.0,0.0,0.0,0.0,0.0,0.0,0.0,0.0,0.0,0.0,0.0,1.112,1.1006,1.1082,1.1158,1.1158,1.125,1.1276,1.1136,1.0926,1.0968,1.1308,1.1478,1.1657,1.1834,1.239,0.0,0.0,0.0,0.0,0.0,1.1274,1.0903,0.0,0.0,0.0,0.0,0.0,1.1877,1.1953,1.1953,1.2158,1.251,0.0,0.0,0.0,0.0,0.0,0.0,1.5113,1.5273,1.5196,1.5205,0.0,0.0,0.0,1.4751,0.0,1.6656,0.0,0.0,0.0,0.0,0.0,0.0,0.0,2.2739,2.3018,2.3013,2.2898,2.2616,2.2322,2.2184,2.2376,2.2297,2.2259,2.2397,2.256,2.2786,2.304,2.3078,2.3078,2.3078,2.3078,2.3078,2.3078,2.3078,2.3078,2.3078,2.3078,2.2874,2.2334,2.2611,2.251,2.1958,2.2498,2.2774,2.2774,2.2965,2.3078,2.3078,2.3078,2.2874,2.2372,2.1757,2.1355,2.1091,2.0702,2.074,2.1091,2.1631,2.2046,2.2309,2.2309,2.2159,2.1857,0.0,0.0,0.0,0.0,0.0,0.0,0.0,0.0,0.0,0.0,0.0,1.1006,1.0919,0.0,0.0,0.0,1.1276,1.1228,1.0888,1.0687,1.0695,1.0971,1.1456,1.1768,1.1939,1.2531,0.0,0.0,0.0,0.0,1.1053,1.1053,1.0733,0.0,1.0854,0.0,0.0,0.0,0.0,0.0,1.2555,1.2815,0.0,0.0,0.0,0.0,0.0,0.0,0.0,0.0,0.0,0.0,0.0,0.0,0.0,0.0,0.0,0.0,0.0,0.0,0.0,0.0,0.0,0.0,0.0,0.0,2.4533,0.0,2.4418,2.4356,2.3514,2.3025,2.2786,2.2912,2.2347,2.2146,2.2824,2.2686,2.2673,2.3027,2.3078,2.3078,2.3078,2.3078,2.3078,2.3078,2.3078,2.3078,2.3078,2.3078,2.2949,2.2535,2.2865,2.2937,2.2523,2.2924,2.3078,2.3078,2.3078,2.3078,2.3078,2.3078,2.3078,2.3088,2.2259,2.1744,2.143,2.0727,2.0526,2.0769,2.128,2.1832,2.2309,2.2309,2.2309,2.2196,0.0,0.0,0.0,0.0,0.0,0.0,0.0,0.0,0.0,0.0,0.0,1.093,1.0891,1.0919,1.093,1.093,1.093,1.0919,1.0822,1.039,1.03,1.0724,1.0984,0.0,0.0,0.0,0.0,0.0,0.0,0.0,1.0723,1.099,1.0691,1.0039,1.0773,1.1394,1.189,0.0,0.0,0.0,1.38,1.382,0.0,0.0,0.0,0.0,0.0,0.0,0.0,0.0,0.0,0.0,0.0,0.0,0.0,0.0,0.0,0.0,0.0,0.0,0.0,0.0,0.0,0.0,0.0,0.0,2.4326,2.4688,2.4393,2.4017,2.3966,2.3929,2.3565,2.2523,2.2749,2.2887,2.2422,2.2786,2.304,2.3078,2.3078,2.3078,2.3078,2.3078,2.3078,2.3078,2.3078,2.3078,2.3078,2.3078,2.3065,2.3027,2.3065,2.3065,2.3027,2.3065,2.3078,2.3078,2.3078,2.3078,2.3078,2.3078,2.3078,2.3078,2.3015,2.2447,2.1518,2.1983,2.1581,2.0769,2.128,2.1832,2.2309,2.2309,2.2309,2.2297,0.0,0.0,0.0,0.0,0.0,0.0,0.0,0.0,0.0,0.0,0.0,0.0,0.0,1.0891,1.0891,1.0891,1.0881,1.0708,1.0361,1.0196,1.0116,1.0108,1.068,0.0,0.0,0.0,0.0,0.0,0.0,1.2129,1.1782,1.1557,1.1553,1.1774,1.1687,1.1598,1.159,1.2564,0.0,0.0,1.3256,1.361,0.0,0.0,0.0,0.0,0.0,0.0,0.0,0.0,0.0,0.0,0.0,0.0,0.0,0.0,0.0,0.0,0.0,0.0,0.0,0.0,0.0,2.297,2.4164,2.5087,2.558,2.5369,2.5159,2.482,2.413,2.369,2.3314,2.2912,2.2711,2.2661,2.2824,2.2711,2.2736,2.3027,2.3078,2.3078,2.3078,2.3078,2.3078,2.3078,2.3078,2.3078,2.3078,2.3078,2.3078,2.3078,2.3078,2.3078,2.3078,2.3078,2.3078,2.3078,2.3078,2.3078,2.3078,2.3078,2.3078,2.3078,2.3078,2.2711,2.2008,2.1845,2.1343,2.0769,2.128,2.1393,2.1255,2.1255,2.1481,2.1732,0.0,0.0,0.0,0.0,0.0,0.0,0.0,0.0,0.0,0.0,0.0,0.0,0.0,0.0,1.0718,1.0718,1.0746,1.0582,1.0235,1.0196,1.0185,1.0089,1.0723,0.0,0.0,0.0,0.0,0.0,0.0,0.0,0.0,0.0,1.2069,1.2442,1.2324,0.0,0.0,0.0,0.0,1.2223,0.0,0.0,1.3273,0.0,0.0,0.0,0.0,0.0,0.0,0.0,0.0,0.0,0.0,0.0,0.0,0.0,0.0,0.0,0.0,0.0,0.0,0.0,0.0,2.3159,2.4384,0.0,2.6045,2.6133,2.5647,2.4913,2.4367,2.3803,2.3364,2.3103,2.2824,2.2711,2.3027,2.2824,2.2723,2.3027,2.3078,2.3078,2.3078,2.3078,2.3078,2.3078,2.3078,2.3078,2.3078,2.3078,2.3078,2.3078,2.3078,2.3078,2.3078,2.3078,2.3078,2.3078,2.3078,2.3078,2.3078,2.3078,2.3078,2.3078,2.3078,2.2824,2.2284,2.192,2.1443,2.0978,2.1343,2.138,2.1217,2.1217,2.133,2.1455,0.0,0.0,0.0,0.0,0.0,0.0,0.0,0.0,0.0,0.0,0.0,0.0,0.0,0.0,0.0,1.038,1.0515,1.0564,1.0438,1.0448,1.0528,1.0743,1.1152,0.0,0.0,0.0,0.0,0.0,0.0,0.0,0.0,0.0,1.2208,0.0,1.2562,1.259,1.2124,0.0,1.2143,1.1395,0.0,1.2491,1.2085,0.0,0.0,0.0,1.2053,1.286,0.0,0.0,0.0,0.0,0.0,0.0,0.0,0.0,0.0,0.0,0.0,0.0,0.0,0.0,0.0,0.0,2.5754,2.5697,2.542,2.6989,2.5673,2.435,2.4738,2.4393,2.3841,2.3276,2.3115,2.3103,2.3103,2.3115,2.3128,2.3128,2.3115,2.3103,2.3103,2.3078,2.3078,2.3078,2.309,2.309,2.3078,2.3078,2.3078,2.3078,2.3078,2.3078,2.3078,2.3078,2.3078,2.3078,2.3078,2.3078,2.3078,2.3078,2.3078,2.3078,2.3078,2.2824,2.2334,2.2334,2.2008,2.1506,2.1506,2.1832,2.2284,2.2284,2.1945,2.1568,0.0,0.0,0.0,0.0,0.0,0.0,0.0,0.0,0.0,0.0,0.0,0.0,0.0,0.0,0.0,1.0351,1.0805,1.1065,1.0935,1.1243,1.1387,1.1334,1.1752,1.1989,0.0,0.0,0.0,0.0,0.0,0.0,0.0,0.0,0.0,0.0,1.2894,1.2685,1.2458,1.248,0.0,0.0,1.1999,1.1999,0.0,0.0,0.0,0.0,0.0,1.2512,0.0,0.0,1.5598,1.5609,0.0,0.0,0.0,0.0,0.0,0.0,1.8543,0.0,0.0,0.0,0.0,0.0,2.3881,2.4514,2.5087,2.6427,2.5896,2.5282,2.5344,2.4946,2.4544,2.4381,2.4017,2.3753,2.3753,2.4104,2.4356,2.4356,2.4004,2.3753,2.3753,2.3376,2.3078,2.3078,2.3527,2.3577,2.3103,2.3078,2.3078,2.3078,2.3078,2.3078,2.3078,2.3078,2.3078,2.3078,2.3078,2.3078,2.3078,2.3078,2.3078,2.3078,2.3078,2.305,2.2912,2.2912,2.2585,2.2083,2.2083,2.1933,2.1719,2.1719,2.1619,2.1568,0.0,0.0,0.0,0.0,0.0,0.0,0.0,0.0,0.0,0.0,0.0,0.0,0.0,0.0,0.0,1.0322,1.0915,1.1246,1.1124,1.1626,1.1914,1.1925,1.2217,1.2513,0.0,0.0,0.0,0.0,0.0,0.0,0.0,0.0,0.0,0.0,0.0,0.0,0.0,0.0,0.0,0.0,1.1602,0.0,0.0,1.1056,1.1253,0.0,0.0,0.0,1.4473,1.5858,1.6213,0.0,0.0,0.0,0.0,0.0,0.0,0.0,0.0,0.0,0.0,0.0,0.0,0.0,2.3797,2.4278,2.486,2.6489,2.6064,2.5388,2.5569,2.5347,2.5071,2.4858,2.4732,2.4582,2.4368,2.4619,2.482,2.482,2.4544,2.4343,2.4343,2.4042,2.3841,2.3841,2.4155,2.4192,2.3866,2.3627,2.3502,2.3502,2.3203,2.3078,2.3078,2.3078,2.3078,2.3078,2.3078,2.3078,2.3078,2.3078,2.3078,2.3078,2.3078,2.3078,2.3078,2.3078,2.2949,2.2661,2.2661,2.246,2.2171,2.2171,2.2033,2.1907,0.0,0.0,1.0572,1.0544,1.0505,0.0,0.0,0.0,0.0,0.0,0.0,0.0,0.0,0.0,0.0,0.0,1.1035,1.1397,1.1314,1.1895,1.2321,1.2517,1.2629,1.3084,1.3851,0.0,0.0,0.0,0.0,0.0,0.0,0.0,0.0,0.0,1.3372,1.3273,0.0,0.0,0.0,1.1926,1.1454,1.1373,0.0,0.0,1.1685,0.0,1.3,1.4766,1.7205,1.6427,1.6838,0.0,0.0,0.0,0.0,0.0,1.877,0.0,0.0,0.0,0.0,0.0,0.0,0.0,2.4566,2.4474,2.4614,2.6639,2.5963,2.5139,2.554,2.5598,2.5473,2.5071,2.5435,2.5573,2.4996,2.4958,2.5008,2.5008,2.4946,2.4908,2.4908,2.4858,2.482,2.482,2.482,2.4845,2.4908,2.4393,2.4092,2.4092,2.3527,2.3226,2.3226,2.3103,2.3078,2.3078,2.3078,2.3078,2.3078,2.3078,2.3078,2.3078,2.3078,2.3078,2.3078,2.3078,2.3078,2.3078,2.3078,2.3078,2.3078,2.3078,2.2824,2.2472,1.0685,1.0224,0.9941,1.0098,0.0,0.0,0.0,0.0,0.0,0.0,0.0,0.0,0.0,0.0,0.0,0.0,0.0,1.2303,1.2525,1.2909,1.3195,1.3344,1.3392,1.3474,1.3649,1.4058,0.0,0.0,0.0,0.0,0.0,0.0,0.0,0.0,0.0,0.0,0.0,0.0,0.0,1.3488,1.2134,0.0,1.2073,1.1926,1.2731,1.4013,1.4545,1.5347,1.624,0.0,1.7936,1.8804,0.0,0.0,0.0,0.0,0.0,0.0,0.0,0.0,0.0,0.0,0.0,0.0,2.3475,2.3514,2.362,2.5028,2.5078,2.4959,2.5536,2.5598,2.5711,2.6088,2.6603,2.6603,2.5586,2.585,2.6138,2.6138,2.5724,2.5435,2.5435,2.5071,2.482,2.482,2.482,2.5008,2.5423,2.4946,2.4657,2.4657,2.4117,2.3828,2.3828,2.3364,2.3078,2.3078,2.3078,2.3078,2.3078,2.3078,2.3078,2.3078,2.3078,2.3078,2.3078,2.3078,2.3078,2.3078,2.3078,2.3078,2.3078,2.3078,2.3002,2.2987,1.0283,1.0019,0.9872,0.9902,0.0,0.0,0.0,0.0,0.0,0.0,0.0,0.0,0.0,0.0,0.0,0.0,0.0,0.0,0.0,0.0,1.342,1.3515,1.3515,1.3731,1.4293,1.4531,1.4759,0.0,0.0,0.0,0.0,0.0,0.0,0.0,0.0,0.0,0.0,0.0,1.3582,1.3658,1.3116,0.0,1.2914,1.3291,1.4126,1.5131,1.5909,1.6942,1.8192,1.9471,1.9752,0.0,0.0,1.9521,1.9263,0.0,1.9101,1.94,0.0,0.0,0.0,2.1222,0.0,0.0,0.0,2.3661,2.3825,2.4968,2.5008,2.4971,2.5498,2.5598,2.5787,2.6433,2.6917,2.6992,2.6151,2.6753,2.7281,2.7281,2.703,2.6854,2.6854,2.6364,2.5937,2.5661,2.5636,2.5749,2.6013,2.5498,2.5209,2.5209,2.4418,2.4004,2.4004,2.3427,2.3078,2.3078,2.3078,2.3078,2.3078,2.3078,2.3078,2.3078,2.3078,2.3078,2.3078,2.3078,2.3078,2.3078,2.3078,2.3078,2.3078,2.3078,2.3078,2.3078,1.0162,1.0101,1.004,0.9966,0.0,0.0,0.0,0.0,0.0,0.0,0.0,0.0,0.0,0.0,0.0,0.0,0.0,0.0,0.0,0.0,0.0,1.381,1.3549,1.3906,1.4997,1.5008,1.5183,1.5556,0.0,0.0,0.0,0.0,0.0,0.0,0.0,0.0,0.0,0.0,0.0,1.3831,0.0,1.4321,1.383,1.4532,1.5434,1.6483,1.7348,1.8714,2.0286,2.143,0.0,2.0025,2.0563,2.0367,0.0,0.0,0.0,0.0,0.0,0.0,0.0,0.0,0.0,2.232,0.0,0.0,0.0,2.5109,2.5046,2.4946,0.0,0.0,0.0,2.6214,0.0,0.0,0.0,2.7406,0.0,2.7821,2.7971,2.8059,2.7959,2.7544,2.7143,2.6804,2.6647,2.6584,2.6615,2.6076,2.5762,2.5762,2.472,2.4155,2.4155,2.3477,2.3078,2.3078,2.3078,2.3078,2.3078,2.3078,2.3078,2.3078,2.3078,2.3078,2.3078,2.3078,2.3078,2.3078,2.3078,2.314,2.3301,2.3301,2.3301,2.3314,1.055,1.0431,1.0324,1.0551,0.0,0.0,0.0,0.0,0.0,0.0,0.0,0.0,0.0,0.0,0.0,0.0,0.0,0.0,1.4607,0.0,0.0,0.0,1.4084,1.3945,1.5159,1.5037,1.4965,1.4901,0.0,0.0,0.0,0.0,0.0,0.0,1.2645,0.0,0.0,0.0,1.406,0.0,1.6654,1.6094,0.0,1.5066,1.6279,1.7865,1.9064,1.9664,1.9895,0.0,1.9947,1.9895,0.0,2.0138,0.0,0.0,0.0,0.0,0.0,0.0,0.0,0.0,2.1724,0.0,0.0,0.0,2.4029,2.4155,0.0,0.0,0.0,0.0,0.0,0.0,0.0,0.0,2.6609,2.7406,2.7745,2.6766,2.7507,2.7908,2.7419,2.7318,2.7457,2.7883,2.7017,2.6747,2.7155,2.6666,2.6433,2.6433,2.5297,2.4732,2.4732,2.3665,2.3078,2.3078,2.3078,2.3078,2.3078,2.3078,2.3078,2.3078,2.3078,2.3078,2.3078,2.3078,2.3078,2.3078,2.3078,2.3452,2.3904,2.3904,2.3904,2.3966,1.0441,1.0603,1.0976,1.1303,0.0,0.0,0.0,0.0,0.0,0.0,0.0,0.0,0.0,0.0,0.0,0.0,0.0,1.5339,0.0,0.0,0.0,0.0,0.0,0.0,0.0,1.4883,1.4856,1.5012,1.4919,0.0,0.0,0.0,0.0,0.0,1.3375,0.0,1.4047,0.0,0.0,0.0,0.0,0.0,0.0,1.7853,1.849,1.9146,2.0017,2.03,2.0351,0.0,2.0723,0.0,0.0,0.0,0.0,0.0,0.0,0.0,0.0,0.0,0.0,0.0,0.0,0.0,2.4091,0.0,2.4092,0.0,0.0,0.0,0.0,0.0,0.0,0.0,2.6892,2.715,0.0,0.0,2.7934,2.7469,2.7821,2.8009,2.7783,2.8047,2.8197,2.8109,2.7381,2.703,2.7268,2.6753,2.6533,2.6533,2.5686,2.5121,2.482,2.4042,2.3464,2.3078,2.3078,2.3078,2.3078,2.3078,2.3078,2.3078,2.3078,2.3078,2.3078,2.3078,2.3078,2.3103,2.3502,2.3791,2.4092,2.4944,2.4885,2.457,1.0597,0.0,0.0,0.0,0.0,0.0,0.0,0.0,0.0,0.0,0.0,0.0,1.3115,1.3494,0.0,0.0,0.0,1.602,0.0,0.0,1.5458,0.0,0.0,0.0,0.0,0.0,1.48,1.4962,1.4846,1.4497,0.0,0.0,0.0,0.0,0.0,1.4144,1.4227,0.0,0.0,1.7114,1.8312,1.9039,1.9563,1.9932,1.9964,1.9861,2.0275,2.0426,2.0489,2.0891,2.0974,0.0,2.0915,0.0,0.0,0.0,0.0,0.0,2.0628,0.0,0.0,0.0,0.0,0.0,0.0,0.0,0.0,0.0,0.0,0.0,0.0,0.0,0.0,0.0,0.0,2.7132,0.0,2.7322,0.0,2.7657,2.7783,2.7946,2.8097,2.8461,2.8599,2.8348,2.7821,2.757,2.772,2.7205,2.6841,2.6691,2.6126,2.5573,2.5034,2.4343,2.3791,2.3376,2.3376,2.3376,2.3376,2.3527,2.3514,2.3376,2.3466,2.3366,2.3078,2.3314,2.3376,2.3427,2.4004,2.4318,2.4545,2.5612,2.5576,2.5111,1.1366,1.1674,0.0,0.0,0.0,0.0,0.0,0.0,0.0,0.0,0.0,0.0,0.0,0.0,0.0,0.0,0.0,1.7536,1.6819,0.0,1.5925,0.0,0.0,0.0,0.0,0.0,0.0,1.4345,0.0,0.0,0.0,0.0,0.0,0.0,0.0,1.3909,1.4853,1.4711,1.6065,1.8416,1.9321,2.0673,2.2031,0.0,1.9834,1.9798,1.9823,0.0,0.0,1.9849,1.9861,1.9793,1.949,0.0,0.0,0.0,0.0,0.0,0.0,0.0,0.0,2.2747,0.0,0.0,0.0,0.0,2.4795,0.0,0.0,0.0,0.0,0.0,0.0,0.0,0.0,0.0,0.0,0.0,0.0,0.0,0.0,0.0,0.0,2.8122,2.8348,2.8863,2.8398,2.831,2.885,2.8348,2.7808,2.7268,2.6716,2.6151,2.5573,2.4531,2.3991,2.3966,2.3966,2.3966,2.3991,2.4519,2.4469,2.4004,2.4531,2.4142,2.3175,2.374,2.3966,2.4017,2.4582,2.5096,2.5548,2.5627,2.5573,2.5649,0.0,0.0,0.0,0.0,0.0,0.0,0.0,1.1828,0.0,0.0,0.0,0.0,0.0,0.0,1.5793,0.0,0.0,1.7028,1.5991,1.6228,0.0,0.0,0.0,1.5338,0.0,0.0,0.0,0.0,0.0,0.0,1.4178,1.3813,1.383,0.0,0.0,1.5635,0.0,0.0,0.0,0.0,0.0,2.1538,2.1732,0.0,2.069,2.0326,1.9936,1.9798,1.9798,1.9798,1.967,1.9389,1.9036,1.8846,1.8804,1.9046,1.9402,1.99,0.0,0.0,2.1666,2.2343,0.0,0.0,0.0,0.0,0.0,0.0,0.0,0.0,0.0,0.0,0.0,0.0,0.0,0.0,0.0,0.0,2.6589,0.0,0.0,0.0,0.0,0.0,2.8335,2.8888,2.8411,2.8185,2.8373,2.821,2.7682,2.6766,2.6917,2.6553,2.5598,2.5234,2.4883,2.4544,2.4544,2.4544,2.4556,2.4745,2.472,2.4556,2.4745,2.4607,2.4268,2.4469,2.4544,2.4594,2.5121,2.5435,2.5703,2.6657,2.6665,2.6189,1.0769,0.0,0.0,0.0,0.0,0.0,0.0,0.0,0.0,0.0,1.2979,0.0,1.3984,0.0,1.5635,0.0,1.6299,1.6345,1.5936,1.56,0.0,1.5105,1.5067,0.0,0.0,0.0,0.0,0.0,0.0,1.3995,1.4718,1.4206,1.4215,0.0,0.0,1.6398,1.7409,0.0,2.0489,0.0,0.0,2.2397,0.0,0.0,2.1016,2.0313,1.9936,1.9798,1.9747,1.9475,1.9274,1.8948,1.8162,1.8137,1.8367,1.8329,1.8861,1.9616,2.0438,2.0835,2.1256,2.2063,2.2573,0.0,2.3816,0.0,0.0,0.0,0.0,0.0,0.0,0.0,0.0,0.0,0.0,0.0,0.0,2.6863,0.0,0.0,0.0,0.0,0.0,0.0,0.0,0.0,0.0,0.0,0.0,2.8699,2.8285,2.7369,2.7494,2.713,2.6201,2.5799,2.5423,2.5096,2.5096,2.5096,2.5109,2.531,2.5297,2.5109,2.531,2.5184,2.4833,2.5021,2.5096,2.5134,2.5473,2.5724,2.6017,2.6966,2.6973,2.6559,1.1065,0.0,0.0,0.0,1.1892,0.0,0.0,0.0,1.2304,0.0,1.3194,1.3606,1.391,1.5261,1.5956,1.5536,1.5382,0.0,1.6437,1.4471,0.0,0.0,1.385,1.3526,1.3643,0.0,0.0,0.0,0.0,0.0,1.4985,1.4935,1.4881,0.0,1.5386,0.0,1.7502,1.8385,1.9998,2.2049,2.2823,2.3053,2.2975,2.1895,2.0803,1.9849,1.9811,1.9798,1.9643,1.8939,1.8661,1.834,1.6922,1.6978,1.7413,1.6765,1.7578,1.8822,1.9467,2.0116,2.0891,2.1995,2.2272,2.2573,0.0,0.0,2.4782,0.0,0.0,0.0,0.0,0.0,0.0,0.0,0.0,0.0,0.0,0.0,0.0,0.0,0.0,0.0,0.0,0.0,0.0,0.0,0.0,0.0,0.0,2.9754,2.9478,2.89,2.8386,2.7846,2.7293,2.6189,2.5636,2.5636,2.5636,2.5636,2.5649,2.6214,2.6163,2.5674,2.6214,2.5862,2.4946,2.5435,2.5636,2.5636,2.5636,2.5975,2.6533,2.6533,2.6533,2.6609,1.1318,1.195,1.2574,0.0,1.2078,1.1854,0.0,0.0,0.0,0.0,1.4128,1.4548,1.4955,1.585,1.6156,1.5484,1.5898,0.0,0.0,0.0,0.0,1.4279,1.4138,1.4018,1.3889,1.4239,0.0,1.4222,0.0,0.0,1.5912,1.5522,1.5633,0.0,0.0,0.0,1.9189,2.0375,2.187,2.3418,2.318,2.2887,2.2447,0.0,2.1054,2.0388,1.9962,1.9423,1.8939,1.8768,1.795,1.6978,1.6595,1.6652,1.6866,1.7191,1.795,1.8857,1.9543,1.9907,2.0288,2.1418,2.1707,2.1995,2.31,2.3803,0.0,0.0,0.0,0.0,0.0,0.0,0.0,0.0,0.0,0.0,0.0,0.0,0.0,2.7323,0.0,0.0,0.0,0.0,0.0,0.0,0.0,0.0,2.9076,2.9151,2.89,2.8335,2.8185,2.7846,2.7293,2.659,2.6239,2.6239,2.6239,2.6239,2.6239,2.6458,2.6445,2.6251,2.6402,2.6302,2.605,2.6189,2.6239,2.6239,2.6239,2.6327,2.6533,2.6533,2.6533,2.6609,1.2041,0.0,0.0,1.3465,0.0,0.0,1.3078,0.0,0.0,1.4145,1.444,0.0,1.5235,1.5758,1.5864,1.541,1.5449,0.0,0.0,0.0,0.0,1.4943,1.4746,1.4656,1.4525,1.4882,0.0,1.4976,0.0,0.0,1.6397,1.6204,1.6271,0.0,0.0,1.8286,0.0,2.1181,2.2369,2.3195,2.313,2.2949,0.0,2.1794,2.1292,2.0916,2.01,1.9307,1.8608,1.7961,1.7413,1.6922,1.6595,1.6922,1.7523,1.7961,1.8608,1.9254,1.9695,1.9798,2.0012,2.0903,2.1129,2.1481,2.2824,2.3619,2.4335,2.499,2.5902,2.678,2.7162,0.0,0.0,0.0,0.0,0.0,0.0,0.0,0.0,0.0,2.6709,0.0,0.0,0.0,0.0,0.0,0.0,0.0,2.8499,2.88,2.8787,2.8473,2.8461,2.8197,2.7645,2.7092,2.6703,2.6533,2.6533,2.6533,2.6533,2.6533,2.6533,2.6533,2.6533,2.6533,2.6533,2.6533,2.6533,2.6533,2.6533,2.6533,2.6533,2.6533,2.6533,2.6609,0.0,0.0,0.0,0.0,0.0,0.0,0.0,1.4047,0.0,1.4282,0.0,1.4697,1.5167,1.5303,1.541,1.541,0.0,1.4911,1.6088,1.4989,1.4781,1.5965,1.5545,1.5359,1.5359,1.5922,0.0,0.0,0.0,0.0,0.0,1.688,0.0,0.0,0.0,0.0,0.0,2.1292,2.2113,2.2298,2.2884,2.3078,2.2952,2.1907,2.1493,2.1343,2.0095,1.9254,1.8489,1.7202,1.7146,1.7468,1.6877,1.7578,1.8715,1.8715,1.9202,1.9798,1.9798,1.9798,1.9936,2.0567,2.0718,2.1134,2.2778,2.3651,2.439,2.5149,2.6452,2.7286,2.6651,2.7065,0.0,0.0,0.0,0.0,0.0,0.0,0.0,0.0,0.0,0.0,2.6217,2.5405,0.0,0.0,0.0,2.6892,2.8147,2.8599,2.8888,2.9038,2.89,2.8624,2.8222,2.7519,2.6967,2.6634,2.6559,2.6533,2.6533,2.6533,2.6533,2.6533,2.6533,2.6533,2.6533,2.6533,2.6533,2.6533,2.6533,2.6533,2.6533,2.6609,2.6634,2.6653,0.0,0.0,0.0,0.0,0.0,1.5338,1.5695,1.5251,1.4967,1.5008,1.5129,1.5274,1.5352,1.541,1.541,1.541,1.5284,0.0,0.0,0.0,0.0,1.5909,1.6118,1.6182,1.6182,1.6899,1.7338,0.0,0.0,0.0,0.0,0.0,0.0,0.0,0.0,0.0,2.0572,2.1506,0.0,2.2944,2.3065,2.3078,2.2952,2.1907,2.1493,2.1274,1.9539,1.8821,1.8661,1.8394,1.8015,1.7578,1.7468,1.8015,1.8715,1.8715,1.9202,1.9798,1.9798,1.9798,1.9936,2.0567,2.0718,2.1183,2.2929,2.3484,2.4091,2.5865,2.6486,2.6711,2.6665,2.6169,0.0,0.0,0.0,0.0,0.0,0.0,0.0,0.0,0.0,2.5626,0.0,0.0,0.0,0.0,0.0,2.664,2.8674,2.8448,2.8674,2.9616,2.8737,2.8423,2.8787,2.7331,2.6848,2.713,2.6747,2.6533,2.6533,2.6533,2.6533,2.6533,2.6533,2.6533,2.6533,2.6533,2.6533,2.6533,2.6533,2.6533,2.6584,2.6967,2.713,2.7218,0.0,0.0,0.0,0.0,0.0,0.0,0.0,1.6618,1.6128,1.5559,1.5776,1.5807,1.5361,1.5566,1.5664,1.543,1.541,1.5693,1.6367,1.6562,1.7007,1.7654,1.8221,0.0,1.8578,1.894,1.8895,1.8295,0.0,0.0,0.0,0.0,0.0,0.0,0.0,1.9177,0.0,0.0,2.1791,2.2616,2.2944,2.2823,2.2384,2.1308,2.0893,2.0621,1.9203,1.8939,1.915,1.8394,1.8167,1.8178,1.8178,1.8661,1.9254,1.9254,1.9527,1.9798,1.9798,1.9798,1.9874,2.015,2.0474,2.1121,2.2615,2.3567,2.4515,2.6136,2.651,2.6361,2.5955,2.5733,2.5549,0.0,0.0,0.0,0.0,0.0,0.0,0.0,0.0,0.0,0.0,0.0,0.0,0.0,0.0,0.0,2.7984,2.8097,2.8486,2.9315,2.9101,2.8825,2.8499,2.7708,2.7155,2.6854,2.6647,2.6533,2.6533,2.6533,2.6533,2.6533,2.6533,2.6533,2.6533,2.6533,2.6533,2.6559,2.6848,2.6879,2.6954,2.7507,2.7896,2.8134,0.0,1.5041,0.0,0.0,1.7144,0.0,1.7916,1.7775,1.7239,1.6152,1.6326,1.6287,1.5612,1.5945,1.6064,1.5723,1.5693,1.6086,1.705,1.7771,1.8564,1.952,2.0398,2.0846,2.0846,2.0719,2.0193,0.0,0.0,0.0,1.7672,0.0,0.0,0.0,0.0,0.0,2.0215,2.0579,2.1342,2.2359,2.2884,2.2689,2.2017,2.1005,2.0595,2.0325,1.9312,1.9319,1.9631,1.8447,1.8447,1.8927,1.8927,1.9307,1.9798,1.9798,1.9798,1.9798,1.9798,1.9798,1.9798,1.9798,2.0295,2.1123,2.235,2.3719,2.5011,2.6064,2.613,2.5869,2.5223,2.5219,2.5224,2.4834,0.0,0.0,0.0,0.0,0.0,0.0,0.0,0.0,2.4707,2.566,0.0,0.0,0.0,2.6276,2.7394,2.7686,2.8161,2.8913,2.9176,2.8925,2.8109,2.7996,2.7494,2.6697,2.6584,2.6533,2.6533,2.6533,2.6533,2.6533,2.6533,2.6533,2.6533,2.6533,2.6533,2.6584,2.7067,2.7281,2.7369,2.8034,2.8561,2.8888,0.0,0.0,0.0,0.0,0.0,1.8495,1.8807,1.8657,1.8008,1.6772,1.6646,1.6636,1.6558,1.6578,1.665,1.6548,1.6611,1.7103,1.8321,1.848,1.9137,2.044,2.1302,2.1753,2.1753,2.0974,2.044,0.0,0.0,1.8514,1.8341,0.0,0.0,0.0,1.8784,1.9495,2.059,2.059,2.1542,2.3005,2.3078,2.3065,2.2892,2.1793,2.1369,2.1219,2.0095,1.9747,1.9798,1.9643,1.9643,1.9695,1.9695,1.9747,1.9798,1.9798,1.9798,1.9798,1.9798,1.9798,1.9798,1.9798,2.0295,2.1103,2.2383,2.371,2.4881,2.5459,2.4997,2.4638,2.5044,2.4124,2.3676,2.4657,0.0,0.0,0.0,0.0,0.0,0.0,0.0,0.0,0.0,2.5827,2.6557,2.5762,2.599,2.6669,2.7971,2.7438,2.7676,2.8888,2.8338,2.805,2.8109,2.7607,2.7306,2.7205,2.6703,2.6533,2.6533,2.6533,2.6533,2.6533,2.6533,2.6533,2.6533,2.6533,2.6533,2.6584,2.7067,2.7281,2.7406,2.8461,2.8888,2.9001,0.0,0.0,0.0,0.0,0.0,0.0,1.948,1.9234,1.8848,1.834,1.7822,1.7305,1.6787,1.6973,1.7021,1.6694,1.7149,1.7822,1.8575,1.9868,2.0882,2.1353,2.2048,2.2198,2.1889,2.0523,1.9456,0.0,0.0,0.0,0.0,1.7807,1.799,1.8063,1.8798,1.9802,2.0951,2.0951,2.1504,2.2445,2.2884,2.2494,2.1596,2.1414,2.1253,2.1086,2.0402,2.0266,2.0326,2.0326,2.0087,1.9798,1.9798,1.9798,1.9798,1.9798,1.9798,1.9798,1.9798,1.9798,1.9798,1.9798,2.0295,2.1053,2.1965,2.2829,2.3688,2.4309,2.4082,2.3809,2.388,2.3748,2.369,2.3729,2.3916,0.0,0.0,0.0,0.0,0.0,0.0,0.0,0.0,2.5565,2.6395,0.0,0.0,2.7423,2.7607,2.7635,2.8049,2.89,2.8625,2.8362,2.8109,2.7883,2.7444,2.6791,2.6634,2.6533,2.6533,2.6533,2.6533,2.6533,2.6533,2.6533,2.6533,2.6533,2.6653,2.7005,2.7557,2.7984,2.836,2.9151,2.9453,2.9478,1.6982,1.7978,1.9049,1.9487,1.9496,1.9616,2.0059,1.9746,1.9463,1.9453,1.8828,1.8154,1.7549,1.8012,1.8272,1.7961,1.8742,1.9435,2.0029,2.1266,2.2063,2.2329,2.2415,0.0,2.1438,1.9916,1.8682,1.7719,1.7604,0.0,0.0,1.7316,1.7676,1.7947,1.8886,2.0,2.1163,2.1085,2.1486,2.2322,2.2884,2.2372,2.1358,2.1476,2.1438,2.1307,2.0904,2.073,2.0743,2.0853,2.0526,2.0024,1.9861,1.9924,2.0049,2.0049,2.0049,2.0049,2.0049,2.0049,2.0012,1.9849,2.0424,2.1112,2.1451,2.2129,2.287,2.3502,2.3444,2.3276,2.3122,2.3477,2.3665,2.3427,2.3728,0.0,0.0,2.3527,0.0,0.0,2.3991,2.4343,2.3791,2.5482,0.0,0.0,0.0,2.7791,2.7557,2.7823,2.8211,2.8674,2.8775,2.8512,2.7871,2.8021,2.7557,2.6533,2.6533,2.6609,2.6703,2.6866,2.6766,2.6533,2.6697,2.6684,2.6546,2.6697,2.6929,2.7356,2.8072,2.8586,2.9001,2.9578,2.9792,2.9792,1.921,1.9378,1.9382,2.0401,2.0547,2.0547,2.0557,2.0185,1.9817,1.9713,1.9448,1.9268,1.9258,2.0165,2.0734,2.0723,2.1611,2.2502,2.3399,2.2514,2.2366,0.0,0.0,2.137,2.0224,1.9409,1.8467,1.7308,0.0,0.0,1.6764,1.8268,1.8731,1.8335,1.901,2.0,2.1141,2.0803,2.1553,2.3078,2.3078,2.3078,2.3015,2.2464,2.2309,2.2234,2.1681,2.1129,2.0806,2.1292,2.1104,2.0605,1.9987,2.0188,2.0706,2.0706,2.0706,2.0706,2.0706,2.0706,2.0567,1.9949,2.072,2.1457,2.0941,2.1781,2.2844,2.3296,2.3225,2.3125,2.3078,2.3078,2.3265,2.3891,2.3991,2.4004,0.0,2.4456,0.0,2.3203,2.4722,2.5152,2.3301,2.5794,0.0,0.0,2.5837,2.7557,2.8049,2.7938,2.7877,2.8109,2.85,2.8263,2.7306,2.7833,2.7557,2.6533,2.6533,2.6753,2.7293,2.7833,2.7494,2.6559,2.703,2.6967,2.6571,2.7042,2.7268,2.7394,2.8486,2.8925,2.9001,2.9578,2.9792,2.9792,1.9778,2.0273,2.0526,2.0596,2.0566,2.0566,2.0566,2.0449,2.0352,2.0342,2.0234,2.0156,2.0156,1.9925,2.0063,0.0,2.1574,2.2184,0.0,2.3132,2.3178,2.2412,2.1119,2.0121,1.9367,1.7156,1.5831,1.5441,1.5347,1.5725,1.6766,1.8089,1.9104,1.9783,2.0752,2.1564,2.2235,2.2079,2.1969,2.1864,2.2452,2.2513,2.2298,2.2698,2.2874,2.2849,2.2673,2.2259,2.182,2.1995,2.1681,2.1192,2.1004,2.1079,2.123,2.123,2.123,2.123,2.123,2.123,2.1179,2.1004,2.1243,2.1393,2.0832,2.072,2.1095,2.2368,2.2306,2.2246,2.3,2.3078,2.3326,2.3904,2.4004,2.4004,2.4004,0.0,2.3779,2.2469,2.3086,2.3131,2.1899,2.3618,2.4659,2.4249,2.5636,2.6356,2.5997,2.689,2.7702,2.8122,2.8575,2.8687,2.8411,2.8586,2.8298,2.7582,2.7582,2.767,2.7846,2.8021,2.7708,2.703,2.7205,2.718,2.703,2.7205,2.772,2.8436,2.8787,2.9164,2.9541,2.9729,2.9792,2.9792,2.0698,2.1014,2.1143,2.0869,2.0957,2.1064,2.1064,2.1064,2.0946,2.063,2.0711,2.0801,2.0605,2.009,2.0202,2.1188,2.2029,2.2596,2.2596,2.31,2.2766,2.1434,2.0137,1.901,1.7967,1.5992,1.4896,1.4743,1.5054,1.5786,1.6935,1.8158,1.9316,2.043,2.1009,2.1766,2.2704,2.2514,2.2285,2.2056,2.3001,2.3098,2.2786,2.3492,2.3441,2.3103,2.3389,2.2962,2.2347,2.2548,2.2246,2.1832,2.2046,2.2108,2.2071,2.1857,2.1794,2.1794,2.1794,2.1794,2.1744,2.1543,2.1644,2.1656,2.1104,2.0853,2.1041,2.2096,2.2196,2.2322,2.2952,2.3314,2.3577,2.3941,2.433,2.4531,2.4343,2.4149,2.3664,0.0,0.0,2.2604,2.1731,2.3128,2.4071,2.3902,2.5119,2.5643,2.5036,2.6693,2.7895,2.8349,2.8963,2.9151,2.8925,2.8925,2.8649,2.8109,2.831,2.8298,2.8122,2.8549,2.8323,2.7607,2.7808,2.7783,2.7607,2.7821,2.831,2.895,2.9164,2.9478,2.9792,2.9792,2.9792,2.9792,2.1748,2.1582,2.1279,2.1279,2.1621,2.1885,2.1875,2.1885,2.1651,2.0799,2.1,2.1079,2.0713,2.0682,2.1013,2.1863,2.2798,2.3368,2.3368,2.2467,2.139,2.0362,1.9316,1.789,1.6144,1.5792,1.5468,1.5136,1.5864,1.6645,1.749,1.8523,1.9599,2.0536,2.0259,2.1114,2.2737,2.2338,2.2673,2.3471,2.439,2.448,2.4117,2.4619,2.4167,2.3265,2.3866,2.3376,2.256,2.3037,2.2849,2.251,2.2987,2.3078,2.2977,2.2523,2.2372,2.2372,2.2372,2.2372,2.2246,2.1732,2.1958,2.2184,2.1707,2.1945,2.2284,2.2347,2.2749,2.304,2.3175,2.364,2.4017,2.4104,2.4946,2.5423,2.4816,2.442,2.3961,2.3203,2.3336,2.3178,2.2435,2.3904,2.4259,2.2689,2.4371,2.5407,2.515,2.7239,2.8548,2.885,2.949,2.9528,2.9001,2.8988,2.8737,2.8235,2.8737,2.8712,2.826,2.9315,2.9202,2.8185,2.8699,2.8637,2.8197,2.8712,2.895,2.9038,2.9578,2.9792,2.9792,2.9792,2.9792,2.9792,2.2279,2.2021,2.1728,2.1728,2.202,2.2089,2.1559,2.1885,2.2089,2.1661,2.1685,2.1611,2.1269,2.1435,2.1516,2.1402,2.1942,2.2328,2.2328,2.138,2.0382,1.9404,1.7479,1.6312,1.5808,1.5163,1.5352,1.633,1.7463,1.8489,1.949,1.9452,2.0429,2.2133,2.2521,2.2908,2.3335,2.4024,2.4189,2.4041,2.4258,2.4426,2.4644,2.477,2.4657,2.4443,2.4582,2.4456,2.4192,2.3891,2.3703,2.354,2.3238,2.3078,2.3053,2.2975,2.2937,2.2937,2.2937,2.2937,2.2852,2.2774,2.2523,2.2385,2.2686,2.2196,2.192,2.2761,2.2711,2.2774,2.364,2.3904,2.4268,2.5084,2.5423,2.5282,2.4486,2.4297,2.3468,2.149,2.1837,2.1996,2.1156,2.1989,2.2707,2.2917,2.4025,2.5194,2.6433,2.7686,2.8548,2.885,2.949,2.9729,2.9591,2.9591,2.9515,2.9402,2.9528,2.9515,2.9402,2.9679,2.9402,2.8737,2.8875,2.885,2.875,2.8875,2.9189,2.9603,2.9741,2.9792,2.9792,2.9792,2.9792,2.9792,2.251,2.2324,2.2168,2.2168,2.2448,2.2575,2.2233,2.2461,2.2585,2.2471,2.2295,2.208,2.1846,2.1855,2.1787,2.1553,2.177,2.1926,2.1926,2.1422,2.0363,1.8824,1.7579,1.6723,1.6361,1.5662,1.6193,1.8074,1.9093,2.0054,2.0987,2.0492,2.1162,2.2709,2.2767,2.3073,2.3599,2.4564,2.485,2.4588,2.5087,2.5246,2.5209,2.5473,2.5259,2.4858,2.5096,2.5021,2.477,2.4469,2.4205,2.3941,2.3627,2.3351,2.3128,2.3452,2.3339,2.3078,2.3078,2.3326,2.3527,2.3527,2.31,2.2761,2.3002,2.2673,2.241,2.2952,2.31,2.3276,2.3891,2.4619,2.5222,2.5548,2.5958,2.584,2.4694,2.4073,2.3183,2.1755,2.1722,2.1779,2.1516,2.206,2.2621,2.3032,2.4474,2.5788,2.6714,2.8198,2.9085,2.9327,2.9628,2.9792,2.9792,2.9792,2.9792,2.9792,2.9792,2.9792,2.9792,2.9792,2.9616,2.9327,2.9327,2.9327,2.9327,2.9327,2.9503,2.9792,2.9792,2.9792,2.9792,2.9792,2.9792,2.9792,2.2607,2.2607,2.2607,2.2607,2.29,2.3135,2.3135,2.3135,2.3135,2.3135,2.2822,2.2483,2.231,2.2152,2.2051,2.1992,2.2041,2.2021,2.1894,2.1709,2.0745,1.8759,1.8501,1.812,1.743,1.7021,1.779,1.9888,2.0653,2.1437,2.207,2.1631,2.196,2.2919,2.26,2.2982,2.4033,2.5015,2.5421,2.542,2.6288,2.6239,2.5774,2.6264,2.5887,2.5121,2.5573,2.5435,2.5059,2.4971,2.4632,2.423,2.4155,2.3791,2.3489,2.3979,2.3778,2.3389,2.3389,2.3753,2.4117,2.4117,2.369,2.3288,2.3315,2.3265,2.3288,2.3315,2.3778,2.4167,2.4343,2.5511,2.6327,2.5912,2.6425,2.6431,2.4945,2.3869,2.3015,2.2449,2.217,2.21,2.2383,2.2852,2.3135,2.3299,2.5305,2.6565,2.6719,2.8712,2.9792,2.9792,2.9792,2.9792,2.9792,2.9792,2.9792,2.9792,2.9792,2.9792,2.9792,2.9792,2.9792,2.9792,2.9792,2.9792,2.9792,2.9792,2.9792,2.9792,2.9792,2.9792,2.9792,2.9792,2.9792,2.9792,2.3047,2.3047,2.3047,2.3047,2.3096,2.3135,2.3135,2.3135,2.3135,2.3135,2.3086,2.29,2.2549,2.2764,2.2803,2.2441,2.2744,2.2646,2.1934,2.0996,2.0298,1.9943,1.9008,1.8526,1.8411,1.9549,2.0428,2.1022,2.2155,2.2824,2.293,2.251,2.2872,2.3966,2.4355,2.5142,2.6202,2.7225,2.7354,2.693,2.7085,2.6816,2.6339,2.6496,2.642,2.6214,2.6302,2.6345,2.6138,2.5636,2.5423,2.5272,2.4833,2.4632,2.4582,2.4669,2.4632,2.4556,2.4556,2.4632,2.4695,2.4695,2.4268,2.3991,2.4456,2.4205,2.4004,2.4456,2.4632,2.4971,2.59,2.6289,2.6578,2.6731,2.6651,2.5875,2.3796,2.3383,2.2704,2.1113,2.1781,2.2305,2.2012,2.2685,2.3464,2.4457,2.5724,2.6883,2.7763,2.9118,2.9792,2.9792,2.9792,2.9792,2.9792,2.9792,2.9792,2.9792,2.9792,2.9792,2.9792,2.9792,2.9792,2.9792,2.9792,2.9792,2.9792,2.9792,2.9792,2.9792,2.9792,2.9792,2.9792,2.9792,2.9792,2.9792,2.3135,2.3135,2.3135,2.3135,2.3135,2.3135,2.3135,2.3135,2.3135,2.3135,2.3135,2.3066,2.2871,2.3027,2.3057,2.2861,2.3027,2.2969,2.2588,2.2017,2.1472,2.0839,2.0316,1.9957,1.9748,2.1277,2.2013,2.1985,2.2756,2.3135,2.3125,2.3358,2.3722,2.4259,2.5363,2.6136,2.6677,2.7705,2.7654,2.6895,2.7503,2.7269,2.6529,2.7117,2.7344,2.7306,2.7005,2.6904,2.6816,2.6251,2.585,2.5548,2.531,2.5046,2.487,2.5159,2.5046,2.4883,2.5159,2.5034,2.4895,2.5172,2.4845,2.4506,2.4757,2.4619,2.4594,2.5121,2.5485,2.595,2.6753,2.6927,2.6919,2.6748,2.6241,2.5217,2.3479,2.324,2.2736,2.1479,2.2012,2.2441,2.2246,2.3353,2.4211,2.4787,2.6367,2.7602,2.8084,2.9197,2.9792,2.9792,2.9792,2.9792,2.9792,2.9792,2.9792,2.9792,2.9792,2.9792,2.9792,2.9792,2.9792,2.9792,2.9792,2.9792,2.9792,2.9792,2.9792,2.9792,2.9792,2.9792,2.9792,2.9792,2.9792,2.9792,2.3135,2.3135,2.3135,2.3135,2.3135,2.3135,2.3135,2.3135,2.3135,2.3135,2.3135,2.3135,2.3135,2.3135,2.3135,2.3135,2.3135,2.3135,2.3135,2.3135,2.2677,2.1756,2.1747,2.1609,2.1218,2.2514,2.2978,2.2656,2.2978,2.3222,2.3551,2.4115,2.4594,2.5147,2.643,2.6959,2.6959,2.7765,2.7553,2.6752,2.7593,2.752,2.6962,2.7804,2.8109,2.8047,2.762,2.7469,2.7406,2.6979,2.6465,2.6013,2.6138,2.5812,2.5498,2.6025,2.5812,2.5423,2.5561,2.541,2.5297,2.5699,2.5398,2.5034,2.5172,2.5209,2.536,2.5875,2.644,2.6934,2.7257,2.7318,2.7025,2.634,2.5655,2.4665,2.3269,2.3001,2.2675,2.184,2.2429,2.2914,2.2914,2.4283,2.5294,2.5535,2.7105,2.8176,2.8505,2.9287,2.9792,2.9792,2.9792,2.9792,2.9792,2.9792,2.9792,2.9792,2.9792,2.9792,2.9792,2.9792,2.9792,2.9792,2.9792,2.9792,2.9792,2.9792,2.9792,2.9792,2.9792,2.9792,2.9792,2.9792,2.9792,2.9792,2.3135,2.3135,2.3135,2.3135,2.3135,2.3135,2.3135,2.3135,2.3135,2.3135,2.3135,2.3135,2.3135,2.3135,2.3135,2.3135,2.3135,2.3135,2.3135,2.3135,2.3047,2.296,2.296,2.294,2.2911,2.3028,2.3125,2.3096,2.3125,2.3637,2.4713,2.4756,2.5815,2.7785,2.7909,2.7977,2.7977,2.8056,2.7782,2.7263,2.7341,2.76,2.795,2.8109,2.8109,2.8097,2.8059,2.8047,2.8047,2.7996,2.762,2.7243,2.7758,2.7544,2.7205,2.7758,2.7532,2.6879,2.5875,2.5963,2.6352,2.6389,2.5963,2.5686,2.6214,2.6339,2.6502,2.7042,2.7607,2.7841,2.7416,2.7263,2.6898,2.5585,2.5096,2.4283,2.2687,2.2521,2.2252,2.1377,2.2951,2.4033,2.4033,2.5441,2.6801,2.7763,2.8004,2.8597,2.9624,2.9792,2.9792,2.9792,2.9792,2.9792,2.9792,2.9792,2.9792,2.9792,2.9792,2.9792,2.9792,2.9792,2.9792,2.9792,2.9792,2.9792,2.9792,2.9792,2.9792,2.9792,2.9792,2.9792,2.9792,2.9792,2.9792,2.9792,2.3135,2.3135,2.3135,2.3135,2.3135,2.3135,2.3135,2.3135,2.3135,2.3135,2.3135,2.3135,2.3135,2.3135,2.3135,2.3135,2.3135,2.3135,2.3135,2.3135,2.3135,2.3135,2.3135,2.3135,2.3135,2.3135,2.3135,2.3135,2.38,2.4382,2.4872,2.6191,2.6942,2.7128,2.7763,2.7763,2.7128,2.7128,2.7013,2.6841,2.7561,2.7927,2.8147,2.8898,2.9151,2.9114,2.875,2.8612,2.8561,2.8222,2.7959,2.7821,2.8047,2.7959,2.7833,2.8047,2.7959,2.7695,2.7268,2.7055,2.6967,2.6967,2.7055,2.7205,2.7431,2.7482,2.7632,2.8185,2.7915,2.7654,2.777,2.6645,2.5585,2.5099,2.4258,2.3543,2.2894,2.3422,2.3739,2.3125,2.457,2.5497,2.519,2.6575,2.7683,2.8084,2.8767,2.9365,2.9792,2.9792,2.9792,2.9792,2.9792,2.9792,2.9792,2.9792,2.9792,2.9792,2.9792,2.9792,2.9792,2.9792,2.9792,2.9792,2.9792,2.9792,2.9792,2.9792,2.9792,2.9792,2.9792,2.9792,2.9792,2.9792,2.9792,2.9792,2.3135,2.3135,2.3135,2.3135,2.3135,2.3135,2.3135,2.3135,2.3135,2.3135,2.3135,2.3135,2.3135,2.3135,2.3135,2.3135,2.3135,2.3135,2.3135,2.3135,2.3135,2.3135,2.3135,2.3135,2.3135,2.3135,2.3135,2.3135,2.3877,2.4628,2.5378,2.6521,2.7023,2.7046,2.7441,2.6953,2.5975,2.6307,2.6483,2.6554,2.7683,2.8335,2.8688,2.9534,2.9792,2.9741,2.934,2.9202,2.9139,2.8762,2.8511,2.8398,2.8574,2.8637,2.8637,2.8637,2.8511,2.836,2.836,2.8084,2.7758,2.7582,2.7821,2.8109,2.8109,2.8235,2.8387,2.836,2.7932,2.7419,2.7117,2.5775,2.4702,2.4296,2.3637,2.3173,2.3371,2.408,2.4629,2.4723,2.5954,2.6737,2.6542,2.7814,2.8597,2.8597,2.9365,2.9792,2.9792,2.9792,2.9792,2.9792,2.9792,2.9792,2.9792,2.9792,2.9792,2.9792,2.9792,2.9792,2.9792,2.9792,2.9792,2.9792,2.9792,2.9792,2.9792,2.9792,2.9792,2.9792,2.9792,2.9792,2.9792,2.9792,2.9792,2.9792,2.3144,2.3144,2.3144,2.3144,2.3144,2.3144,2.3135,2.3135,2.3135,2.3135,2.3135,2.3135,2.3135,2.3135,2.3135,2.3135,2.3135,2.3135,2.3135,2.3135,2.3135,2.3135,2.3135,2.3135,2.3135,2.3135,2.3135,2.3135,2.3135,2.4307,2.6472,2.5378,2.5942,2.8004,2.6964,2.5891,2.4872,2.5975,2.6483,2.6637,2.7683,2.8767,2.9792,2.9792,2.9792,2.9792,2.9792,2.9792,2.9792,2.9792,2.9415,2.9038,2.9616,2.9792,2.9792,2.9792,2.939,2.8938,2.8938,2.8938,2.88,2.8247,2.8109,2.8122,2.8109,2.8536,2.8611,2.7478,2.7727,2.7429,2.5199,2.4787,2.4457,2.3299,2.3135,2.3401,2.4106,2.4209,2.4609,2.5652,2.6854,2.7693,2.8036,2.9118,2.9792,2.9792,2.9792,2.9792,2.9792,2.9792,2.9792,2.9792,2.9792,2.9792,2.9792,2.9792,2.9792,2.9792,2.9792,2.9792,2.9792,2.9792,2.9792,2.9792,2.9792,2.9792,2.9792,2.9792,2.9792,2.9792,2.9792,2.9792,2.9792,2.9792,2.9792,2.9792,2.3535,2.3594,2.3594,2.3594,2.3594,2.3496,2.3184,2.3135,2.3135,2.3135,2.3135,2.3135,2.3135,2.3135,2.3135,2.3135,2.3135,2.3135,2.3135,2.3135,2.3135,2.3135,2.3135,2.3135,2.3135,2.3135,2.3135,2.3135,2.3877,2.4628,2.5294,2.5808,2.588,2.5775,2.5452,2.5126,2.4787,2.5126,2.6202,2.7683,2.7936,2.8767,2.9792,2.9792,2.9792,2.9792,2.9792,2.9792,2.9792,2.9792,2.9679,2.9566,2.9741,2.9792,2.9792,2.9792,2.9666,2.9528,2.9528,2.9528,2.9402,2.8825,2.8988,2.9112,2.8281,2.8234,2.8028,2.6979,2.6266,2.5608,2.4957,2.4125,2.3464,2.3135,2.38,2.433,2.4609,2.598,2.7048,2.738,2.8458,2.9192,2.9263,2.9624,2.9792,2.9792,2.9792,2.9792,2.9792,2.9792,2.9792,2.9792,2.9792,2.9792,2.9792,2.9792,2.9792,2.9792,2.9792,2.9792,2.9792,2.9792,2.9792,2.9792,2.9792,2.9792,2.9792,2.9792,2.9792,2.9792,2.9792,2.9792,2.9792,2.9792,2.9792,2.9792,2.374,2.3926,2.4043,2.4043,2.3896,2.3701,2.3437,2.3252,2.3135,2.3135,2.3135,2.3203,2.3379,2.3242,2.3271,2.3613,2.3486,2.3398,2.3398,2.3232,2.3135,2.3135,2.3301,2.332,2.3144,2.3135,2.3299,2.38,2.4049,2.4628,2.5462,2.5221,2.5052,2.4787,2.4296,2.4382,2.4872,2.5294,2.6532,2.8176,2.8597,2.9197,2.9792,2.9792,2.9534,2.9118,2.9118,2.9118,2.9118,2.9118,2.9443,2.9792,2.9792,2.9792,2.9792,2.9792,2.9792,2.9792,2.9792,2.9792,2.9704,2.9365,2.9195,2.8937,2.8255,2.7763,2.7116,2.6047,2.5294,2.4617,2.4211,2.3551,2.3222,2.3714,2.4382,2.5126,2.5942,2.7267,2.8255,2.8688,2.9365,2.9792,2.9792,2.9792,2.9792,2.9792,2.9792,2.9792,2.9792,2.9792,2.9792,2.9792,2.9792,2.9792,2.9792,2.9792,2.9792,2.9792,2.9792,2.9792,2.9792,2.9792,2.9792,2.9792,2.9792,2.9792,2.9792,2.9792,2.9792,2.9792,2.9792,2.9792,2.9792,2.9792,2.993,3.0118,2.3838,2.418,2.4473,2.4473,2.4121,2.3848,2.3848,2.3477,2.3213,2.3252,2.3223,2.3359,2.3799,2.3457,2.3525,2.4346,2.4072,2.3828,2.3789,2.3447,2.3242,2.3193,2.3613,2.3662,2.3262,2.3252,2.3717,2.4628,2.3677,2.4186,2.6141,2.4059,2.3627,2.4628,2.3637,2.3877,2.5041,2.613,2.729,2.8347,2.9365,2.9792,2.9792,2.9792,2.9106,2.8096,2.8096,2.8016,2.7936,2.8084,2.8858,2.9792,2.9792,2.9792,2.9792,2.9792,2.9792,2.9792,2.9792,2.9714,2.9624,2.9624,2.8688,2.7844,2.7924,2.7116,2.6058,2.4872,2.4628,2.4372,2.3377,2.3212,2.3637,2.4787,2.5031,2.5775,2.7844,2.8176,2.8597,2.9702,2.9792,2.9792,2.9792,2.9829,2.9842,2.9792,2.988,2.9917,2.9867,2.9867,2.9867,2.9867,2.9817,2.9792,2.9792,2.9792,2.9792,2.9792,2.9792,2.9792,2.9792,2.9792,2.9792,2.9792,2.9792,2.9792,2.9792,2.9792,2.9792,2.9792,2.9792,2.9792,2.9792,2.9792,3.0143,3.0633,2.4219,2.4629,2.4922,2.4922,2.457,2.4277,2.4277,2.3926,2.3769,2.4102,2.3848,2.3809,2.4228,2.3906,2.3857,2.4375,2.4336,2.4141,2.3809,2.4014,2.3994,2.3662,2.4053,2.4238,2.4141,2.4141,2.3889,2.3464,2.3565,2.3722,2.381,2.3299,2.3222,2.3464,2.4125,2.5041,2.6224,2.7279,2.8438,2.9443,2.9702,2.9792,2.9792,2.9792,2.9106,2.8096,2.8096,2.7522,2.6964,2.7844,2.8858,2.9792,2.9792,2.9792,2.9792,2.9792,2.9792,2.9792,2.9792,2.9118,2.8426,2.8426,2.7023,2.5786,2.6625,2.5964,2.4882,2.3714,2.3464,2.3637,2.4286,2.4457,2.4787,2.5975,2.6871,2.751,2.8004,2.8858,2.9534,2.9792,2.9792,2.9792,2.9792,3.0181,3.0256,2.9829,3.057,3.0871,3.0457,3.0432,3.0432,3.0432,3.0018,2.9792,2.9792,2.9792,2.9792,2.9792,2.9792,2.9792,2.9792,2.9792,2.9792,2.9792,2.9792,2.9792,2.9792,2.9792,2.9792,2.9792,2.9792,2.9792,2.9792,2.9792,3.0143,3.0733,2.4687,2.5078,2.5391,2.5391,2.5019,2.4727,2.4727,2.4365,2.417,2.4385,2.4228,2.4258,2.4678,2.4346,2.4258,2.4687,2.4727,2.4629,2.4414,2.4414,2.4316,2.4102,2.4502,2.4629,2.4424,2.4834,2.4888,2.4533,2.4236,2.4127,2.421,2.3703,2.3584,2.3963,2.4542,2.5703,2.7279,2.7844,2.8767,2.9792,2.9792,2.9456,2.9052,2.923,2.816,2.667,2.7656,2.8006,2.8232,2.8988,2.967,3.0143,2.988,2.9792,2.9792,2.9792,2.9792,2.9702,2.9118,2.8698,2.8302,2.7801,2.648,2.543,2.5654,2.4798,2.38,2.3222,2.372,2.4451,2.5026,2.5808,2.6742,2.7851,2.8527,2.9102,2.9602,3.0201,3.0557,3.0557,3.0557,3.0557,3.0557,3.0821,3.0871,3.057,3.1072,3.1273,3.0997,3.0984,3.0984,3.0984,3.0708,3.0557,3.0557,3.0557,3.0557,3.0545,3.003,2.9792,2.9804,3.0068,3.0043,2.9804,3.0068,3.0043,2.9792,2.9792,2.9792,2.9792,2.9792,2.9955,3.0156,2.9892,3.0294,3.1148,2.5088,2.5488,2.582,2.5752,2.5361,2.5098,2.5166,2.4805,2.4551,2.4629,2.457,2.4697,2.5137,2.4863,2.4785,2.5146,2.5185,2.5146,2.5068,2.4805,2.4609,2.4531,2.4951,2.5049,2.4756,2.54,2.5769,2.5844,2.4943,2.4744,2.5186,2.4327,2.4255,2.4913,2.5243,2.6346,2.8108,2.8527,2.9157,2.9942,2.9783,2.9218,2.8405,2.8586,2.7082,2.5189,2.7172,2.8717,2.9858,3.0195,3.0436,3.0532,3.008,2.993,2.9942,3.0043,3.0068,2.9886,2.8943,2.8678,2.8419,2.7482,2.6682,2.5905,2.5207,2.4359,2.3692,2.3954,2.5082,2.6108,2.6282,2.7476,2.8729,2.9857,3.0109,3.036,3.1304,3.1386,3.1386,3.1386,3.1386,3.1386,3.1386,3.1474,3.1486,3.1399,3.1562,3.1637,3.1537,3.1537,3.1537,3.1537,3.1436,3.1386,3.1386,3.1386,3.1386,3.1386,3.0495,3.0068,3.008,3.0532,3.0495,3.0093,3.0545,3.0482,3.0068,3.0068,3.0068,3.0068,3.0068,3.0344,3.0708,3.0344,3.0771,3.1687,2.5146,2.5732,2.6182,2.5801,2.5361,2.5195,2.5586,2.5264,2.5117,2.5508,2.5215,2.5146,2.5596,2.5596,2.5586,2.5644,2.5644,2.5478,2.5098,2.5381,2.5391,2.5,2.541,2.5801,2.6113,2.5869,2.5303,2.4598,2.4888,2.4849,2.45,2.4418,2.4716,2.5417,2.6846,2.7668,2.8235,3.0158,3.0735,3.0465,2.9876,2.9535,2.9283,2.8214,2.6824,2.5556,2.7293,2.8717,2.9774,2.9306,2.9744,3.0608,3.052,3.0507,3.0595,3.1047,3.1173,3.1173,3.0998,2.9499,2.8,2.7827,2.7008,2.623,2.6104,2.5994,2.6161,2.7217,2.762,2.8098,2.9051,2.9461,2.993,3.1046,3.121,3.121,3.1386,3.1386,3.1386,3.1386,3.1386,3.1386,3.1386,3.1813,3.1901,3.1424,3.229,3.2629,3.2127,3.2102,3.2102,3.2102,3.1637,3.1386,3.1386,3.1386,3.1386,3.1386,3.1248,3.1173,3.1185,3.1248,3.1248,3.1185,3.1248,3.1248,3.1173,3.1173,3.1173,3.1173,3.1173,3.1223,3.1336,3.1738,3.1976,3.219,2.5478,2.5752,2.5967,2.5771,2.5576,2.5586,2.6035,2.5928,2.5879,2.6074,2.5928,2.5781,2.5742,2.5742,2.5928,2.6406,2.624,2.6016,2.582,2.6211,2.626,2.582,2.6221,2.6543,2.6738,2.6318,2.5908,2.5518,2.5469,2.5215,2.4775,2.4531,2.5057,2.6346,2.689,2.8033,2.9585,3.0573,3.0567,3.0044,2.975,2.8792,2.7612,2.7255,2.6187,2.5157,2.7557,2.9776,3.154,3.0974,3.1063,3.1285,3.0376,3.0019,2.9973,2.9498,2.9291,2.9388,2.9388,2.8913,2.8343,2.8354,2.8199,2.8206,2.8914,2.9003,2.8856,2.8226,2.8861,2.9675,3.0117,3.098,3.1808,3.2243,3.2328,3.2328,3.2328,3.2328,3.2328,3.2328,3.2328,3.2328,3.2328,3.2554,3.2591,3.2353,3.2805,3.2968,3.2704,3.2692,3.2692,3.2692,3.2453,3.2328,3.2328,3.2328,3.2328,3.2328,3.2328,3.2001,3.1399,3.1712,3.1675,3.1411,3.1725,3.1675,3.1386,3.1386,3.1386,3.1386,3.1386,3.1386,3.1499,3.2365,3.2491,3.2303]},{"header":{"parameterUnit":"m.s-1","parameterCategory":1,"la1":30.6,"la2":28.766,"lo1":-90.7593,"lo2":-88.6598,"dy":0.0162,"dx":0.0183,"nx":116,"ny":114,"refTime":"2024-03-18T18:00:00:Z","depth":0,"parameterNumber":3,"parameterNumberName":"V-component_of_WINDS"},"data":[0.0,0.0,0.0,0.0,0.0,0.0,0.0,0.0,0.0,0.0,0.0,0.0,0.0,0.0,0.0,0.0,0.0,0.0,0.0,0.0,0.0,0.0,0.0,0.0,0.0,0.0,0.0,0.0,0.0,0.0,0.0,0.0,0.0,0.0,0.0,0.0,0.0,0.0,0.0,0.0,0.0,0.0,0.0,0.0,0.0,0.0,0.0,0.0,0.0,0.0,0.0,0.0,0.0,0.0,0.0,0.0,0.0,0.0,0.0,0.0,0.0,0.0,0.0,0.0,0.0,0.0,0.0,0.0,0.0,0.0,0.0,0.0,0.0,0.0,0.0,0.0,0.0,0.0,0.0,0.0,0.0,0.0,0.0,0.0,0.0,0.0,0.0,0.0,0.0,0.0,0.0,0.0,0.0,0.0,0.0,0.0,0.0,0.0,0.0,0.0,0.0,0.0,0.0,0.0,0.0,0.0,0.0,0.0,0.0,0.0,0.0,0.0,0.0,0.0,0.0,0.0,0.0,0.0,0.0,0.0,0.0,0.0,0.0,0.0,0.0,0.0,0.0,0.0,0.0,0.0,0.0,0.0,0.0,0.0,0.0,0.0,0.0,0.0,0.0,0.0,0.0,0.0,0.0,0.0,0.0,0.0,0.0,0.0,0.0,0.0,0.0,0.0,0.0,0.0,0.0,0.0,0.0,0.0,0.0,0.0,0.0,0.0,0.0,0.0,0.0,0.0,0.0,0.0,0.0,0.0,0.0,0.0,0.0,0.0,0.0,0.0,0.0,0.0,0.0,0.0,0.0,0.0,0.0,0.0,0.0,0.0,0.0,0.0,0.0,0.0,0.0,0.0,0.0,0.0,0.0,0.0,0.0,0.0,0.0,0.0,0.0,0.0,0.0,0.0,0.0,0.0,0.0,0.0,0.0,0.0,0.0,0.0,0.0,0.0,0.0,0.0,0.0,0.0,0.0,0.0,0.0,0.0,0.0,0.0,0.0,0.0,0.0,0.0,0.0,0.0,0.0,0.0,0.0,0.0,0.0,0.0,0.0,0.0,0.0,0.0,0.0,0.0,0.0,0.0,0.0,0.0,0.0,0.0,0.0,0.0,0.0,0.0,0.0,0.0,0.0,0.0,0.0,0.0,0.0,0.0,0.0,0.0,0.0,0.0,0.0,0.0,0.0,0.0,0.0,0.0,0.0,0.0,0.0,0.0,0.0,0.0,0.0,0.0,0.0,0.0,0.0,0.0,0.0,0.0,0.0,0.0,0.0,0.0,0.0,0.0,0.0,0.0,0.0,0.0,0.0,0.0,0.0,0.0,0.0,0.0,0.0,0.0,0.0,0.0,0.0,0.0,0.0,0.0,0.0,0.0,0.0,0.0,0.0,0.0,0.0,0.0,0.0,0.0,0.0,0.0,0.0,0.0,0.0,0.0,0.0,0.0,0.0,0.0,0.0,0.0,0.0,0.0,0.0,0.0,0.0,0.0,0.0,0.0,0.0,0.0,0.0,0.0,0.0,0.0,0.0,0.0,0.0,0.0,0.0,0.0,0.0,0.0,0.0,0.0,0.0,0.0,0.0,0.0,0.0,0.0,0.0,0.0,0.0,0.0,0.0,0.0,0.0,0.0,0.0,0.0,0.0,0.0,0.0,0.0,0.0,0.0,0.0,0.0,0.0,0.0,0.0,0.0,0.0,0.0,0.0,0.0,0.0,0.0,0.0,0.0,0.0,0.0,0.0,0.0,0.0,0.0,0.0,0.0,0.0,0.0,0.0,0.0,0.0,0.0,0.0,0.0,0.0,0.0,0.0,0.0,0.0,0.0,0.0,0.0,0.0,0.0,0.0,0.0,0.0,0.0,0.0,0.0,0.0,0.0,0.0,0.0,0.0,0.0,0.0,0.0,0.0,0.0,0.0,0.0,0.0,0.0,0.0,0.0,0.0,0.0,0.0,0.0,0.0,0.0,0.0,0.0,0.0,0.0,0.0,0.0,0.0,0.0,0.0,0.0,0.0,0.0,0.0,0.0,0.0,0.0,0.0,0.0,0.0,0.0,0.0,0.0,0.0,0.0,0.0,0.0,0.0,0.0,0.0,0.0,0.0,0.0,0.0,0.0,0.0,0.0,0.0,0.0,0.0,0.0,0.0,0.0,0.0,0.0,0.0,0.0,0.0,0.0,0.0,0.0,0.0,0.0,0.0,0.0,0.0,0.0,0.0,0.0,0.0,0.0,0.0,0.0,0.0,0.0,0.0,0.0,0.0,0.0,0.0,0.0,0.0,0.0,0.0,0.0,0.0,0.0,0.0,0.0,0.0,0.0,0.0,0.0,0.0,0.0,0.0,0.0,0.0,0.0,0.0,0.0,0.0,0.0,0.0,0.0,0.0,0.0,0.0,0.0,0.0,0.0,0.0,0.0,0.0,0.0,0.0,0.0,0.0,0.0,0.0,0.0,0.0,0.0,0.0,0.0,0.0,0.0,0.0,0.0,0.0,0.0,0.0,0.0,0.0,0.0,0.0,0.0,0.0,0.0,0.0,0.0,0.0,0.0,0.0,0.0,0.0,0.0,0.0,0.0,0.0,0.0,0.0,0.0,0.0,0.0,0.0,0.0,0.0,0.0,0.0,0.0,0.0,0.0,0.0,0.0,0.0,0.0,0.0,0.0,0.0,0.0,0.0,0.0,0.0,0.0,0.0,0.0,0.0,0.0,0.0,0.0,0.0,0.0,0.0,0.0,0.0,0.0,0.0,0.0,0.0,0.0,0.0,0.0,0.0,0.0,0.0,0.0,0.0,0.0,0.0,0.0,0.0,0.0,0.0,0.0,0.0,0.0,0.0,0.0,0.0,0.0,0.0,0.0,0.0,0.0,0.0,0.0,0.0,0.0,0.0,0.0,0.0,0.0,0.0,0.0,0.0,0.0,0.0,0.0,0.0,0.0,0.0,0.0,0.0,0.0,0.0,0.0,0.0,0.0,0.0,0.0,0.0,0.0,0.0,0.0,0.0,0.0,0.0,0.0,0.0,0.0,0.0,0.0,0.0,0.0,0.0,0.0,0.0,0.0,0.0,0.0,0.0,0.0,0.0,0.0,0.0,0.0,0.0,0.0,0.0,0.0,0.0,0.0,0.0,0.0,0.0,0.0,0.0,0.0,0.0,0.0,0.0,0.0,0.0,0.0,0.0,0.0,0.0,0.0,0.0,0.0,0.0,0.0,0.0,0.0,0.0,0.0,0.0,0.0,0.0,0.0,0.0,0.0,0.0,0.0,0.0,0.0,0.0,0.0,0.0,0.0,0.0,0.0,0.0,0.0,0.0,0.0,0.0,0.0,0.0,0.0,0.0,0.0,0.0,0.0,0.0,0.0,0.0,0.0,0.0,0.0,0.0,0.0,0.0,0.0,0.0,0.0,0.0,0.0,0.0,0.0,0.0,0.0,0.0,0.0,0.0,0.0,0.0,0.0,0.0,0.0,0.0,0.0,0.0,0.0,0.0,0.0,0.0,0.0,0.0,0.0,0.0,0.0,0.0,0.0,0.0,0.0,0.0,0.0,0.0,0.0,0.0,0.0,0.0,0.0,0.0,0.0,0.0,0.0,0.0,0.0,0.0,0.0,0.0,0.0,0.0,0.0,0.0,0.0,0.0,0.0,0.0,0.0,0.0,0.0,0.0,0.0,0.0,0.0,0.0,0.0,0.0,0.0,0.0,0.0,0.0,0.0,0.0,0.0,0.0,0.0,0.0,0.0,0.0,0.0,0.0,0.0,0.0,0.0,0.0,0.0,0.0,0.0,0.0,0.0,0.0,0.0,0.0,0.0,0.0,0.0,0.0,0.0,0.0,0.0,0.0,0.0,0.0,0.0,0.0,0.0,0.0,0.0,0.0,0.0,0.0,0.0,0.0,0.0,0.0,0.0,0.0,0.0,0.0,0.0,0.0,0.0,0.0,0.0,0.0,0.0,0.0,0.0,0.0,0.0,0.0,0.0,0.0,0.0,0.0,0.0,0.0,0.0,0.0,0.0,0.0,0.0,0.0,0.0,0.0,0.0,0.0,0.0,0.0,0.0,0.0,0.0,0.0,0.0,0.0,0.0,0.0,0.0,0.0,0.0,0.0,0.0,0.0,0.0,0.0,0.0,0.0,0.0,0.0,0.0,0.0,0.0,0.0,0.0,0.0,0.0,0.0,0.0,0.0,0.0,0.0,0.0,0.0,0.0,0.0,0.0,0.0,0.0,0.0,0.0,0.0,0.0,0.0,0.0,0.0,0.0,0.0,0.0,0.0,0.0,0.0,0.0,0.0,0.0,0.0,0.0,0.0,0.0,0.0,0.0,0.0,0.0,0.0,0.0,0.0,0.0,0.0,0.0,0.0,0.0,0.0,0.0,0.0,0.0,0.0,0.0,0.0,0.0,0.0,0.0,0.0,0.0,0.0,0.0,0.0,0.0,0.0,0.0,0.0,0.0,0.0,0.0,0.0,0.0,0.0,0.0,0.0,0.0,0.0,0.0,0.0,0.0,0.0,0.0,0.0,0.0,0.0,0.0,0.0,0.0,0.0,0.0,0.0,0.0,0.0,0.0,0.0,0.0,0.0,0.0,0.0,0.0,0.0,0.0,0.0,0.0,0.0,0.0,0.0,0.0,0.0,0.0,0.0,0.0,0.0,0.0,0.0,0.0,0.0,0.0,0.0,0.0,0.0,0.0,0.0,0.0,0.0,0.0,0.0,0.0,0.0,0.0,0.0,0.0,0.0,0.0,0.0,0.0,0.0,0.0,0.0,0.0,0.0,0.0,0.0,0.0,0.0,0.0,0.0,0.0,0.0,0.0,0.0,0.0,0.0,0.0,0.0,0.0,0.0,0.0,0.0,0.0,0.0,0.0,0.0,0.0,0.0,0.0,0.0,0.0,0.0,0.0,0.0,0.0,0.0,0.0,0.0,0.0,0.0,0.0,0.0,0.0,0.0,0.0,0.0,0.0,0.0,0.0,0.0,0.0,0.0,0.0,0.0,0.0,0.0,0.0,0.0,0.0,0.0,0.0,0.0,0.0,0.0,0.0,0.0,0.0,0.0,0.0,0.0,0.0,0.0,0.0,0.0,0.0,0.0,0.0,0.0,0.0,0.0,0.0,0.0,0.0,0.0,0.0,0.0,0.0,0.0,0.0,0.0,0.0,0.0,0.0,0.0,0.0,0.0,0.0,0.0,0.0,0.0,0.0,0.0,0.0,0.0,0.0,0.0,0.0,0.0,0.0,0.0,0.0,0.0,0.0,0.0,0.0,0.0,0.0,0.0,0.0,0.0,0.0,0.0,0.0,0.0,0.0,0.0,0.0,0.0,0.0,0.0,0.0,0.0,0.0,0.0,0.0,0.0,0.0,0.0,0.0,0.0,0.0,0.0,0.0,0.0,0.0,0.0,0.0,0.0,0.0,0.0,0.0,0.0,0.0,0.0,0.0,0.0,0.0,0.0,0.0,0.0,0.0,0.0,0.0,0.0,0.0,0.0,0.0,0.0,0.0,0.0,0.0,0.0,0.0,0.0,0.0,0.0,0.0,0.0,0.0,0.0,0.0,0.0,0.0,0.0,0.0,0.0,0.0,0.0,0.0,0.0,0.0,0.0,0.0,0.0,0.0,0.0,0.0,0.0,0.0,0.0,0.0,0.0,0.0,0.0,0.0,0.0,0.0,0.0,0.0,0.0,0.0,0.0,0.0,0.0,0.0,0.0,0.0,0.0,0.0,0.0,0.0,0.0,0.0,0.0,0.0,0.0,0.0,0.0,0.0,0.0,0.0,0.0,0.0,0.0,0.0,0.0,0.0,0.0,0.0,0.0,0.0,0.0,0.0,0.0,0.0,0.0,0.0,0.0,0.0,0.0,0.0,0.0,0.0,0.0,0.0,0.0,0.0,0.0,0.0,0.0,0.0,0.0,0.0,0.0,0.0,0.0,0.0,0.0,0.0,0.0,0.0,0.0,0.0,0.0,0.0,0.0,0.0,0.0,0.0,0.0,0.0,0.0,0.0,0.0,0.0,0.0,0.0,0.0,0.0,0.0,0.0,0.0,0.0,0.0,0.0,0.0,0.0,0.0,0.0,0.0,0.0,0.0,0.0,-0.4903,0.0,0.0,0.0,0.0,0.0,0.0,0.0,0.0,0.0,0.0,0.0,0.0,0.0,0.0,0.0,0.0,0.0,0.0,0.0,0.0,0.0,0.0,0.0,0.0,0.0,0.0,0.0,0.0,0.0,0.0,0.0,0.0,0.0,0.0,0.0,0.5615,0.5506,0.5824,0.6593,0.5964,0.4973,0.3654,0.2127,0.1364,0.1238,0.0,0.0,0.0,0.0,0.0,0.0,0.0,0.0,0.0,0.0,0.0,0.0,0.0,0.0,0.0,0.0,0.0,0.0,0.0,0.0,0.0,0.0,0.0,0.0,0.0,0.0,0.0,0.0,0.0,0.0,0.0,0.0,0.0,0.0,0.0,0.0,0.0,0.0,0.0,0.0,0.0,0.0,0.0,0.0,0.0,0.0,0.0,0.0,0.0,0.0,0.0,0.0,0.0,0.0,0.0,0.0,0.0,0.0,0.0,0.0,0.0,0.0,0.0,0.0,0.0,0.0,0.0,0.0,0.0,0.0,0.0,-0.5455,0.0,0.0,0.0,0.0,0.0,0.0,0.0,0.0,0.0,0.0,0.0,0.0,0.0,0.0,0.0,0.0,0.0,0.0,0.0,0.0,0.0,0.0,0.0,0.5379,0.5189,0.5094,0.4934,0.4489,0.0,0.0,0.0,0.0,0.0,0.5558,0.6396,0.6474,0.6739,0.7224,0.6702,0.4983,0.2073,-0.0746,-0.22,-0.2387,0.0,0.0,0.0,0.0,0.0,0.0,0.0,0.0,0.0,0.0,0.0,0.0,0.0,0.0,0.0,0.0,0.0,0.0,0.0,0.0,0.0,0.0,0.0,0.0,0.0,0.0,0.0,0.0,0.0,0.0,0.0,0.0,0.0,0.0,0.0,0.0,0.0,0.0,0.0,0.0,0.0,0.0,0.0,0.0,0.0,0.0,0.0,0.0,0.0,0.0,0.0,0.0,0.0,0.0,0.0,0.0,0.0,0.0,0.0,0.0,0.0,0.0,0.0,0.0,-0.3024,-0.3745,-0.4719,-0.4976,-0.6189,-0.8104,-0.7297,-0.859,-1.0951,-0.7774,0.0,0.0,0.0,0.0,0.0,0.0,0.0,0.0,0.0,0.0,0.0,0.0,0.0,0.0,0.0,0.0,0.0,0.0,0.0,0.0,0.0,0.6059,0.5796,0.6244,0.5481,0.4655,0.3924,0.0,0.415,0.4559,0.4862,0.5607,0.6867,0.6654,0.7175,0.8541,0.6258,0.317,-0.0611,-0.2583,-0.5181,-0.8077,-0.6943,0.0,0.0,0.0,0.0,0.0,0.0,0.0,0.0,0.0,0.0,0.0,0.0,0.0,0.0,0.0,0.0,0.0,0.0,0.0,0.0,0.0,0.0,0.0,0.0,0.0,0.0,0.0,0.0,0.0,0.0,0.0,0.0,0.0,0.0,0.0,0.0,0.0,0.0,0.0,0.0,0.0,0.0,0.0,0.3152,0.076,0.0,0.0,0.0,0.0,0.0,0.0,0.0,0.0,0.0,0.0,0.0,0.0,0.0,0.0648,0.0406,-0.0991,-0.1842,-0.22,-0.4466,-0.5965,-0.6728,-0.7395,-0.8658,-1.0313,-1.0989,0.0,-1.04,-1.0891,0.0,0.0,0.0,0.0,0.0,0.0,0.0,0.0,0.0,0.0,0.0,0.0,0.0,0.0,0.0,0.0,0.0,0.0,0.0,0.0,0.0,0.6369,0.5595,0.5249,0.3621,0.268,0.276,0.2846,0.363,0.5312,0.5916,0.6711,0.7756,0.8255,0.8881,0.9649,0.6787,0.3804,0.0666,-0.2963,-0.6553,-0.9992,-1.1709,-1.0819,-0.8086,-0.8447,0.0,0.0,0.0,0.0,0.0,0.0,0.0,0.0,0.0,0.0,0.0,0.0,0.0,0.0,0.0,0.0,0.0,0.0,0.0,0.0,0.0,0.0,0.0,0.0,0.0,0.0,0.0,0.0,0.0,0.0,0.0,0.0,0.0,0.0,0.0,0.0,0.0,0.0,0.0,0.5359,0.4232,0.2929,0.1868,0.0931,0.0,0.0,0.0,0.0,0.0,0.0,0.0,0.0,0.0,0.1964,0.1574,0.0844,-0.0306,-0.144,-0.2351,-0.2971,-0.4525,-0.5711,-0.6627,-0.7386,-0.8588,-1.0136,-1.1447,-1.2115,-1.231,-1.1938,-1.0965,-0.9476,0.0,0.0,0.0,0.0,-0.232,-0.218,0.0,0.0,0.0,0.0,0.0,0.0,0.0,0.0,0.0,0.0,0.0,0.0,0.7784,0.6665,0.5492,0.4369,0.209,0.0793,0.107,0.1667,0.3104,0.557,0.6673,0.7911,0.9428,1.0465,1.0918,1.0772,0.8091,0.5244,0.2296,-0.2534,-0.6928,-1.0957,-1.4473,-1.4349,-1.156,-1.1942,-1.0728,0.0,0.0,0.0,0.0,0.0,0.0,0.0,0.0,0.0,0.0,0.0,0.0,0.0,0.0,0.0,0.0,0.0,0.0,0.0,0.0,0.0,0.0,0.0,0.0,0.0,0.0,0.0,0.0,0.0,0.0,0.0,0.0,0.0,0.0,0.0,0.0,0.0,0.0,0.6258,0.5147,0.4304,0.266,0.1552,0.0,0.0,0.0,0.0,0.0,0.0,0.4302,0.4237,0.3706,0.2719,0.2424,0.1442,-0.0223,-0.1181,-0.1991,-0.2715,-0.3642,-0.4677,-0.5776,-0.6527,-0.7788,-0.9442,-1.1099,-1.2501,-1.3566,-1.2682,-1.2241,-1.1818,-0.8724,-0.6747,-0.5486,-0.4224,-0.3571,-0.347,0.0,0.0,0.0,0.0,0.0,0.0,0.0,0.0,0.0,0.0,0.0,0.8506,0.8018,0.7019,0.5845,0.4587,0.2007,-0.0043,-0.1074,0.0893,0.2909,0.4782,0.6432,0.8859,1.2213,1.3047,1.3003,1.2098,1.0225,0.7114,0.2873,-0.1355,-0.6273,-1.1659,-1.4205,-1.4982,-1.4348,-1.5135,-1.4068,-1.1628,0.0,0.0,0.0,0.0,0.0,0.0,0.0,0.0,0.0,0.0,0.0,0.0,0.0,0.0,0.0,0.0,0.0,0.0,0.0,0.0,0.0,0.0,0.0,0.0,0.0,0.0,0.0,0.0,0.0,0.0,0.0,0.0,0.0,0.0,0.0,0.0,0.0,0.0,0.0,0.3388,0.2274,0.0,0.0,0.0,0.0,0.4188,0.4687,0.5226,0.6021,0.5668,0.5048,0.4293,0.3581,0.2853,0.2063,0.0632,-0.0115,-0.0223,-0.1619,-0.3067,-0.4501,-0.5257,-0.6768,-0.8844,-1.069,-1.193,-1.2681,-1.3781,-1.3286,-1.159,-1.0186,-0.7954,-0.5455,-0.4854,-0.4462,-0.4447,0.0,0.0,0.0,0.0,0.0,0.0,0.0,0.0,0.9231,0.975,1.0377,1.0648,1.0339,0.8947,0.7045,0.4601,0.1345,-0.0791,-0.1337,0.0599,0.2617,0.4465,0.8307,1.1931,1.5257,1.4861,1.4479,1.4116,1.1999,0.8533,0.3807,-0.0298,-0.5091,-1.0339,-1.3772,-1.6039,-1.7305,-1.7999,-1.6853,-1.4519,-1.3295,-1.0651,0.0,0.0,0.0,0.0,0.0,0.0,0.0,0.0,0.0,0.0,0.0,0.0,0.0,0.0,0.0,0.0,0.0,0.0,0.0,0.0,0.0,0.0,0.0,0.0,0.0,0.0,0.0,0.0,0.0,0.0,0.0,0.0,0.0,0.0,0.0,0.0,0.0,0.6925,0.5244,0.0,0.4033,0.4877,0.5631,0.6149,0.6913,0.7722,0.8461,0.7929,0.7413,0.7192,0.6411,0.545,0.427,0.3252,0.232,0.1378,0.0385,-0.0826,-0.2323,-0.3023,-0.4804,-0.7353,-0.896,-1.0029,-1.0756,-1.1707,-1.2159,-1.209,-1.0679,-0.934,-0.8081,-0.6749,-0.6392,-0.6597,0.0,0.0,0.0,0.0,0.0,0.0,0.0,0.0,1.0246,1.1039,1.1948,1.2504,1.2526,1.1269,0.918,0.6071,0.2423,0.0105,-0.0401,0.1138,0.308,0.5358,1.0758,1.4816,1.7178,1.6667,1.6443,1.6514,1.4232,1.0816,0.6311,0.1693,-0.3409,-0.8808,-1.329,-1.6639,-1.8983,-1.9793,-1.9116,-1.7366,-1.6333,-1.3839,-1.0349,0.0,0.0,0.0,0.0,0.0,0.0,0.0,0.0,0.0,0.0,0.0,0.0,0.0,0.0,0.0,0.0,0.0,0.0,0.0,0.0,0.0,0.0,0.0,0.0,0.0,0.0,0.0,0.0,0.0,0.0,0.0,0.0,0.0,0.0,0.0,1.0364,0.9871,0.8081,0.7019,0.7341,0.7729,0.816,0.8673,0.9464,1.0348,1.1208,1.0806,1.0615,1.0648,0.9867,0.8812,0.7607,0.7047,0.6049,0.4605,0.4202,0.3203,0.1656,0.0953,-0.0576,-0.2747,-0.5097,-0.6426,-0.6968,-0.837,-0.9415,-1.0061,-0.9603,-0.9404,-0.9138,-0.6994,-0.69,-0.7825,0.0,0.0,0.0,0.0,0.0,0.0,0.0,1.0574,1.0977,1.2284,1.3242,1.3984,1.4502,1.3955,1.2372,0.9275,0.5583,0.29,0.1787,0.2674,0.4595,0.7671,1.3702,1.7337,1.8057,1.8532,1.889,1.9142,1.6821,1.3891,1.0368,0.4754,-0.1126,-0.7214,-1.2689,-1.6576,-1.9201,-2.0512,-2.0781,-2.0175,-1.7981,-1.6646,-1.5308,0.0,0.0,0.0,0.0,0.0,0.0,0.0,0.0,0.0,0.0,0.0,0.0,0.0,0.0,0.0,0.0,0.0,0.0,0.0,0.0,0.0,0.0,0.0,0.0,0.0,0.0,0.0,0.0,0.0,0.0,0.0,0.0,0.0,1.4062,1.3226,1.2584,1.1818,1.054,0.9795,0.988,0.9723,1.0197,1.1631,1.2261,1.3062,1.4203,1.4381,1.4482,1.4663,1.3835,1.2958,1.2104,1.189,1.1048,0.9624,0.9818,0.9005,0.7382,0.6656,0.5891,0.4923,0.0776,-0.1029,-0.1229,-0.3926,-0.502,-0.514,-0.676,-0.7852,-0.8233,-0.5317,-0.5712,-0.785,0.0,0.0,0.0,0.0,0.0,0.0,0.0,1.0547,1.1596,1.3651,1.4967,1.6287,1.7717,1.7729,1.6623,1.4219,1.1417,0.8903,0.6926,0.7829,1.0358,1.4722,0.0,0.0,2.148,2.0901,2.0383,1.9974,1.8056,1.5503,1.237,0.8928,0.334,-0.4058,-0.8983,-1.4123,-1.9263,-2.1663,-2.2265,-2.148,-1.9984,-1.7786,-1.5121,0.0,0.0,0.0,0.0,0.0,0.0,0.0,0.0,0.0,0.0,0.0,0.0,0.0,0.0,0.0,0.0,0.0,0.0,0.0,0.0,0.0,0.0,0.0,0.0,0.0,0.0,0.0,0.0,0.0,0.0,0.0,1.6927,1.7417,1.5306,1.5586,1.5672,1.4685,1.381,1.3426,1.3747,1.3961,1.4416,1.5151,1.5991,1.6831,1.7623,1.7455,1.7641,1.826,1.7648,1.7067,1.6452,1.6467,1.5742,1.4339,1.4186,1.331,1.1822,1.1163,0.9917,0.8056,0.5879,0.4919,0.4734,0.3158,0.3312,0.408,-0.053,-0.365,-0.5176,-0.1698,-0.3165,-0.6512,0.0,0.0,0.0,0.0,0.0,0.0,0.0,1.0918,1.2369,1.4405,1.6166,1.7939,1.9752,1.975,1.8889,1.7079,1.4272,1.2045,1.0766,1.1936,1.4483,0.0,0.0,2.1443,2.3471,2.2144,2.1262,2.0881,1.8859,1.6561,1.3963,1.0569,0.5576,-0.0787,-0.6252,-1.1494,-1.6557,-2.1167,-2.241,-2.1241,-2.112,-1.9427,-1.6794,-1.4546,-1.2283,-0.9963,-0.725,-0.5184,-0.3664,-0.3171,0.0,0.0,0.0,0.0,0.0,0.0,0.0,0.0,0.0,0.0,0.0,0.0,0.0,0.0,0.0,0.0,0.0,0.0,0.0,0.0,0.0,0.0,0.0,0.0,1.9499,2.0021,1.8949,1.8753,1.8474,1.7814,1.7397,1.7192,1.7267,1.7705,1.8115,1.838,1.9119,1.9826,2.0422,2.0279,2.056,2.1432,2.0688,2.0146,1.9835,2.0011,1.9309,1.775,1.783,1.711,1.5762,1.5209,1.4267,1.2937,1.0958,1.0078,0.9852,0.7372,0.6978,0.7588,0.0,0.0,0.0,0.0,0.1082,-0.1168,0.0,0.0,0.0,0.0,0.0,0.0,0.0,1.1482,1.3084,1.4659,1.6953,1.9066,2.0702,2.062,1.9909,1.8573,1.553,1.3752,1.3894,1.5512,0.0,2.0327,2.1237,2.2546,2.4342,2.2669,2.1725,2.1617,1.9339,1.7242,1.5326,1.1145,0.6904,0.2525,-0.3544,-0.8207,-1.1947,-1.8562,-2.0545,-1.9354,-2.0699,-2.0601,-1.9289,-1.5611,-1.3442,-1.184,-0.7242,-0.5363,-0.4886,-0.4286,0.0,0.0,0.0,0.0,0.0,0.0,0.0,0.0,0.0,0.0,0.0,0.0,0.0,0.0,0.0,0.0,0.0,0.0,0.0,0.0,0.0,0.0,0.0,0.0,2.2383,2.3287,2.3583,2.2199,2.1055,2.0844,2.0842,2.0722,2.0411,2.0884,2.1198,2.1238,2.1709,2.221,2.2665,0.0,0.0,0.0,0.0,2.2399,2.2357,2.2619,2.1935,2.0295,2.0756,2.0339,1.9173,1.8632,1.8397,1.8241,1.5656,1.4506,1.4145,1.0224,0.8489,0.8175,0.6591,0.6938,0.8156,0.6736,0.6559,0.6909,0.0,0.0,0.0,0.0,0.0,0.0,0.0,1.1549,1.3083,1.4478,1.735,1.95,2.0136,2.1259,2.1433,2.0091,1.8727,1.7816,1.7587,0.0,2.1336,2.1871,2.3322,2.4188,2.4316,2.3333,2.223,2.1054,1.9604,1.8151,1.6695,1.4927,1.115,0.5618,0.2366,-0.1948,-0.6976,-1.0507,-1.277,-1.4087,-1.5361,-1.7632,-2.0008,-1.7622,-1.5249,-1.2796,-0.9811,-0.7104,-0.5021,-0.5041,-0.4174,-0.3269,-0.3963,0.0,0.0,0.0,0.0,0.0,0.0,0.0,0.0,0.0,0.0,0.0,0.0,0.0,0.0,0.0,0.0,0.0,0.0,0.0,0.0,2.3162,2.4118,2.4832,2.5055,2.4294,2.3312,2.2345,2.2225,2.2357,2.2722,2.285,2.3043,2.3299,2.3663,2.3893,2.3948,2.405,2.4272,2.4625,2.4033,2.3789,2.395,2.3799,2.3388,2.2729,0.0,0.0,2.1587,2.0638,2.0203,2.0119,1.8543,1.7597,1.7058,1.589,1.4616,1.2917,0.8223,1.0055,1.4953,1.1769,1.2632,1.531,0.0,0.0,0.0,0.0,0.0,0.0,0.0,1.1489,1.2888,1.3967,1.646,1.8317,1.8748,1.9271,1.9439,1.9025,1.89,1.8988,0.0,2.1251,2.2674,2.3327,2.3893,2.408,2.3811,2.2641,2.148,2.0356,1.8765,1.7353,1.6069,1.4809,1.2014,0.8035,0.6495,0.3049,-0.1817,-0.4408,-0.6804,-0.8971,-1.0274,-1.1967,-1.3683,-1.3577,-1.1359,-0.7842,-0.4341,-0.1565,0.0132,-0.1882,-0.2349,-0.2503,-0.4824,-0.5755,-0.5089,0.0,0.0,0.0,0.0,0.0,0.0,0.0,0.0,0.0,0.0,0.0,0.0,0.0,0.0,2.0563,2.1745,0.0,2.4407,2.5393,2.5692,2.5813,2.5858,2.5277,2.4594,2.3872,2.3809,2.3954,2.4323,2.4358,2.4379,2.4453,2.4485,2.4464,2.4351,2.4222,2.4213,2.4342,2.3809,2.355,2.364,2.3195,2.2787,2.244,2.2081,2.1688,2.1287,2.0252,1.9802,1.9732,1.8852,1.8295,1.7918,1.661,1.5254,1.3689,1.1161,1.2696,1.6225,1.5133,1.5801,1.7198,0.0,0.0,0.0,0.0,0.0,0.0,0.0,1.1598,1.2867,1.3584,1.543,1.6783,1.7079,1.6858,1.6857,1.7268,1.8237,0.0,0.0,2.1807,2.3198,2.4151,2.3719,2.3266,2.2865,2.1603,2.0458,1.9415,1.7627,1.6167,1.4978,1.3564,1.1873,0.9947,0.9353,0.7038,0.3378,0.1133,-0.0828,-0.2577,-0.3846,-0.4178,-0.4076,-0.535,-0.4533,-0.2187,0.1752,0.435,0.5426,0.2343,0.0771,-0.0496,-0.3938,-0.5086,-0.4459,-0.0812,0.117,0.0,0.0,0.0,0.0,0.0,0.0,0.0,0.0,0.0,2.0453,2.1423,2.2155,2.3153,2.4941,2.5524,2.6088,2.7193,2.6965,2.6483,2.5995,2.546,2.5054,2.4874,2.4961,2.5078,2.5203,2.5176,2.506,2.4895,2.4612,2.44,2.4293,2.3936,2.3726,2.3711,2.3088,2.2726,2.2635,2.1915,2.1411,2.1115,2.0655,2.0224,1.9834,1.8962,1.8574,1.8559,1.7903,1.7582,1.7353,1.5504,1.4109,1.3153,1.3657,1.439,1.539,1.6797,1.698,1.6578,0.0,0.0,0.0,0.0,0.0,0.0,0.0,0.0,1.3449,1.3907,1.5311,1.6026,1.5436,1.5961,1.6336,1.6276,1.8308,0.0,2.0575,2.2844,2.395,2.3451,2.3141,2.2422,2.1295,2.0891,1.9829,1.8001,1.6854,1.5722,1.4624,1.3495,1.2365,1.1295,1.0771,0.9807,0.8504,0.7218,0.6892,0.7132,0.6147,0.6273,0.7092,0.7734,0.429,-0.0605,0.1559,0.388,0.5829,0.5401,0.5026,0.3924,-0.084,-0.1427,-0.0883,-0.3508,0.0,0.6424,1.2303,1.5885,0.0,1.9522,2.076,2.2166,0.0,0.0,2.4735,2.585,2.6945,2.7765,2.8014,2.8802,2.9027,2.7845,2.7608,2.6943,2.5197,2.469,2.4473,2.4393,2.4794,2.5046,2.4949,2.4716,2.4553,2.4474,2.4153,2.3961,2.3877,2.3672,2.3371,2.303,2.2496,2.2018,2.167,2.0815,2.019,1.9803,1.9258,1.8792,1.8327,1.7733,1.7463,1.7436,1.6421,1.5705,1.5197,1.4487,1.3808,1.3254,1.3702,1.4184,1.4727,1.5654,1.5978,1.5903,0.0,0.0,0.0,0.0,0.0,0.0,0.0,0.0,0.0,1.3288,1.4153,1.4776,1.4908,1.5397,1.5921,1.6417,0.0,0.0,2.0307,2.2354,2.3244,2.2641,2.1691,2.09,2.0186,1.9532,1.8464,1.697,1.6176,1.5242,1.4124,1.3309,1.2508,1.1658,1.1465,1.0731,0.9619,0.9134,0.8857,0.8751,0.8353,0.8211,0.8189,0.8592,0.7439,0.5954,0.8493,1.0767,0.0,0.0,0.9965,0.8815,0.3105,0.1667,0.1983,0.149,0.3273,0.0,1.3011,0.0,0.0,0.0,2.2764,2.4459,2.5533,2.6005,2.6612,2.8063,2.8846,2.9299,2.9453,2.9748,2.9557,0.0,2.767,2.6756,2.5412,2.4348,2.3713,2.3821,2.3817,2.3933,2.4234,2.4158,2.4031,2.3897,2.3558,2.331,2.3163,2.2683,2.2339,2.2133,2.142,2.0831,2.0389,1.9753,1.9192,1.8722,1.8493,1.8274,1.8066,1.7544,1.7105,1.6824,1.6355,1.5856,1.5329,1.5103,1.4828,1.4598,1.5104,1.533,1.5372,1.54,1.558,1.5799,0.0,0.0,0.0,0.0,0.0,0.0,0.0,0.0,0.0,0.0,1.3412,1.3916,1.4692,1.5215,1.5887,0.0,0.0,0.0,0.0,2.1547,2.2108,2.1434,2.0445,1.9527,1.874,1.8011,1.7053,1.5915,1.5306,1.4663,1.3957,1.337,1.2847,1.2402,1.2141,1.1328,1.0254,0.9955,0.9413,0.8804,0.8804,0.8374,0.7711,0.8057,0.8934,1.0242,1.2551,1.4855,0.0,0.0,1.414,1.3377,0.9024,0.7193,0.6938,0.8429,0.8843,0.9958,1.5267,0.0,0.0,2.3145,2.4985,2.6744,2.6955,2.7404,2.8087,2.9212,2.9553,2.9691,2.9776,2.9665,2.9243,2.8301,2.7191,2.6117,2.5124,2.3692,2.2788,2.2929,2.2603,2.2544,2.298,2.33,2.3437,2.3294,2.288,2.2539,2.2388,2.1786,2.1321,2.1038,2.0452,1.9798,1.9207,1.8712,1.8263,1.7867,1.7747,1.7666,1.7666,1.7271,1.6879,1.6522,1.6522,1.6208,1.5693,1.5693,1.5553,1.5372,1.5951,1.5993,1.5787,1.549,1.5565,1.5799,0.0,0.0,0.0,0.0,0.0,0.0,0.0,0.0,0.0,0.0,0.0,0.0,0.0,1.5454,1.6413,0.0,0.0,0.0,0.0,2.0764,2.071,1.9703,1.9641,1.8612,1.6549,1.6464,1.5915,1.4744,1.4143,1.4037,1.438,1.3771,1.3701,1.3966,1.2924,1.2105,1.1378,1.0254,0.9413,0.8804,0.8804,0.8374,0.7853,0.8998,0.9458,0.9604,1.0132,0.0,0.0,0.0,1.7004,1.7315,1.7715,1.6566,0.0,1.603,1.6904,0.0,0.0,0.0,2.4145,2.5857,2.7735,2.9168,2.9035,2.9375,2.9648,2.9352,2.9317,2.9187,2.882,2.8688,2.8292,2.7212,2.6086,2.4984,2.3894,2.2468,2.154,2.1556,2.1272,2.107,0.0,2.2079,2.2729,2.2729,2.2046,2.1642,2.1642,2.1244,2.0601,1.9677,1.9656,1.9133,1.8185,1.7626,1.7353,1.7312,1.6795,1.6552,1.6552,1.6522,1.6522,1.6522,1.6522,1.6208,1.5693,1.5693,1.5407,1.498,1.5522,1.555,1.5399,1.588,1.5961,1.5799,0.0,0.0,0.0,0.0,0.0,0.0,0.0,0.0,0.0,0.0,0.0,0.0,0.0,0.0,0.0,0.0,0.0,0.0,0.0,1.9414,1.942,1.9069,1.8044,1.7137,1.6421,1.5652,1.5017,1.451,1.4317,1.4367,1.466,1.4454,1.458,1.4971,1.46,1.3586,1.2206,1.1809,1.0786,0.9372,0.9172,0.8837,0.8632,0.9173,1.015,1.1314,0.0,0.0,0.0,1.6749,1.7718,1.8208,1.7475,1.706,0.0,1.6543,1.7786,1.9671,0.0,0.0,2.5723,2.7386,2.8554,2.926,2.9137,2.9079,2.9034,2.8876,2.8129,2.7475,2.7345,2.7179,2.6962,2.6595,2.5879,2.509,2.4269,2.2808,2.1762,2.1584,2.1475,0.0,0.0,0.0,0.0,2.196,2.1761,2.1582,2.1582,2.0943,2.0265,1.9621,1.931,1.8622,1.7585,1.7394,1.7105,1.6752,1.6595,1.6522,1.6522,1.6522,1.6522,1.6522,1.6522,1.6409,1.6245,1.6625,1.6673,1.6584,1.7446,1.7495,1.71,1.7646,1.748,1.6937,0.0,0.0,0.0,0.0,0.0,0.0,0.0,0.0,0.0,0.0,0.0,0.0,0.0,0.0,0.0,0.0,0.0,0.0,0.0,0.0,1.826,1.8003,1.6916,1.6089,1.5595,1.4771,1.4317,1.4279,1.3978,1.4138,1.4727,1.4371,1.4437,1.4873,1.4666,1.3787,1.2458,1.253,1.1639,1.008,1.0279,0.9982,0.9486,1.0288,1.1356,0.0,0.0,0.0,0.0,1.7545,1.8129,1.8339,1.7775,1.7844,1.8095,1.7861,1.9231,2.1262,2.3309,2.5051,2.6708,2.8378,2.8786,2.8755,2.854,2.8233,2.7828,2.7352,2.658,2.587,2.5492,2.5863,2.6033,2.5343,2.5073,2.4732,2.4075,2.2467,2.1504,2.1758,2.1562,2.1507,0.0,0.0,0.0,2.1582,2.1321,2.1134,2.1134,2.0283,1.9671,1.9368,1.8674,1.7987,1.7312,1.7312,1.7105,1.6795,1.6595,1.6522,1.6522,1.6522,1.6522,1.6522,1.6522,1.6522,1.6552,1.7076,1.7312,1.7435,1.8496,1.8504,1.7957,1.8515,1.8283,1.7578,0.0,0.0,0.0,0.0,0.0,0.0,0.0,0.0,0.0,0.0,0.0,0.0,0.0,0.0,0.0,0.0,0.0,0.0,0.0,0.0,0.0,1.6481,1.6225,1.547,1.4098,1.3784,1.3803,1.4068,1.3204,1.3427,1.4629,1.3726,1.3549,1.4016,1.3541,1.2989,1.2322,1.2594,1.2035,1.099,1.2113,1.1649,1.054,1.234,0.0,0.0,0.0,0.0,0.0,0.0,0.0,0.0,0.0,1.9284,1.939,2.0136,2.1422,2.3132,2.5565,2.6448,2.7081,2.8734,2.8435,2.7671,2.7341,2.6899,2.6233,2.4963,2.4774,2.447,0.0,0.0,2.5473,2.3611,2.387,2.4065,2.3393,2.1703,2.0942,0.0,0.0,0.0,0.0,0.0,0.0,2.1582,0.0,2.0314,2.0314,1.9419,1.893,1.8855,1.7907,1.7353,1.7271,1.7271,1.7271,1.7229,1.6752,1.6522,1.6522,1.6522,1.6522,1.6522,1.6522,1.6552,1.6595,1.7146,1.7394,1.7504,1.8535,1.857,1.8036,1.856,1.8358,1.7787,0.0,0.0,0.0,0.0,0.0,0.0,0.0,0.0,0.0,0.0,0.0,0.0,0.0,0.0,0.0,0.0,0.0,0.0,0.0,0.0,0.0,0.0,0.0,0.0,0.0,0.0,0.0,0.0,0.0,1.4428,1.5345,1.5074,1.5197,1.5613,1.5497,1.4836,1.3785,1.4194,1.3633,1.2467,0.0,1.3178,1.3361,0.0,0.0,0.0,0.0,0.0,0.0,0.0,0.0,0.0,0.0,2.1094,2.1116,2.1129,2.2518,2.4216,2.4922,2.5746,2.6554,2.7191,2.645,2.5579,2.5469,2.5118,2.4627,2.3901,2.3515,2.3102,0.0,0.0,0.0,2.3541,2.4608,0.0,2.463,2.4034,0.0,2.2638,0.0,2.2575,2.2041,2.1735,0.0,0.0,2.0959,2.0665,2.0314,1.9788,1.9132,1.8341,1.8419,1.7907,1.671,1.671,1.671,1.671,1.6552,1.6522,1.6522,1.6522,1.6522,1.6522,1.6909,1.7118,1.7146,1.8106,1.8496,1.8574,1.9244,1.939,1.9277,1.94,1.9331,1.9181,0.0,0.0,0.0,0.0,0.0,0.0,0.0,0.0,0.0,0.0,0.0,0.0,0.0,0.0,0.0,0.0,0.0,0.0,0.0,0.0,0.0,0.0,0.0,0.0,0.0,0.0,0.0,0.0,0.0,0.0,0.0,1.4727,1.4639,1.4629,1.4572,1.4147,1.3479,1.407,0.0,0.0,0.0,0.0,0.0,0.0,0.0,0.0,0.0,0.0,0.0,0.0,0.0,2.1568,2.1978,2.2126,2.2153,2.2144,0.0,2.453,2.4798,2.5253,2.5678,2.5832,2.4815,2.3748,2.3698,2.3297,2.2847,2.2229,2.1936,0.0,0.0,0.0,0.0,0.0,0.0,0.0,2.5071,2.462,2.4273,0.0,2.3914,0.0,2.2852,2.2365,2.1788,0.0,2.0797,2.0499,2.0054,1.9609,1.9169,1.8817,1.865,1.8224,1.7544,1.7076,1.6951,1.7188,1.671,1.6522,1.6522,1.6752,1.6837,1.6879,1.7435,1.7666,1.7706,1.8535,1.8893,1.8968,1.9479,1.969,1.969,1.969,1.969,1.969,0.0,0.0,0.0,0.0,0.0,0.0,0.0,0.0,0.0,0.0,0.0,0.0,0.0,0.0,0.0,0.0,0.0,0.0,0.0,0.0,0.0,0.0,0.0,0.0,0.0,0.0,0.0,0.0,0.0,0.0,0.0,0.0,0.0,0.0,0.0,0.0,0.0,0.0,0.0,0.0,0.0,0.0,0.0,0.0,0.0,0.0,0.0,0.0,0.0,0.0,2.3381,2.3184,2.3036,2.2921,2.289,2.3128,2.3746,2.4402,2.4698,2.4713,2.4578,2.432,2.3178,2.2044,2.1862,2.1497,2.1083,2.0548,0.0,2.0608,2.0174,2.2463,2.3865,2.2227,0.0,2.5807,2.5293,2.4632,2.4509,2.5392,2.4922,2.4197,2.3294,2.2872,2.2117,2.0974,2.0516,2.0124,1.9711,1.9244,1.9207,1.969,1.865,1.838,1.8893,1.7907,1.7585,1.7987,1.7034,1.6595,1.6637,1.7076,1.7353,1.7422,1.7987,1.8224,1.8263,1.8779,1.9006,1.9043,1.953,1.969,1.969,1.969,1.969,1.969,0.0,0.0,0.0,0.0,0.0,0.0,0.0,0.0,0.0,0.0,1.6218,1.6485,0.0,0.0,0.0,0.0,0.0,0.0,0.0,0.0,0.0,0.0,0.0,0.0,0.0,0.0,0.0,0.0,0.0,0.0,0.0,0.0,0.0,0.0,0.0,0.0,0.0,0.0,0.0,0.0,0.0,0.0,0.0,0.0,0.0,0.0,0.0,0.0,0.0,0.0,2.3327,2.4831,2.5025,2.4615,2.4034,2.3822,2.4108,2.4288,2.3452,2.3467,2.3342,2.1709,2.0731,2.0139,1.9855,1.9796,0.0,0.0,0.0,2.159,2.1625,2.2941,0.0,2.3856,0.0,0.0,0.0,0.0,2.5898,0.0,0.0,0.0,0.0,0.0,0.0,0.0,2.0348,2.0124,1.9711,1.9603,1.9603,1.969,1.865,1.838,1.8893,1.8302,1.7787,1.7422,1.7229,1.7146,1.7146,1.7271,1.7544,1.7987,1.8535,0.0,1.8817,1.9332,1.9566,1.9566,1.9639,1.969,1.969,1.969,1.969,1.969,0.0,0.0,0.0,0.0,0.0,0.0,0.0,1.4585,1.4922,1.5077,1.5346,1.5506,1.5482,1.563,1.574,0.0,0.0,0.0,0.0,0.0,0.0,0.0,0.0,0.0,0.0,0.0,0.0,0.0,0.0,0.0,0.0,0.0,0.0,0.0,0.0,0.0,0.0,0.0,0.0,0.0,0.0,0.0,0.0,0.0,0.0,0.0,0.0,0.0,0.0,0.0,2.3341,2.4062,2.4174,2.3762,2.3238,2.3143,2.3112,2.3038,2.2661,2.2076,2.1315,2.0354,1.9364,1.8602,1.8596,0.0,0.0,0.0,0.0,2.1243,2.1742,0.0,0.0,0.0,0.0,0.0,0.0,0.0,0.0,0.0,0.0,0.0,0.0,0.0,0.0,2.0887,2.0288,1.9894,1.9711,1.969,1.969,1.969,1.9207,1.9043,1.9332,1.8779,1.838,1.8145,1.7867,1.7706,1.7747,1.8027,1.8263,1.8535,1.908,1.9332,1.9332,1.9603,1.969,1.969,1.969,1.969,1.969,1.969,1.969,1.969,0.0,0.0,0.0,0.0,0.0,0.0,0.0,1.4382,1.4898,1.4607,1.4382,1.4374,1.4686,1.511,1.5403,0.0,0.0,0.0,0.0,0.0,0.0,0.0,0.0,0.0,0.0,0.0,0.0,0.0,0.0,0.0,0.0,0.0,0.0,0.0,0.0,0.0,0.0,0.0,0.0,0.0,0.0,0.0,0.0,0.0,0.0,0.0,0.0,0.0,0.0,0.0,2.2851,2.2441,2.2324,2.2141,2.1951,2.219,2.1967,2.163,2.1953,2.0867,1.9569,1.9016,1.7961,1.7164,1.74,1.7616,0.0,0.0,2.0372,2.0933,2.1972,0.0,0.0,0.0,0.0,0.0,0.0,0.0,0.0,0.0,0.0,0.0,0.0,0.0,0.0,2.1218,2.0252,1.969,1.969,1.969,1.969,1.969,1.969,1.969,1.969,1.9281,1.9006,1.8893,1.8458,1.8263,1.8302,1.8688,1.8968,1.9095,1.953,1.9765,1.9899,1.9899,1.9989,2.0094,1.9959,1.9899,1.9884,1.9735,1.969,1.969,0.0,0.0,0.0,0.0,0.0,0.0,0.0,1.3884,1.4114,1.3594,1.3267,1.3332,1.4013,1.4818,1.5328,0.0,0.0,0.0,0.0,0.0,0.0,0.0,0.0,0.0,0.0,0.0,0.0,0.0,0.0,0.0,0.0,0.0,0.0,0.0,0.0,0.0,0.0,0.0,0.0,0.0,0.0,0.0,0.0,0.0,0.0,0.0,0.0,0.0,0.0,0.0,0.0,2.0598,2.0417,2.0671,2.1128,2.1713,0.0,0.0,2.0776,2.0215,1.9109,1.6753,1.5811,1.5632,1.5902,0.0,0.0,2.0086,2.1026,2.1785,2.3322,2.3762,0.0,0.0,0.0,2.5285,0.0,0.0,0.0,0.0,0.0,0.0,0.0,0.0,0.0,2.079,2.0115,1.969,1.969,1.969,1.969,1.969,1.969,1.969,1.969,1.9639,1.9369,1.8893,1.8855,1.8817,1.8817,1.8893,1.9169,1.9639,1.969,2.0049,0.0,2.0617,2.0976,2.1455,2.0857,2.0617,2.0543,1.9914,1.969,1.969,0.0,0.0,0.0,0.0,0.0,0.0,1.3057,1.3565,1.3879,1.3307,1.2788,1.2937,1.4154,1.4808,1.5221,1.557,0.0,0.0,0.0,0.0,0.0,0.0,0.0,0.0,0.0,0.0,0.0,0.0,0.0,0.0,0.0,0.0,0.0,0.0,0.0,0.0,0.0,0.0,0.0,0.0,0.0,0.0,0.0,0.0,0.0,0.0,0.0,0.0,0.0,0.0,0.0,0.0,2.0313,2.0062,0.0,0.0,2.0042,1.9788,1.9612,1.9209,1.835,1.6307,1.5836,1.5807,1.5765,0.0,1.7957,2.0223,2.1377,2.2365,2.3458,2.4096,2.4482,0.0,0.0,0.0,0.0,0.0,0.0,0.0,0.0,0.0,0.0,0.0,2.1859,2.0797,2.0079,1.969,1.969,1.969,1.969,1.969,1.969,1.969,1.969,1.969,1.9603,1.9369,1.9369,1.9369,1.9384,1.9796,2.0101,2.0318,2.0722,2.1051,0.0,2.1306,2.1455,2.1665,2.141,2.1306,2.1216,2.0557,2.0303,2.0243,0.0,0.0,0.0,0.0,0.0,1.4183,1.272,1.3505,1.391,1.2935,1.2655,1.2949,1.4041,1.4707,1.5232,1.5675,1.5347,0.0,0.0,0.0,0.0,0.0,0.0,0.0,0.0,0.0,0.0,0.0,0.0,0.0,0.0,0.0,0.0,0.0,0.0,0.0,0.0,0.0,0.0,0.0,0.0,0.0,0.0,0.0,0.0,0.0,0.0,0.0,0.0,0.0,0.0,0.0,0.0,0.0,0.0,0.0,1.922,1.8976,1.8836,1.833,1.7467,1.5828,1.54,1.5426,0.0,0.0,1.8377,2.0068,2.1404,2.2509,2.331,2.4112,2.467,2.4694,0.0,2.7669,0.0,0.0,0.0,0.0,0.0,0.0,0.0,2.3272,2.2218,2.1096,2.0557,2.0273,2.0273,2.0273,2.0094,1.969,1.969,1.969,1.969,1.9884,1.9884,1.969,2.0094,2.0064,1.972,2.0602,2.0902,2.0752,2.141,2.1799,0.0,2.1994,2.2099,2.2233,2.2054,2.1994,2.1904,2.1246,2.0887,2.0647,0.0,0.0,0.0,0.0,0.0,0.0,1.2448,1.3741,1.4222,1.2358,1.2875,1.3361,1.3306,1.443,1.5335,1.566,1.5682,0.0,0.0,0.0,0.0,0.0,0.0,0.0,0.0,0.0,0.0,0.0,0.0,0.0,0.0,0.0,0.0,0.0,0.0,0.0,0.0,0.0,0.0,0.0,0.0,0.0,0.0,0.0,0.0,0.0,0.0,0.0,0.0,0.0,0.0,0.0,0.0,0.0,0.0,0.0,1.9288,1.859,1.852,1.7721,1.6558,1.4932,1.4046,1.3736,0.0,0.0,1.7492,1.9571,2.106,2.2224,2.2961,2.3759,2.4363,2.4481,2.5042,0.0,0.0,0.0,0.0,0.0,0.0,0.0,0.0,2.3755,2.2398,2.1739,2.168,0.0,2.168,2.168,2.1066,1.9735,1.969,1.969,1.969,2.0363,2.0363,1.9741,2.1036,2.0976,1.9735,2.1066,2.1335,2.0752,2.141,2.2069,0.0,2.2709,2.3026,2.352,2.2906,2.2709,2.2634,2.1934,2.1276,2.0722,0.0,0.0,0.0,0.0,0.0,0.0,0.0,1.4157,1.4067,1.2674,1.2386,1.2555,1.3243,1.4047,1.4856,1.5696,1.5937,0.0,0.0,0.0,0.0,0.0,0.0,0.0,0.0,0.0,0.0,1.4188,1.5412,0.0,0.0,0.0,0.0,0.0,0.0,0.0,0.0,0.0,0.0,0.0,0.0,0.0,0.0,0.0,0.0,0.0,0.0,0.0,0.0,0.0,0.0,0.0,0.0,0.0,0.0,2.0049,1.9431,1.8462,1.7752,1.7678,1.7513,1.6221,1.5983,1.599,1.584,0.0,1.877,1.9781,2.1376,2.2705,2.2993,2.4025,2.4881,2.5006,2.5941,0.0,0.0,0.0,0.0,0.0,0.0,0.0,0.0,0.0,2.2634,2.2383,2.1949,2.1695,2.1695,2.1695,2.15,2.1066,2.1066,2.0842,2.0393,2.0602,2.0363,1.969,2.0587,2.0797,2.0438,2.1754,2.2248,2.2084,2.2727,2.3116,2.331,2.331,2.343,2.358,2.3385,2.331,2.3236,2.2592,2.2233,2.1994,0.0,0.0,0.0,0.0,0.0,0.0,0.0,1.4456,1.4212,1.2918,1.2746,1.2883,1.3234,1.413,1.5039,1.5875,1.6466,0.0,0.0,0.0,0.0,0.0,0.0,0.0,0.0,0.0,1.5161,1.4921,1.5919,1.6343,1.6234,1.6786,0.0,0.0,0.0,0.0,0.0,0.0,0.0,0.0,0.0,0.0,2.1969,0.0,0.0,0.0,0.0,0.0,0.0,0.0,0.0,0.0,0.0,0.0,0.0,0.0,1.9293,1.8902,0.0,1.7987,1.8005,1.7117,1.6989,0.0,0.0,0.0,1.975,2.0217,2.1661,2.2929,2.3284,2.4292,2.5184,2.5621,0.0,0.0,0.0,0.0,0.0,0.0,0.0,0.0,0.0,2.3363,2.3026,2.3026,2.2637,2.2413,2.2413,2.2413,2.2413,2.2413,2.1949,2.138,2.0722,2.0961,2.0737,2.0094,2.1006,2.1321,2.1126,2.2428,2.2906,2.2753,2.3325,2.3595,0.0,2.3595,2.3595,2.3595,2.3595,2.346,2.3236,2.3071,2.2727,2.2248,0.0,0.0,0.0,0.0,0.0,0.0,0.0,1.4635,1.4564,1.3081,1.3679,1.4018,1.3335,1.4543,1.5621,1.6192,0.0,0.0,0.0,0.0,0.0,0.0,0.0,0.0,0.0,1.5159,1.5487,1.6533,1.6803,1.6778,1.6421,1.7588,1.8115,1.8036,0.0,0.0,0.0,0.0,0.0,0.0,2.0978,2.1351,0.0,0.0,0.0,0.0,0.0,0.0,0.0,0.0,0.0,0.0,0.0,0.0,0.0,0.0,0.0,0.0,0.0,1.8652,1.8116,1.7686,1.7361,1.7225,0.0,0.0,0.0,0.0,2.1827,2.2962,2.3759,2.4527,2.5305,2.626,0.0,0.0,0.0,0.0,0.0,0.0,0.0,0.0,2.4343,2.3937,2.3655,2.3595,2.3595,2.3595,2.3595,2.3595,2.3595,2.3595,2.2443,2.1515,2.0857,2.1455,2.144,2.0797,2.2069,2.2353,2.1799,2.3041,2.3281,0.0,2.3355,2.3595,2.3595,2.3595,2.3595,2.3595,2.355,2.3176,2.2742,2.3266,2.2712,2.1695,0.0,0.0,0.0,0.0,0.0,0.0,0.0,0.0,0.0,0.0,1.3722,1.3793,1.3736,1.4318,1.5194,0.0,0.0,0.0,0.0,0.0,0.0,0.0,0.0,0.0,0.0,1.6557,1.6856,1.6807,1.7322,1.7145,1.6331,1.6527,1.7,1.767,1.6697,1.7295,1.9039,0.0,0.0,0.0,2.1838,2.2112,0.0,0.0,0.0,0.0,2.1698,2.094,0.0,0.0,0.0,0.0,0.0,0.0,0.0,0.0,1.9573,2.0061,1.9715,0.0,1.8731,1.9021,1.8793,1.859,0.0,0.0,0.0,0.0,0.0,2.3015,2.3831,2.4576,2.5588,0.0,0.0,0.0,0.0,0.0,0.0,0.0,2.5654,2.4834,2.3615,2.4033,2.4163,2.364,2.3595,2.3595,2.3595,2.3595,2.3595,2.3595,2.331,2.2862,2.2218,2.2368,2.2113,2.147,2.2278,2.2634,2.2473,2.3251,2.352,2.3385,2.3535,2.3595,2.3595,2.3595,2.3595,2.355,2.3071,2.2802,2.2679,2.2278,2.1964,2.1695,0.0,0.0,0.0,0.0,0.0,0.0,0.0,0.0,0.0,0.0,0.0,0.0,0.0,0.0,0.0,0.0,0.0,0.0,0.0,0.0,0.0,0.0,0.0,0.0,0.0,1.7183,1.7474,1.7741,1.7604,1.7151,1.6423,1.6145,1.6593,1.7602,1.7913,1.8592,1.9517,2.0372,2.1253,2.2101,2.2198,0.0,0.0,0.0,0.0,0.0,2.1608,2.0781,0.0,1.9108,1.8248,1.7609,0.0,0.0,0.0,0.0,1.9399,1.9877,1.9871,1.9717,1.9642,1.9939,1.9962,1.9935,2.013,0.0,0.0,0.0,0.0,0.0,2.4603,0.0,0.0,0.0,0.0,0.0,0.0,0.0,0.0,0.0,2.561,2.4954,0.0,2.4101,2.4343,2.3655,2.3595,2.3595,2.3595,2.3595,2.3595,2.3595,2.3595,2.3295,2.2724,2.2724,2.2544,2.2143,2.2544,2.2873,2.3116,2.3445,2.3595,2.3595,2.3595,2.3595,2.3595,2.3595,2.343,2.3131,2.2843,2.2488,2.2188,2.1829,2.1695,2.165,0.0,0.0,0.0,0.0,0.0,0.0,0.0,0.0,0.0,0.0,0.0,0.0,0.0,0.0,0.0,0.0,0.0,0.0,0.0,0.0,0.0,0.0,0.0,1.7462,1.7733,1.7461,1.7714,1.8564,1.7633,1.696,1.6475,1.6047,1.6428,1.7513,1.9418,2.0192,2.0166,2.1122,2.1794,2.2276,2.2332,0.0,0.0,0.0,0.0,0.0,0.0,0.0,0.0,1.9091,1.8239,1.7589,1.7641,0.0,0.0,0.0,0.0,0.0,1.9777,2.0384,2.0873,2.0663,2.0829,2.1086,0.0,0.0,0.0,0.0,0.0,0.0,0.0,0.0,0.0,0.0,0.0,0.0,0.0,0.0,0.0,2.6005,2.5741,0.0,2.3814,2.4313,2.4448,2.3655,2.3595,2.3595,2.3595,2.3595,2.3595,2.3595,2.3595,2.334,2.2817,2.2858,2.2858,2.2858,2.2858,2.3101,2.3595,2.3595,2.3595,2.3595,2.3595,0.0,2.3595,2.3595,2.3236,2.2709,2.2604,2.2128,2.153,2.1425,2.138,2.1321,0.0,0.0,0.0,0.0,0.0,0.0,0.0,0.0,0.0,0.0,0.0,0.0,0.0,0.0,0.0,0.0,0.0,0.0,0.0,0.0,0.0,0.0,1.8389,1.7818,1.7538,1.7715,1.7861,1.8031,1.7417,1.6741,1.5991,1.571,1.5965,1.6749,1.8404,1.9513,2.0164,2.115,2.1969,2.2525,2.2605,0.0,0.0,0.0,0.0,0.0,0.0,0.0,0.0,1.8918,1.8119,1.7512,1.7536,0.0,0.0,0.0,0.0,0.0,1.9551,2.1306,2.2668,2.1404,2.1397,2.1711,0.0,0.0,0.0,0.0,0.0,0.0,0.0,0.0,0.0,0.0,0.0,0.0,0.0,0.0,3.019,2.7794,0.0,2.6421,2.4307,2.4912,2.4941,2.3684,2.3595,2.3595,2.3595,2.3595,2.3595,2.3595,2.3595,2.355,2.346,2.346,2.346,2.346,2.346,2.3505,2.3595,2.3595,2.3595,2.3595,0.0,2.3595,2.3595,2.3595,2.3236,2.2664,2.2069,2.144,2.0797,2.0213,1.9989,2.0064,0.0,0.0,0.0,0.0,0.0,0.0,0.0,0.0,0.0,0.0,0.0,0.0,0.0,0.0,0.0,0.0,0.0,0.0,0.0,0.0,0.0,0.0,1.999,1.9528,1.9245,1.8949,1.8733,1.8596,1.7493,1.6538,1.5779,1.5889,1.6398,1.7335,1.8816,1.9933,2.0697,2.1523,2.2141,2.2552,0.0,0.0,0.0,0.0,0.0,0.0,0.0,0.0,0.0,0.0,1.8451,1.8188,1.7746,0.0,0.0,0.0,0.0,0.0,1.9614,2.0833,2.216,2.3502,2.4567,0.0,0.0,0.0,0.0,0.0,0.0,0.0,0.0,0.0,0.0,0.0,0.0,3.2632,3.2648,3.1579,2.9978,0.0,0.0,2.6625,2.4622,2.4807,2.4672,2.367,2.3595,2.3759,2.4133,2.3804,2.3774,2.4148,2.3789,2.3595,2.3595,2.3595,2.3595,2.3595,2.3595,2.3595,2.3595,2.3595,2.3595,2.3595,0.0,2.3595,2.3595,2.3595,2.3026,2.2113,2.1814,2.1515,2.1246,2.1291,2.0617,1.9794,0.0,0.0,0.0,0.0,0.0,0.0,0.0,0.0,0.0,0.0,0.0,0.0,0.0,0.0,0.0,0.0,0.0,0.0,0.0,0.0,2.1633,2.1785,2.1523,2.1105,2.0566,1.9797,1.9224,1.8925,1.7494,1.6416,1.5669,1.5913,1.6703,1.7964,1.9241,2.0313,2.118,2.1878,2.2315,2.2569,0.0,0.0,0.0,0.0,0.0,0.0,0.0,0.0,0.0,0.0,0.0,0.0,0.0,0.0,0.0,1.8093,1.8297,1.8813,2.0113,2.0973,2.2253,0.0,0.0,0.0,0.0,0.0,0.0,0.0,0.0,0.0,0.0,0.0,0.0,0.0,3.4252,3.2596,3.3271,3.1516,2.9591,2.7997,2.7533,2.6678,2.5017,2.4806,2.4582,2.3879,2.3684,2.3969,2.4761,2.4208,2.4148,2.4791,2.4343,2.4073,2.4073,2.3909,2.3759,2.3595,2.3595,2.3595,2.3595,2.3595,2.3595,2.3595,2.3595,2.3595,2.3595,2.3445,2.2802,2.1889,2.159,2.1365,2.1276,2.1824,2.1111,2.0019,0.0,0.0,0.0,0.0,0.0,0.0,0.0,0.0,0.0,0.0,0.0,0.0,0.0,0.0,0.0,0.0,0.0,0.0,0.0,0.0,2.2712,2.2371,2.2425,2.1744,2.0191,1.9234,1.854,1.8091,1.7223,1.6376,1.5595,1.5387,1.6257,1.8028,1.8879,2.0004,2.1334,2.2073,2.2515,2.2685,2.2685,0.0,0.0,0.0,0.0,0.0,0.0,0.0,0.0,0.0,0.0,0.0,0.0,0.0,1.903,1.9081,1.9711,2.0587,2.1385,2.3005,2.4792,2.5983,0.0,0.0,0.0,0.0,0.0,0.0,0.0,0.0,0.0,0.0,0.0,0.0,3.2786,3.2956,3.3973,0.0,3.0167,2.9342,2.8261,2.7015,2.5659,2.554,2.527,2.4567,2.3969,2.4163,2.5465,2.4911,2.4852,2.5525,2.5495,2.5465,2.5465,2.4852,2.4238,2.3595,2.3595,2.3595,2.3595,2.3595,2.3595,2.3595,2.3595,2.3595,2.355,2.2981,2.2724,2.2488,2.1261,2.0393,1.9839,1.9884,2.0213,2.0737,0.0,0.0,0.0,0.0,0.0,0.0,0.0,0.0,0.0,0.0,0.0,0.0,0.0,0.0,0.0,0.0,0.0,0.0,0.0,0.0,2.2579,2.2598,2.2129,2.1727,2.1462,2.005,1.8808,1.7759,1.6698,1.6082,1.5937,1.62,1.7231,1.8891,1.9716,2.0671,2.1702,2.2287,2.2579,2.2712,2.2712,2.2712,0.0,0.0,0.0,0.0,0.0,0.0,0.0,0.0,1.8875,1.8642,1.8202,1.8628,1.9275,1.9184,1.9809,2.0732,2.1592,2.3253,2.5008,0.0,0.0,0.0,0.0,0.0,0.0,0.0,0.0,0.0,0.0,0.0,0.0,3.3213,3.374,3.3842,3.2613,3.1626,3.0493,2.8998,2.8077,2.7204,2.6306,2.5854,2.551,2.5255,2.5001,2.5255,2.6168,2.56,2.554,2.6198,2.542,2.5001,2.5001,2.4328,2.3864,2.3595,2.3595,2.3595,2.3595,2.3595,2.3595,2.3595,2.3595,2.3595,2.358,2.334,2.3026,2.2664,2.2128,2.1515,2.1036,2.1829,2.1784,2.1425,0.0,0.0,0.0,0.0,0.0,0.0,0.0,0.0,0.0,0.0,0.0,0.0,0.0,0.0,0.0,0.0,0.0,0.0,0.0,2.1429,2.2046,2.2422,2.1626,2.1411,2.1935,2.0219,1.8829,1.7813,1.6305,1.5792,1.6244,1.6878,1.8072,1.9723,2.0384,2.121,2.2051,2.2224,2.2479,2.2712,2.2712,2.2712,0.0,0.0,0.0,0.0,0.0,0.0,0.0,0.0,1.9585,1.9528,1.9078,1.9463,2.0085,2.0021,2.083,2.1925,2.257,2.3898,2.5362,0.0,0.0,0.0,0.0,0.0,0.0,0.0,0.0,0.0,0.0,0.0,0.0,0.0,3.3424,3.3464,3.1653,3.0887,2.998,2.8653,2.7951,2.7298,2.6651,2.6183,2.5914,2.5914,2.5734,2.5989,2.6856,2.6273,2.6123,2.6572,2.5719,2.5151,2.4941,2.4268,2.3924,2.3924,2.3699,2.3595,2.3595,2.3595,2.3595,2.3595,2.3595,2.3595,2.3595,2.3385,2.2936,2.2424,2.2634,2.2278,2.1799,2.2682,2.2577,2.2069,0.0,0.0,0.0,0.0,0.0,0.0,0.0,0.0,0.0,0.0,0.0,0.0,0.0,0.0,0.0,0.0,0.0,0.0,0.0,2.0537,2.1255,2.1843,2.1113,2.083,2.1181,1.9429,1.8419,1.8268,1.6109,1.5542,1.6529,1.7279,1.8588,0.0,0.0,0.0,2.2354,2.1892,2.2073,2.2694,2.2694,2.2685,2.2685,0.0,0.0,0.0,0.0,0.0,0.0,0.0,2.0512,2.0512,2.065,2.1097,2.1633,2.1836,2.3122,2.4477,2.4568,2.5236,0.0,0.0,0.0,0.0,0.0,0.0,0.0,0.0,0.0,0.0,0.0,0.0,0.0,3.1393,3.139,3.1391,3.1391,2.9701,2.8511,2.8511,2.7944,2.737,2.6662,2.6602,2.6602,2.6602,2.5989,2.6198,2.755,2.6961,2.6602,2.6587,2.6587,2.6258,2.5615,2.4956,2.4567,2.4567,2.3924,2.3595,2.3595,2.3595,2.3595,2.3595,2.3595,2.3595,2.355,2.2936,2.2308,2.1784,2.2428,2.2278,2.1724,2.1724,2.2128,2.2724,0.0,0.0,0.0,0.0,0.0,0.0,0.0,0.0,0.0,0.0,0.0,0.0,0.0,0.0,0.0,0.0,0.0,0.0,0.0,1.9524,1.9987,2.0144,1.9722,1.9672,2.0066,1.8804,1.7829,1.7173,1.6751,1.6768,1.725,1.8735,0.0,1.9764,0.0,0.0,2.1118,2.104,2.1381,2.2012,2.2012,2.2272,2.2712,0.0,0.0,0.0,0.0,0.0,0.0,0.0,0.0,0.0,2.0465,2.097,2.1558,2.1658,2.2094,2.267,2.3362,2.4777,0.0,0.0,0.0,0.0,0.0,0.0,0.0,0.0,0.0,0.0,0.0,0.0,0.0,3.0072,3.0396,3.0438,2.9499,2.8857,2.8319,2.791,2.771,2.755,2.7305,2.7275,2.7275,2.7275,2.7096,2.7156,2.7595,2.738,2.7066,2.6602,2.6138,2.5585,2.4881,2.4238,2.3909,2.3894,2.3699,2.3595,2.3595,2.3595,2.3595,2.3595,2.3595,2.3595,2.3595,2.34,2.3206,2.3056,2.3251,2.3206,2.3041,2.3041,2.3161,2.3283,0.0,0.0,0.0,0.0,0.0,0.0,0.0,0.0,0.0,0.0,1.7043,0.0,0.0,0.0,0.0,0.0,0.0,0.0,0.0,0.0,1.8869,1.8954,1.8723,1.8689,1.8929,1.8405,1.7975,1.7618,1.7433,1.7513,1.7882,0.0,1.9854,1.9774,0.0,2.0697,2.0705,2.0346,2.0627,2.1222,2.1174,2.1616,2.2263,0.0,0.0,0.0,0.0,0.0,0.0,0.0,0.0,0.0,2.2074,2.2324,2.2591,2.3066,2.3045,2.3245,2.4895,0.0,0.0,0.0,0.0,0.0,0.0,0.0,0.0,0.0,0.0,0.0,0.0,3.11,0.0,2.9848,2.9694,2.9423,2.8605,2.8286,2.7902,2.7265,2.746,2.752,2.72,2.746,2.7625,2.7625,2.7625,2.7625,2.7625,2.7625,2.726,2.6617,2.5959,2.53,2.4597,2.3939,2.3595,2.3595,2.3879,2.4014,2.3999,2.3729,2.3595,2.3595,2.3595,2.3759,2.4014,2.4014,2.4014,2.4014,2.4014,2.3834,2.3595,2.3595,2.3595,2.3551,0.0,0.0,1.5827,1.5885,0.0,0.0,0.0,0.0,0.0,0.0,1.7337,1.7612,0.0,0.0,0.0,0.0,0.0,0.0,0.0,0.0,1.789,1.8208,1.8016,1.7883,1.785,1.8207,1.8625,1.9043,1.8143,1.7988,0.0,0.0,1.9757,1.9925,0.0,2.0103,2.0608,1.9755,1.9765,2.0385,2.0315,2.0773,2.148,2.1506,0.0,0.0,0.0,0.0,0.0,0.0,0.0,0.0,2.466,2.4516,2.4259,2.5191,2.507,2.5195,2.7718,0.0,0.0,0.0,0.0,0.0,0.0,0.0,0.0,0.0,0.0,0.0,0.0,3.0858,3.0192,3.0067,2.9132,2.84,2.8338,2.7913,2.735,2.6752,2.72,2.7335,2.6737,2.7215,2.7625,2.7625,2.7625,2.7625,2.7625,2.7625,2.7245,2.6527,2.5914,2.527,2.4537,2.3984,2.3684,2.3699,2.4388,2.4672,2.4642,2.3999,2.3655,2.3595,2.3595,2.3954,2.4492,2.4492,2.4522,2.4582,2.4582,2.4238,2.3684,2.3684,2.3655,2.3595,0.0,0.0,1.6052,1.6382,0.0,0.0,0.0,0.0,0.0,0.0,0.0,0.0,0.0,0.0,0.0,0.0,0.0,0.0,0.0,0.0,1.7491,1.7519,1.727,1.7209,1.7362,1.8095,1.881,1.9531,1.9453,0.0,0.0,0.0,0.0,1.8714,0.0,1.93,1.8839,1.8593,1.8866,1.9476,1.9516,1.9998,2.0732,2.1342,2.1644,0.0,0.0,0.0,0.0,0.0,0.0,0.0,2.4667,2.4734,2.466,2.4344,2.4366,2.4668,0.0,2.6489,0.0,0.0,0.0,0.0,0.0,0.0,0.0,0.0,0.0,3.0909,3.0657,3.0048,2.9259,2.8255,2.7917,2.7629,2.7101,2.7345,2.7565,2.743,2.7535,2.7565,2.743,2.7535,2.7625,2.7625,2.7625,2.7625,2.7625,2.7625,2.7036,2.5854,2.5689,2.5031,2.3834,2.4208,2.4358,2.4418,2.5076,2.539,2.5375,2.4717,2.4118,2.3595,2.3595,2.3684,2.3819,2.3819,2.4148,2.4582,2.4582,2.4492,2.4358,2.4358,2.4059,2.3508,0.0,0.0,0.0,0.0,0.0,0.0,0.0,0.0,0.0,0.0,0.0,0.0,0.0,0.0,0.0,0.0,1.7361,1.7256,1.71,1.724,1.7387,1.7536,1.7311,1.7527,1.8283,1.8855,1.962,2.0508,0.0,0.0,0.0,0.0,0.0,1.8197,0.0,1.8606,1.8243,1.8215,1.8353,1.863,1.863,1.9053,1.9757,2.0508,2.1037,2.1489,2.2507,0.0,0.0,0.0,0.0,0.0,0.0,0.0,2.5552,2.5629,2.5257,2.5191,0.0,0.0,0.0,0.0,0.0,0.0,0.0,0.0,0.0,0.0,3.0028,3.0185,2.9929,2.9118,2.8385,2.8047,2.7491,2.7096,2.7066,2.74,2.7505,2.7141,2.743,2.744,2.7126,2.738,2.7625,2.7625,2.7625,2.7625,2.7625,2.7625,2.7111,2.6108,2.6078,2.5585,2.4567,2.4911,2.5091,2.5106,2.5764,2.6078,2.6063,2.539,2.4896,2.4537,2.4223,2.4268,2.4537,2.4223,2.4492,2.5091,2.5091,2.5091,2.5091,2.5091,2.4672,2.4044,0.0,0.0,0.0,0.0,0.0,0.0,0.0,0.0,0.0,0.0,0.0,0.0,0.0,0.0,1.7313,0.0,0.0,0.0,1.7039,1.7149,1.7441,1.7893,1.78,1.8318,1.9574,1.9945,2.0557,0.0,0.0,0.0,0.0,0.0,0.0,1.7983,0.0,1.8258,1.8336,1.8452,1.8437,1.8331,1.8268,1.8579,1.9157,1.9833,2.0524,2.1336,2.2673,2.3325,2.3739,2.4927,0.0,0.0,0.0,0.0,2.6476,2.7113,2.651,2.6201,0.0,0.0,0.0,0.0,0.0,0.0,0.0,0.0,0.0,2.9303,2.9248,2.9235,2.9249,2.8386,2.7752,2.7966,2.7288,2.6871,2.7186,2.7475,2.7365,2.6826,2.7245,2.7365,2.6811,2.7245,2.7625,2.7625,2.7625,2.7625,2.7625,2.7625,2.726,2.6617,2.6587,2.6273,2.5615,2.5719,2.5779,2.5779,2.6437,2.6752,2.6737,2.6198,2.5824,2.5585,2.5031,2.5046,2.5405,2.4971,2.5121,2.5615,2.5734,2.5779,2.5779,2.5779,2.536,2.4746,0.0,0.0,0.0,0.0,0.0,0.0,0.0,0.0,0.0,0.0,1.7306,0.0,0.0,1.7395,1.7395,1.7395,1.7371,1.7298,1.719,0.0,0.0,1.8383,1.8552,1.906,2.0009,2.0673,2.1167,0.0,0.0,0.0,0.0,0.0,0.0,1.7939,0.0,0.0,1.8839,1.9444,1.9664,1.9639,1.9639,1.9706,1.9849,2.0598,2.0881,0.0,0.0,2.3508,2.4305,2.5112,2.5899,0.0,0.0,0.0,2.6877,2.6344,2.6757,2.7355,0.0,0.0,0.0,0.0,0.0,0.0,0.0,0.0,3.0668,0.0,2.9009,2.9204,2.8717,2.8481,2.7827,2.627,2.6801,2.7066,2.6019,2.6856,2.7595,2.7505,2.7565,2.758,2.7505,2.7565,2.7625,2.7625,2.7625,2.7625,2.7625,2.7625,2.726,2.6617,2.6587,2.6273,2.5615,2.6183,2.6452,2.6467,2.7126,2.749,2.749,2.735,2.6692,2.5615,2.551,2.5211,2.4746,2.527,2.554,2.5674,2.6243,2.6452,2.6452,2.6452,2.6033,2.548,0.0,0.0,0.0,0.0,0.0,0.0,0.0,0.0,0.0,0.0,0.0,1.7371,1.7443,1.7395,1.7346,1.7346,1.724,1.7199,1.7314,1.7401,1.7812,1.8634,1.9102,1.979,2.0704,2.1353,0.0,0.0,0.0,0.0,0.0,2.0235,1.9369,0.0,0.0,0.0,0.0,0.0,1.9865,1.9796,1.9796,1.9648,1.9542,0.0,0.0,0.0,0.0,0.0,0.0,2.5915,2.6454,2.6859,2.6876,0.0,0.0,0.0,2.6749,0.0,2.7314,0.0,0.0,0.0,0.0,0.0,0.0,0.0,3.004,2.8808,2.9062,2.9177,2.8179,2.7689,2.7273,2.6786,2.6572,2.6527,2.6692,2.6886,2.7156,2.758,2.7625,2.7625,2.7625,2.7625,2.7625,2.7625,2.7625,2.7625,2.7625,2.7625,2.726,2.6617,2.6946,2.6826,2.6168,2.6811,2.7141,2.7141,2.749,2.7625,2.7625,2.7625,2.726,2.6662,2.5929,2.545,2.5136,2.4672,2.4717,2.5136,2.5779,2.6273,2.6587,2.6587,2.6408,2.6048,0.0,0.0,0.0,0.0,0.0,0.0,0.0,0.0,0.0,0.0,0.0,1.7443,1.7474,0.0,0.0,0.0,1.7199,1.7208,1.7425,1.7526,1.7977,1.8812,1.9546,2.0382,2.1318,2.1925,0.0,0.0,0.0,0.0,2.0357,2.0357,1.9463,0.0,1.8518,0.0,0.0,0.0,0.0,0.0,2.0091,2.0019,0.0,0.0,0.0,0.0,0.0,0.0,0.0,0.0,0.0,0.0,0.0,0.0,0.0,0.0,0.0,0.0,0.0,0.0,0.0,0.0,0.0,0.0,0.0,0.0,2.9894,0.0,2.9101,2.9026,2.8023,2.744,2.7156,2.7305,2.6632,2.6393,2.72,2.7036,2.7021,2.7565,2.7625,2.7625,2.7625,2.7625,2.7625,2.7625,2.7625,2.7625,2.7625,2.7625,2.735,2.6856,2.737,2.7335,2.6841,2.732,2.7625,2.7625,2.7625,2.7625,2.7625,2.7625,2.7625,2.7515,2.6527,2.5914,2.554,2.4702,2.4462,2.4642,2.536,2.6019,2.6587,2.6587,2.6587,2.6452,0.0,0.0,0.0,0.0,0.0,0.0,0.0,0.0,0.0,0.0,0.0,1.7491,1.7515,1.7474,1.7491,1.7491,1.7491,1.7474,1.7489,1.7726,1.8206,1.8954,1.9816,0.0,0.0,0.0,0.0,0.0,0.0,0.0,2.0489,2.0347,1.9487,1.8017,1.8566,1.9152,1.9788,0.0,0.0,0.0,2.115,2.1486,0.0,0.0,0.0,0.0,0.0,0.0,0.0,0.0,0.0,0.0,0.0,0.0,0.0,0.0,0.0,0.0,0.0,0.0,0.0,0.0,0.0,0.0,0.0,0.0,3.1136,2.9816,2.9071,2.8622,2.8562,2.8517,2.8083,2.6841,2.7111,2.7275,2.6722,2.7156,2.758,2.7625,2.7625,2.7625,2.7625,2.7625,2.7625,2.7625,2.7625,2.7625,2.7625,2.7625,2.761,2.7565,2.761,2.761,2.7565,2.761,2.7625,2.7625,2.7625,2.7625,2.7625,2.7625,2.7625,2.7625,2.755,2.6752,2.5644,2.6198,2.5719,2.4642,2.536,2.6019,2.6587,2.6587,2.6587,2.6572,0.0,0.0,0.0,0.0,0.0,0.0,0.0,0.0,0.0,0.0,0.0,0.0,0.0,1.7515,1.7515,1.7515,1.7498,1.7559,1.7766,1.7839,1.8063,1.8425,1.967,0.0,0.0,0.0,0.0,0.0,0.0,2.1994,2.0824,2.0323,2.001,1.979,1.9546,1.9303,1.9194,2.091,0.0,0.0,2.1632,2.1781,0.0,0.0,0.0,0.0,0.0,0.0,0.0,0.0,0.0,0.0,0.0,0.0,0.0,0.0,0.0,0.0,0.0,0.0,0.0,0.0,0.0,2.9666,3.0243,3.098,3.1308,3.0368,2.9983,2.9579,2.8757,2.8233,2.7784,2.7305,2.7066,2.7006,2.72,2.7066,2.7096,2.7565,2.7625,2.7625,2.7625,2.7625,2.7625,2.7625,2.7625,2.7625,2.7625,2.7625,2.7625,2.7625,2.7625,2.7625,2.7625,2.7625,2.7625,2.7625,2.7625,2.7625,2.7625,2.7625,2.7625,2.7625,2.7625,2.7066,2.6228,2.6033,2.5435,2.4642,2.536,2.5495,2.533,2.533,2.56,2.5899,0.0,0.0,0.0,0.0,0.0,0.0,0.0,0.0,0.0,0.0,0.0,0.0,0.0,0.0,1.7576,1.7576,1.7536,1.7612,1.7816,1.7839,1.8002,1.8391,1.9647,0.0,0.0,0.0,0.0,0.0,0.0,0.0,0.0,0.0,2.0387,2.0504,2.021,0.0,0.0,0.0,0.0,2.075,0.0,0.0,2.1874,0.0,0.0,0.0,0.0,0.0,0.0,0.0,0.0,0.0,0.0,0.0,0.0,0.0,0.0,0.0,0.0,0.0,0.0,0.0,0.0,2.9643,3.0517,0.0,3.1736,3.1282,3.0975,3.0492,2.9169,2.8368,2.7844,2.7655,2.72,2.7066,2.7565,2.72,2.7081,2.7565,2.7625,2.7625,2.7625,2.7625,2.7625,2.7625,2.7625,2.7625,2.7625,2.7625,2.7625,2.7625,2.7625,2.7625,2.7625,2.7625,2.7625,2.7625,2.7625,2.7625,2.7625,2.7625,2.7625,2.7625,2.7625,2.72,2.6557,2.6123,2.5555,2.5001,2.5435,2.548,2.5285,2.5285,2.542,2.557,0.0,0.0,0.0,0.0,0.0,0.0,0.0,0.0,0.0,0.0,0.0,0.0,0.0,0.0,0.0,1.771,1.7675,1.7669,1.7721,1.7737,1.8143,1.8988,1.9811,0.0,0.0,0.0,0.0,0.0,0.0,0.0,0.0,0.0,2.0622,0.0,2.05,2.0345,1.9784,0.0,2.0615,2.0347,0.0,2.2419,2.2729,0.0,0.0,0.0,2.4174,2.4969,0.0,0.0,0.0,0.0,0.0,0.0,0.0,0.0,0.0,0.0,0.0,0.0,0.0,0.0,0.0,0.0,3.1242,3.2018,3.2536,3.245,3.1987,3.1166,2.9877,2.9071,2.8412,2.7739,2.767,2.7655,2.7655,2.767,2.7685,2.7685,2.767,2.7655,2.7655,2.7625,2.7625,2.7625,2.764,2.764,2.7625,2.7625,2.7625,2.7625,2.7625,2.7625,2.7625,2.7625,2.7625,2.7625,2.7625,2.7625,2.7625,2.7625,2.7625,2.7625,2.7625,2.72,2.6617,2.6617,2.6228,2.563,2.563,2.6019,2.6557,2.6557,2.6153,2.5704,0.0,0.0,0.0,0.0,0.0,0.0,0.0,0.0,0.0,0.0,0.0,0.0,0.0,0.0,0.0,1.7749,1.8162,1.8416,1.8471,1.8992,1.9428,1.973,2.0458,2.0976,0.0,0.0,0.0,0.0,0.0,0.0,0.0,0.0,0.0,0.0,2.0938,2.07,2.0632,2.1617,0.0,0.0,2.3676,2.4331,0.0,0.0,0.0,0.0,0.0,2.5232,0.0,0.0,2.5832,2.5597,0.0,0.0,0.0,0.0,0.0,0.0,2.6238,0.0,0.0,0.0,0.0,0.0,3.0566,3.1236,3.168,3.1775,3.1276,3.0669,3.0338,2.9729,2.925,2.9056,2.8622,2.8308,2.8308,2.8727,2.9026,2.9026,2.8607,2.8308,2.8308,2.7859,2.7625,2.7625,2.8038,2.8098,2.7655,2.7625,2.7625,2.7625,2.7625,2.7625,2.7625,2.7625,2.7625,2.7625,2.7625,2.7625,2.7625,2.7625,2.7625,2.7625,2.7625,2.747,2.7305,2.7305,2.6916,2.6318,2.6318,2.6138,2.5884,2.5884,2.5764,2.5704,0.0,0.0,0.0,0.0,0.0,0.0,0.0,0.0,0.0,0.0,0.0,0.0,0.0,0.0,0.0,1.7789,1.8346,1.8717,1.879,1.9446,2.0025,2.0449,2.0844,2.1349,0.0,0.0,0.0,0.0,0.0,0.0,0.0,0.0,0.0,0.0,0.0,0.0,0.0,0.0,0.0,0.0,2.4739,0.0,0.0,2.5733,2.635,0.0,0.0,0.0,2.6656,2.6655,2.6073,0.0,0.0,0.0,0.0,0.0,0.0,0.0,0.0,0.0,0.0,0.0,0.0,0.0,3.0458,3.1074,3.1535,3.185,3.1618,3.1213,3.0608,3.0208,2.9879,2.9624,2.9475,2.9295,2.9041,2.934,2.9579,2.9579,2.925,2.9011,2.9011,2.8652,2.8412,2.8412,2.8786,2.8831,2.8442,2.8158,2.8008,2.8008,2.7775,2.7625,2.7625,2.7625,2.7625,2.7625,2.7625,2.7625,2.7625,2.7625,2.7625,2.7625,2.7625,2.7625,2.7625,2.7625,2.735,2.7006,2.7006,2.6767,2.6422,2.6422,2.6258,2.6108,0.0,0.0,1.7595,1.7635,1.7658,0.0,0.0,0.0,0.0,0.0,0.0,0.0,0.0,0.0,0.0,0.0,1.8548,1.8968,1.9018,1.9603,2.0304,2.1143,2.1122,2.1669,2.2939,0.0,0.0,0.0,0.0,0.0,0.0,0.0,0.0,0.0,2.1928,2.2534,0.0,0.0,0.0,2.3406,2.528,2.6,0.0,0.0,2.7036,0.0,2.788,2.7917,2.7802,2.7339,2.6303,0.0,0.0,0.0,0.0,0.0,2.5835,0.0,0.0,0.0,0.0,0.0,0.0,0.0,3.0472,3.1044,3.1505,3.203,3.2205,3.1888,3.0709,3.0507,3.0357,2.9879,3.0313,3.0477,2.9789,2.9744,2.9804,2.9804,2.9729,2.9684,2.9684,2.9624,2.9579,2.9579,2.9579,2.9609,2.9684,2.9071,2.8712,2.8712,2.8038,2.7679,2.7679,2.7655,2.7625,2.7625,2.7625,2.7625,2.7625,2.7625,2.7625,2.7625,2.7625,2.7625,2.7625,2.7625,2.7625,2.7625,2.7625,2.7625,2.7625,2.7625,2.72,2.6782,1.796,1.798,1.8027,1.7939,0.0,0.0,0.0,0.0,0.0,0.0,0.0,0.0,0.0,0.0,0.0,0.0,0.0,2.0475,2.0339,2.1066,2.1532,2.167,2.1641,2.1774,2.2056,2.2607,0.0,0.0,0.0,0.0,0.0,0.0,0.0,0.0,0.0,0.0,0.0,0.0,0.0,2.55,2.6473,0.0,2.6801,2.7592,2.7617,2.7209,2.6928,2.6185,2.5248,0.0,2.4461,2.4395,0.0,0.0,0.0,0.0,0.0,0.0,0.0,0.0,0.0,0.0,0.0,0.0,2.9118,2.9562,2.9827,3.0093,3.0153,3.0277,3.0432,3.0507,3.0642,3.1091,3.1704,3.1704,3.0492,3.0806,3.115,3.115,3.0657,3.0313,3.0313,2.9879,2.9579,2.9579,2.9579,2.9804,3.0298,2.9729,2.9385,2.9385,2.8742,2.8397,2.8397,2.7844,2.7625,2.7625,2.7625,2.7625,2.7625,2.7625,2.7625,2.7625,2.7625,2.7625,2.7625,2.7625,2.7625,2.7625,2.7625,2.7625,2.7625,2.7625,2.7535,2.7395,1.7901,1.7983,1.8087,1.8048,0.0,0.0,0.0,0.0,0.0,0.0,0.0,0.0,0.0,0.0,0.0,0.0,0.0,0.0,0.0,0.0,2.1899,2.184,2.184,2.2189,2.2874,2.3255,2.3619,0.0,0.0,0.0,0.0,0.0,0.0,0.0,0.0,0.0,0.0,0.0,2.6091,2.6951,2.7653,0.0,2.7381,2.8023,2.7875,2.7298,2.6874,2.6213,2.5505,2.5261,2.4943,0.0,0.0,2.5099,2.4879,0.0,2.5347,2.5512,0.0,0.0,0.0,2.7042,0.0,0.0,0.0,2.9219,2.9161,2.9888,2.9804,2.9759,3.0387,3.0507,3.0731,3.1362,3.2078,3.2168,3.1165,3.1884,3.2512,3.2512,3.2213,3.2003,3.2003,3.142,3.0911,3.0582,3.0552,3.0687,3.1001,3.0387,3.0043,3.0043,2.9101,2.8607,2.8607,2.7919,2.7625,2.7625,2.7625,2.7625,2.7625,2.7625,2.7625,2.7625,2.7625,2.7625,2.7625,2.7625,2.7625,2.7625,2.7625,2.7625,2.7625,2.7625,2.7625,2.7625,1.8239,1.8317,1.8395,1.8547,0.0,0.0,0.0,0.0,0.0,0.0,0.0,0.0,0.0,0.0,0.0,0.0,0.0,0.0,0.0,0.0,0.0,2.2209,2.2003,2.2471,2.3654,2.3901,2.4299,2.4895,0.0,0.0,0.0,0.0,0.0,0.0,0.0,0.0,0.0,0.0,0.0,2.7892,0.0,2.8258,2.7587,2.7621,2.7419,2.7031,2.6461,2.6116,2.5964,2.5997,0.0,2.495,2.562,2.5377,0.0,0.0,0.0,0.0,0.0,0.0,0.0,0.0,0.0,2.744,0.0,0.0,0.0,2.9924,2.9849,2.9729,0.0,0.0,0.0,3.124,0.0,0.0,0.0,3.2662,0.0,3.3155,3.3335,3.344,3.332,3.2826,3.2347,3.1943,3.1616,3.1541,3.1719,3.1076,3.0702,3.0702,2.946,2.8786,2.8786,2.7979,2.7625,2.7625,2.7625,2.7625,2.7625,2.7625,2.7625,2.7625,2.7625,2.7625,2.7625,2.7625,2.7625,2.7625,2.7625,2.77,2.7769,2.7769,2.7769,2.7784,1.923,1.9516,1.9727,2.016,0.0,0.0,0.0,0.0,0.0,0.0,0.0,0.0,0.0,0.0,0.0,0.0,0.0,0.0,2.2279,0.0,0.0,0.0,2.2429,2.2101,2.2475,2.349,2.4066,2.4198,0.0,0.0,0.0,0.0,0.0,0.0,2.4684,0.0,0.0,0.0,2.7009,0.0,2.8272,2.7875,0.0,2.5965,2.5431,2.5162,2.4291,2.396,2.3921,0.0,2.3878,2.3921,0.0,2.443,0.0,0.0,0.0,0.0,0.0,0.0,0.0,0.0,2.7067,0.0,0.0,0.0,2.8637,2.8786,0.0,0.0,0.0,0.0,0.0,0.0,0.0,0.0,3.1571,3.2662,3.3066,3.1898,3.2781,3.326,3.2677,3.2557,3.2721,3.323,3.2198,3.1735,3.2362,3.1779,3.1362,3.1362,3.0148,2.9475,2.9475,2.8203,2.7625,2.7625,2.7625,2.7625,2.7625,2.7625,2.7625,2.7625,2.7625,2.7625,2.7625,2.7625,2.7625,2.7625,2.7625,2.7949,2.8487,2.8487,2.8487,2.8562,1.8933,1.9734,2.0642,2.071,0.0,0.0,0.0,0.0,0.0,0.0,0.0,0.0,0.0,0.0,0.0,0.0,0.0,2.2423,0.0,0.0,0.0,0.0,0.0,0.0,0.0,2.3818,2.4363,2.4862,2.5327,0.0,0.0,0.0,0.0,0.0,2.6109,0.0,2.7718,0.0,0.0,0.0,0.0,0.0,0.0,2.6099,2.5217,2.4177,2.4175,2.4193,2.4253,0.0,2.4807,0.0,0.0,0.0,0.0,0.0,0.0,0.0,0.0,0.0,0.0,0.0,0.0,0.0,2.8967,0.0,2.8712,0.0,0.0,0.0,0.0,0.0,0.0,0.0,3.1766,3.2213,0.0,0.0,3.329,3.2736,3.3155,3.338,3.311,3.3425,3.3604,3.3499,3.2632,3.2213,3.2497,3.1884,3.1482,3.1482,3.0612,2.9939,2.9579,2.8652,2.7964,2.7625,2.7625,2.7625,2.7625,2.7625,2.7625,2.7625,2.7625,2.7625,2.7625,2.7625,2.7625,2.7655,2.8008,2.8353,2.8584,2.8444,2.8754,2.9152,1.9826,0.0,0.0,0.0,0.0,0.0,0.0,0.0,0.0,0.0,0.0,0.0,2.2377,2.1807,0.0,0.0,0.0,2.2879,0.0,0.0,2.4148,0.0,0.0,0.0,0.0,0.0,2.4876,2.5528,2.5844,2.6019,0.0,0.0,0.0,0.0,0.0,2.791,2.8851,0.0,0.0,2.8065,2.8744,2.7962,2.6318,2.6212,2.5098,2.367,2.4163,2.4343,2.4418,2.4896,2.5107,0.0,2.5485,0.0,0.0,0.0,0.0,0.0,2.6762,0.0,0.0,0.0,0.0,0.0,0.0,0.0,0.0,0.0,0.0,0.0,0.0,0.0,0.0,0.0,0.0,3.1768,0.0,3.199,0.0,3.2961,3.311,3.3305,3.3484,3.3918,3.4083,3.3784,3.3155,3.2856,3.3036,3.2422,3.1988,3.1809,3.1135,3.0477,2.9834,2.9011,2.8353,2.7859,2.7859,2.7859,2.7859,2.8038,2.8023,2.7859,2.809,2.797,2.7625,2.7784,2.7859,2.7919,2.8607,2.8981,2.9122,2.8949,2.9292,2.9794,2.2923,2.2789,0.0,0.0,0.0,0.0,0.0,0.0,0.0,0.0,0.0,0.0,0.0,0.0,0.0,0.0,0.0,2.3591,2.4131,0.0,2.524,0.0,0.0,0.0,0.0,0.0,0.0,2.588,0.0,0.0,0.0,0.0,0.0,0.0,0.0,2.8049,2.8533,2.8563,2.8834,2.9187,2.8644,2.7684,2.6489,0.0,2.4602,2.3595,2.3625,0.0,0.0,2.3655,2.367,2.3904,2.5172,0.0,0.0,0.0,0.0,0.0,0.0,0.0,0.0,2.7595,0.0,0.0,0.0,0.0,2.9549,0.0,0.0,0.0,0.0,0.0,0.0,0.0,0.0,0.0,0.0,0.0,0.0,0.0,0.0,0.0,0.0,3.3514,3.3784,3.4397,3.3844,3.3739,3.4382,3.3784,3.314,3.2497,3.1839,3.1165,3.0477,2.9235,2.8592,2.8562,2.8562,2.8562,2.8592,2.922,2.916,2.8607,2.9235,2.8771,2.7619,2.8293,2.8562,2.8622,2.9295,2.9909,3.0447,3.0406,3.0477,3.0567,0.0,0.0,0.0,0.0,0.0,0.0,0.0,2.4523,0.0,0.0,0.0,0.0,0.0,0.0,2.3414,0.0,0.0,2.4319,2.559,2.6225,0.0,0.0,0.0,2.7249,0.0,0.0,0.0,0.0,0.0,0.0,2.7826,2.7704,2.7739,0.0,0.0,2.8648,0.0,0.0,0.0,0.0,0.0,2.6716,2.5899,0.0,2.4987,2.4223,2.3759,2.3595,2.3595,2.3595,2.4182,2.4929,2.4808,2.5586,2.6484,2.6335,2.634,2.6408,0.0,0.0,2.6283,2.6864,0.0,0.0,0.0,0.0,0.0,0.0,0.0,0.0,0.0,0.0,0.0,0.0,0.0,0.0,0.0,0.0,3.1409,0.0,0.0,0.0,0.0,0.0,3.3769,3.4427,3.3858,3.3589,3.3814,3.3619,3.2991,3.1898,3.2078,3.1644,3.0507,3.0073,2.9654,2.925,2.925,2.925,2.9265,2.949,2.946,2.9265,2.949,2.9325,2.8921,2.916,2.925,2.931,2.9939,3.0313,3.0496,3.0397,3.0675,3.121,2.336,0.0,0.0,0.0,0.0,0.0,0.0,0.0,0.0,0.0,2.561,0.0,2.5098,0.0,2.466,0.0,2.486,2.5412,2.6654,2.7573,0.0,2.871,2.9412,0.0,0.0,0.0,0.0,0.0,0.0,2.8224,2.9042,2.8338,2.8202,0.0,0.0,2.8691,2.8548,0.0,2.9951,0.0,0.0,2.6692,0.0,0.0,2.5046,2.4208,2.3759,2.3595,2.3638,2.3837,2.4449,2.5144,2.4997,2.5783,2.6599,2.5935,2.5841,2.5913,2.5695,2.55,2.5558,2.6411,2.6901,0.0,2.8382,0.0,0.0,0.0,0.0,0.0,0.0,0.0,0.0,0.0,0.0,0.0,0.0,3.1176,0.0,0.0,0.0,0.0,0.0,0.0,0.0,0.0,0.0,0.0,0.0,3.4203,3.3709,3.2617,3.2766,3.2332,3.1225,3.0746,3.0298,2.9909,2.9909,2.9909,2.9924,3.0163,3.0148,2.9924,3.0163,3.0013,2.9594,2.9819,2.9909,2.9953,3.0357,3.0657,3.0869,3.0749,3.1029,3.1511,2.3199,0.0,0.0,0.0,2.5358,0.0,0.0,0.0,2.5941,0.0,2.6463,2.6276,2.6161,2.6168,2.5911,2.5229,2.5984,0.0,2.7356,2.8554,0.0,0.0,3.0391,3.0558,3.0463,0.0,0.0,0.0,0.0,0.0,2.9892,2.8997,2.8585,0.0,2.8338,0.0,2.8422,2.8999,2.8962,2.8477,2.781,2.7595,2.738,2.6093,2.4792,2.3655,2.361,2.3595,2.3724,2.4241,2.443,2.4672,2.5689,2.5652,2.5335,2.5815,2.5221,2.4529,2.5141,2.4952,2.4896,2.6213,2.6542,2.6901,0.0,0.0,2.9535,0.0,0.0,0.0,0.0,0.0,0.0,0.0,0.0,0.0,0.0,0.0,0.0,0.0,0.0,0.0,0.0,0.0,0.0,0.0,0.0,0.0,0.0,3.5459,3.513,3.4442,3.3829,3.3185,3.2527,3.121,3.0552,3.0552,3.0552,3.0552,3.0567,3.124,3.118,3.0597,3.124,3.0821,2.9729,3.0313,3.0552,3.0552,3.0552,3.0956,3.1482,3.1482,3.1482,3.1571,2.3077,2.5482,2.7431,0.0,2.697,2.6941,0.0,0.0,0.0,0.0,2.6995,2.6794,2.6568,2.625,2.6108,2.6286,2.6198,0.0,0.0,0.0,0.0,3.0106,3.1569,3.2049,3.138,3.1244,0.0,3.0154,0.0,0.0,3.0404,2.966,2.9558,0.0,0.0,0.0,2.845,2.9508,2.9422,2.8535,2.787,2.7275,2.6752,0.0,2.5091,2.4298,2.3789,2.3879,2.4241,2.4348,2.4934,2.5652,2.5924,2.5888,2.5726,2.5486,2.4934,2.4354,2.4134,2.3936,2.4178,2.5525,2.5869,2.6213,2.753,2.8368,0.0,0.0,0.0,0.0,0.0,0.0,0.0,0.0,0.0,0.0,0.0,0.0,0.0,3.0747,0.0,0.0,0.0,0.0,0.0,0.0,0.0,0.0,3.4651,3.4741,3.4442,3.3769,3.3589,3.3185,3.2527,3.1689,3.127,3.127,3.127,3.127,3.127,3.1392,3.1377,3.1285,3.1465,3.1345,3.1046,3.121,3.127,3.127,3.127,3.1375,3.1482,3.1482,3.1482,3.1571,2.5244,0.0,0.0,2.9042,0.0,0.0,2.8532,0.0,0.0,2.7317,2.6874,0.0,2.6791,2.6487,2.6401,2.6691,2.6624,0.0,0.0,0.0,0.0,3.0979,3.2172,3.2535,3.2058,3.1915,0.0,3.1049,0.0,0.0,3.1165,3.0316,3.0125,0.0,0.0,2.9407,0.0,2.9153,2.902,2.8389,2.781,2.735,0.0,2.5974,2.5375,2.4926,2.3954,2.3948,2.4471,2.495,2.5335,2.5689,2.5924,2.5689,2.5259,2.495,2.4471,2.3991,2.3681,2.3595,2.3849,2.4911,2.5181,2.56,2.72,2.7654,2.7627,2.7512,2.7655,2.7491,2.6809,0.0,0.0,0.0,0.0,0.0,0.0,0.0,0.0,0.0,3.0455,0.0,0.0,0.0,0.0,0.0,0.0,0.0,3.3963,3.4322,3.4307,3.3933,3.3918,3.3604,3.2946,3.2287,3.1824,3.1482,3.1482,3.1482,3.1482,3.1482,3.1482,3.1482,3.1482,3.1482,3.1482,3.1482,3.1482,3.1482,3.1482,3.1482,3.1482,3.1482,3.1482,3.1571,0.0,0.0,0.0,0.0,0.0,0.0,0.0,2.8329,0.0,2.7289,0.0,2.6243,2.6808,2.6775,2.6691,2.6691,0.0,2.7751,2.9023,2.9737,3.0645,3.1847,3.2228,3.2382,3.2382,3.2109,0.0,0.0,0.0,0.0,0.0,3.0928,0.0,0.0,0.0,0.0,0.0,2.8513,2.8304,2.8158,2.776,2.7625,2.7475,2.6108,2.5615,2.5435,2.4161,2.3991,2.4536,2.5503,2.554,2.5297,2.5742,2.5221,2.4389,2.4389,2.4032,2.3595,2.3595,2.3595,2.3759,2.4403,2.4582,2.5075,2.6907,2.685,2.65,2.6969,2.6801,2.6121,2.4744,2.6713,0.0,0.0,0.0,0.0,0.0,0.0,0.0,0.0,0.0,0.0,3.0159,2.9878,0.0,0.0,0.0,3.2048,3.3544,3.4083,3.4427,3.4607,3.4442,3.4113,3.3634,3.2796,3.2138,3.1601,3.1511,3.1482,3.1482,3.1482,3.1482,3.1482,3.1482,3.1482,3.1482,3.1482,3.1482,3.1482,3.1482,3.1482,3.1482,3.1571,3.1601,3.1764,0.0,0.0,0.0,0.0,0.0,3.0763,3.0473,2.9141,2.7855,2.7076,2.674,2.6589,2.6725,2.6691,2.6691,2.6691,2.6741,0.0,0.0,0.0,0.0,3.089,3.1463,3.1759,3.1759,3.145,3.1278,0.0,0.0,0.0,0.0,0.0,0.0,0.0,0.0,0.0,2.9109,2.867,0.0,2.771,2.761,2.7625,2.7475,2.6108,2.5615,2.5467,2.4563,2.4307,2.443,2.4632,2.491,2.5221,2.5297,2.491,2.4389,2.4389,2.4032,2.3595,2.3595,2.3595,2.3759,2.4403,2.4582,2.4802,2.5689,2.5741,2.5497,2.4978,2.4807,2.4909,2.5526,2.7456,0.0,0.0,0.0,0.0,0.0,0.0,0.0,0.0,0.0,2.974,0.0,0.0,0.0,0.0,0.0,3.1749,3.4173,3.3903,3.4173,3.5295,3.4247,3.3873,3.4307,3.2572,3.1855,3.2332,3.1735,3.1482,3.1482,3.1482,3.1482,3.1482,3.1482,3.1482,3.1482,3.1482,3.1482,3.1482,3.1482,3.1482,3.1541,3.2138,3.2332,3.2437,0.0,0.0,0.0,0.0,0.0,0.0,0.0,2.998,2.8799,2.7641,2.7742,2.7657,2.6877,2.7097,2.7131,2.6725,2.6691,2.7182,2.8349,2.8687,2.931,3.0425,3.0476,0.0,3.0466,3.0311,3.0385,3.0751,0.0,0.0,0.0,0.0,0.0,0.0,0.0,3.0393,0.0,0.0,2.8528,2.7929,2.771,2.781,2.789,2.655,2.6032,2.5924,2.4802,2.4241,2.4074,2.4632,2.4776,2.4792,2.4792,2.443,2.3991,2.3991,2.3794,2.3595,2.3595,2.3595,2.3684,2.4014,2.3867,2.3873,2.4788,2.4404,2.3986,2.4266,2.4292,2.4798,2.6412,2.7838,2.9005,0.0,0.0,0.0,0.0,0.0,0.0,0.0,0.0,0.0,0.0,0.0,0.0,0.0,0.0,0.0,3.335,3.3484,3.3948,3.4936,3.4681,3.4352,3.3963,3.3021,3.2362,3.2003,3.1616,3.1482,3.1482,3.1482,3.1482,3.1482,3.1482,3.1482,3.1482,3.1482,3.1482,3.1511,3.1855,3.2033,3.2123,3.2781,3.3245,3.3529,0.0,3.3004,0.0,0.0,3.2758,0.0,3.1827,3.1099,3.001,2.8404,2.871,2.8642,2.7454,2.7758,2.7824,2.7232,2.7182,2.7722,2.8945,2.8578,2.8861,3.0058,2.954,2.9225,2.9225,2.9316,2.9657,0.0,0.0,0.0,3.1718,0.0,0.0,0.0,0.0,0.0,2.9689,2.939,2.8841,2.811,2.776,2.7894,2.8181,2.6765,2.6243,2.6132,2.4718,2.3964,2.3709,2.4592,2.4592,2.4225,2.4225,2.3948,2.3595,2.3595,2.3595,2.3595,2.3595,2.3595,2.3595,2.3595,2.3143,2.2951,2.3863,2.3207,2.2719,2.3883,2.4473,2.531,2.7167,2.7885,2.851,2.9465,0.0,0.0,0.0,0.0,0.0,0.0,0.0,0.0,2.9445,3.099,0.0,0.0,0.0,3.1315,3.2647,3.3141,3.3711,3.4457,3.4925,3.4625,3.3499,3.3365,3.2766,3.1676,3.1541,3.1482,3.1482,3.1482,3.1482,3.1482,3.1482,3.1482,3.1482,3.1482,3.1482,3.1541,3.2258,3.2512,3.2617,3.341,3.4038,3.4427,0.0,0.0,0.0,0.0,0.0,3.3539,3.341,3.2642,3.1348,2.9197,2.8977,2.896,2.8825,2.8859,2.8839,2.8808,2.8772,2.8891,2.9178,2.9147,2.9188,2.9464,2.8919,2.8606,2.8606,2.9134,2.9464,0.0,0.0,3.2229,3.2417,0.0,0.0,0.0,3.2049,3.1047,2.9406,2.9406,2.8717,2.766,2.7625,2.761,2.7525,2.6204,2.5693,2.5513,2.4161,2.3638,2.3595,2.3724,2.3724,2.3681,2.3681,2.3638,2.3595,2.3595,2.3595,2.3595,2.3595,2.3595,2.3595,2.3595,2.3143,2.2729,2.2777,2.2598,2.26,2.3329,2.4997,2.6537,2.7331,2.763,2.8092,2.9385,0.0,0.0,0.0,0.0,0.0,0.0,0.0,0.0,0.0,3.1054,3.2073,3.0702,3.1249,3.2208,3.3335,3.2991,3.3276,3.4427,3.4072,3.3727,3.3499,3.2901,3.2542,3.2422,3.1824,3.1482,3.1482,3.1482,3.1482,3.1482,3.1482,3.1482,3.1482,3.1482,3.1482,3.1541,3.2258,3.2512,3.2662,3.3918,3.4427,3.4562,0.0,0.0,0.0,0.0,0.0,0.0,3.4084,3.3482,3.2645,3.1765,3.0869,2.9973,2.9076,2.9397,2.9482,2.9062,2.8682,2.8661,2.9156,2.8909,2.8742,2.8857,2.8995,2.8929,2.8527,2.931,2.9959,0.0,0.0,0.0,0.0,3.3667,3.3835,3.3441,3.3056,3.1845,3.006,3.006,2.9328,2.8091,2.776,2.8027,2.8529,2.7164,2.6719,2.6627,2.5649,2.4805,2.4223,2.4223,2.3939,2.3595,2.3595,2.3595,2.3595,2.3595,2.3595,2.3595,2.3595,2.3595,2.3595,2.3595,2.3143,2.2775,2.3045,2.2829,2.2677,2.3271,2.4721,2.6211,2.735,2.7928,2.8233,2.8404,2.8502,0.0,0.0,0.0,0.0,0.0,0.0,0.0,0.0,3.0739,3.1877,0.0,0.0,3.2826,3.2901,3.3081,3.3576,3.4442,3.4265,3.395,3.3499,3.323,3.2706,3.1928,3.1601,3.1482,3.1482,3.1482,3.1482,3.1482,3.1482,3.1482,3.1482,3.1482,3.1764,3.2183,3.2841,3.335,3.3799,3.4741,3.51,3.513,3.6626,3.5667,3.5084,3.5156,3.4636,3.4321,3.4742,3.4201,3.3711,3.3694,3.2611,3.1444,3.0395,3.0578,3.056,3.004,2.942,2.9225,2.9556,2.9405,2.9278,2.91,2.9746,0.0,2.9642,3.0522,3.1247,3.1803,3.2934,0.0,0.0,3.4731,3.4878,3.4476,3.3724,3.232,3.0507,3.0252,2.9438,2.8189,2.776,2.8125,2.8732,2.7612,2.7195,2.7149,2.6397,2.5485,2.4612,2.4852,2.4462,2.3864,2.367,2.3744,2.3894,2.3894,2.3894,2.3894,2.3894,2.3894,2.3849,2.3655,2.3289,2.304,2.3206,2.2915,2.287,2.3812,2.514,2.6425,2.7434,2.7979,2.8203,2.7919,2.8278,0.0,0.0,2.8038,0.0,0.0,2.8465,2.8883,2.8353,3.0503,0.0,0.0,0.0,3.3713,3.2841,3.3306,3.377,3.4173,3.4445,3.413,3.3215,3.3395,3.2841,3.1482,3.1482,3.1571,3.1824,3.2018,3.1898,3.1482,3.1676,3.1661,3.1497,3.1676,3.2093,3.2602,3.3455,3.4068,3.4562,3.525,3.5504,3.5504,3.6128,3.5505,3.5147,3.5514,3.5588,3.5588,3.5605,3.4962,3.4498,3.449,3.3855,3.3372,3.3355,3.2746,3.2389,3.2373,3.174,3.1114,3.0494,3.113,3.1212,0.0,0.0,3.1832,3.2365,3.2951,3.3488,3.397,0.0,0.0,3.5951,3.6242,3.5983,3.522,3.3945,3.232,3.0475,2.971,2.8732,2.7625,2.7625,2.7625,2.755,2.689,2.6587,2.6497,2.5839,2.5181,2.4686,2.5375,2.5151,2.4448,2.3819,2.4059,2.4567,2.4567,2.4567,2.4567,2.4567,2.4567,2.4403,2.3774,2.3627,2.3519,2.2853,2.2653,2.3145,2.5091,2.66,2.756,2.7625,2.7625,2.785,2.8472,2.8592,2.8607,0.0,2.9146,0.0,2.7775,2.9203,2.958,2.7769,3.047,0.0,0.0,3.3671,3.4956,3.3576,3.3592,3.3668,3.3499,3.4267,3.3982,3.2542,3.317,3.2841,3.1482,3.1482,3.1884,3.2527,3.317,3.2766,3.1511,3.2213,3.2138,3.1526,3.2228,3.2497,3.2647,3.3948,3.4472,3.4562,3.525,3.5504,3.5504,3.7992,3.6953,3.6095,3.5673,3.5622,3.5622,3.5622,3.5419,3.525,3.5233,3.5047,3.4912,3.4912,3.3826,3.29,0.0,3.1835,3.139,0.0,3.1404,3.1467,3.1275,3.2676,3.3322,3.3043,3.4222,3.494,3.5093,3.6155,3.6822,3.7004,3.6681,3.6118,3.5326,3.4538,3.3365,3.1903,3.1678,3.08,2.9548,2.9128,2.8686,2.8158,2.7534,2.726,2.723,2.7021,2.6527,2.6004,2.6213,2.5839,2.5255,2.5031,2.5121,2.53,2.53,2.53,2.53,2.53,2.53,2.5241,2.5031,2.4982,2.4828,2.4177,2.3627,2.3844,2.5845,2.6232,2.6512,2.741,2.7625,2.7799,2.8487,2.8607,2.8607,2.8607,0.0,2.8718,2.8247,2.9154,2.9739,2.9595,3.1773,3.2873,3.2179,3.402,3.4503,3.2977,3.4263,3.4516,3.3514,3.4205,3.434,3.3858,3.4068,3.3724,3.2871,3.2871,3.2976,3.3185,3.3395,3.3021,3.2213,3.2422,3.2392,3.2213,3.2422,3.3036,3.3888,3.4307,3.4756,3.5205,3.5429,3.5504,3.5504,3.8522,3.7524,3.662,3.6146,3.6299,3.6485,3.6485,3.6485,3.6463,3.6463,3.6237,3.6028,3.6051,3.4972,3.3957,3.3258,3.2659,3.227,3.227,3.2536,3.2818,3.3006,3.4358,3.5194,3.5453,3.6131,3.687,3.7667,3.7733,3.7644,3.7377,3.6821,3.6138,3.5385,3.4793,3.3839,3.2576,3.2303,3.1533,3.0497,2.984,2.9169,2.8519,2.8372,2.806,2.7655,2.7874,2.7365,2.6632,2.6871,2.6512,2.6019,2.6273,2.6348,2.6303,2.6048,2.5974,2.5974,2.5974,2.5974,2.5914,2.5674,2.5794,2.5809,2.5151,2.4852,2.5076,2.6333,2.6452,2.6602,2.7475,2.7784,2.8098,2.8532,2.8996,2.9235,2.9011,2.9426,2.9617,0.0,0.0,3.1112,3.1325,3.3185,3.4217,3.3978,3.5054,3.5133,3.3834,3.4787,3.4912,3.3935,3.4517,3.4741,3.4472,3.4472,3.4143,3.3499,3.3739,3.3724,3.3514,3.4023,3.3754,3.2901,3.314,3.311,3.2901,3.3155,3.3739,3.4502,3.4756,3.513,3.5504,3.5504,3.5504,3.5504,3.8051,3.7381,3.6857,3.6857,3.7449,3.7905,3.7889,3.7905,3.7882,3.7911,3.7308,3.6881,3.6797,3.6186,3.5496,3.4818,3.4119,3.3684,3.3684,3.4268,3.4905,3.5447,3.6138,3.7298,3.8976,3.8361,3.9018,4.1027,3.9765,3.851,3.7294,3.6748,3.6097,3.5391,3.4739,3.3789,3.2624,3.1902,3.1207,3.0587,2.9985,2.9304,2.8742,2.934,2.8801,2.785,2.8442,2.7859,2.6886,2.7455,2.723,2.6826,2.7395,2.7625,2.7505,2.6841,2.6662,2.6662,2.6662,2.6662,2.6512,2.5899,2.6168,2.6437,2.5869,2.6153,2.6557,2.6632,2.7111,2.758,2.7619,2.8173,2.8622,2.8727,2.9729,3.0298,2.9838,3.0838,3.1368,3.0791,3.2415,3.3411,3.2951,3.4619,3.5796,3.596,3.6474,3.6453,3.5751,3.5179,3.4785,3.4535,3.5145,3.519,3.4562,3.4547,3.4247,3.3649,3.4247,3.4218,3.3679,3.4936,3.4801,3.3589,3.4203,3.4128,3.3604,3.4218,3.4502,3.4607,3.525,3.5504,3.5504,3.5504,3.5504,3.5504,3.8783,3.8142,3.7635,3.7635,3.7759,3.7877,3.7912,3.7905,3.7877,3.7899,3.775,3.7432,3.684,3.7127,3.7081,3.6333,3.5114,3.4382,3.4382,3.4888,3.548,3.6113,3.7061,3.7739,3.8164,3.8991,3.9735,4.0419,3.9687,3.8982,3.8251,3.7567,3.6666,3.5593,3.435,3.3645,3.3326,3.2615,3.1955,3.1331,3.1189,3.0434,2.937,2.952,2.9385,2.9131,2.9295,2.9146,2.8831,2.8472,2.8248,2.8053,2.7694,2.7625,2.7595,2.738,2.7335,2.7335,2.7335,2.7335,2.7355,2.7141,2.6841,2.6677,2.7036,2.6452,2.6123,2.7126,2.7066,2.7141,2.8173,2.8487,2.8921,2.9894,3.0298,3.0669,3.106,3.138,3.1715,3.201,3.3466,3.4526,3.4864,3.6415,3.7236,3.6854,3.647,3.6149,3.5886,3.5277,3.4785,3.4535,3.5145,3.5429,3.5265,3.5265,3.5175,3.504,3.519,3.5175,3.504,3.537,3.504,3.4247,3.4412,3.4382,3.4262,3.4412,3.4786,3.528,3.5444,3.5504,3.5504,3.5504,3.5504,3.5504,3.8988,3.8667,3.8396,3.8396,3.8685,3.8905,3.8899,3.8903,3.8922,3.892,3.8616,3.8244,3.7838,3.7855,3.7736,3.733,3.6592,3.6133,3.6133,3.6367,3.6925,3.7755,3.8351,3.8923,3.9499,3.9509,3.9336,3.8982,3.9364,3.9147,3.8254,3.7545,3.6654,3.5646,3.4561,3.3887,3.3547,3.2895,3.2385,3.2044,3.168,3.09,3.0043,3.0357,3.0103,2.9624,2.9909,2.9819,2.952,2.916,2.8846,2.8532,2.8158,2.7829,2.7685,2.7949,2.7814,2.7625,2.7625,2.7799,2.8038,2.8038,2.753,2.7126,2.7535,2.7021,2.6707,2.7475,2.753,2.7739,2.8472,2.934,3.0058,3.0447,3.1072,3.1626,3.2037,3.2384,3.2955,3.3822,3.5274,3.6427,3.7081,3.821,3.8788,3.8522,3.7507,3.683,3.6769,3.5769,3.5127,3.4951,3.531,3.5504,3.5504,3.5504,3.5504,3.5504,3.5504,3.5504,3.5504,3.5504,3.5295,3.4951,3.4951,3.4951,3.4951,3.4951,3.516,3.5504,3.5504,3.5504,3.5504,3.5504,3.5504,3.5504,3.9157,3.9157,3.9157,3.9157,3.9665,4.007,4.007,4.007,4.007,4.007,3.9529,3.9139,3.9035,3.8563,3.8193,3.8091,3.8176,3.8142,3.7922,3.7984,3.8408,3.9329,3.9451,3.9993,4.1063,3.9857,3.8812,3.8001,3.9254,3.9277,3.8227,3.7466,3.6729,3.5976,3.5136,3.4395,3.3693,3.3045,3.2684,3.2536,3.189,3.127,3.0717,3.13,3.0851,2.9939,3.0477,3.0313,2.9864,2.9759,2.9355,2.8876,2.8786,2.8353,2.7993,2.8577,2.8338,2.7874,2.7874,2.8308,2.8742,2.8742,2.8233,2.7754,2.791,2.785,2.7754,2.791,2.8338,2.8801,2.9011,3.0402,3.1375,3.0881,3.2056,3.2932,3.2804,3.3618,3.4608,3.558,3.7081,3.8278,3.8768,3.958,4.007,3.9952,3.8596,3.7764,3.7632,3.6258,3.5504,3.5504,3.5504,3.5504,3.5504,3.5504,3.5504,3.5504,3.5504,3.5504,3.5504,3.5504,3.5504,3.5504,3.5504,3.5504,3.5504,3.5504,3.5504,3.5504,3.5504,3.5504,3.5504,3.5504,3.5504,3.5504,3.9918,3.9918,3.9918,3.9918,4.0003,4.007,4.007,4.007,4.007,4.007,3.9986,3.9665,3.9056,3.9428,3.9495,3.887,3.9394,3.9225,3.799,3.8271,3.858,3.8721,3.9188,3.9504,3.9709,3.9641,3.9877,4.0383,4.0175,3.9934,3.9715,3.8988,3.8254,3.7439,3.6108,3.5086,3.4302,3.3621,3.3036,3.2524,3.2421,3.1958,3.139,3.1437,3.1347,3.124,3.1345,3.1258,3.115,3.0552,3.0298,3.0118,2.9594,2.9355,2.9295,2.94,2.9355,2.9265,2.9265,2.9355,2.943,2.943,2.8921,2.8592,2.9146,2.8846,2.8607,2.9146,2.9355,2.9759,3.0866,3.133,3.1674,3.2284,3.3505,3.4182,3.367,3.5161,3.6158,3.5664,3.7537,3.8633,3.8125,3.9292,3.9833,3.9139,3.8318,3.7515,3.6843,3.5958,3.5504,3.5504,3.5504,3.5504,3.5504,3.5504,3.5504,3.5504,3.5504,3.5504,3.5504,3.5504,3.5504,3.5504,3.5504,3.5504,3.5504,3.5504,3.5504,3.5504,3.5504,3.5504,3.5504,3.5504,3.5504,3.5504,4.007,4.007,4.007,4.007,4.007,4.007,4.007,4.007,4.007,4.007,4.007,3.9952,3.9614,3.9884,3.9935,3.9597,3.9884,3.9783,3.9123,3.9313,3.9547,3.9818,4.0087,4.0027,3.9608,3.9807,3.9918,3.9867,4.0017,4.007,4.0054,3.8874,3.8148,3.7715,3.5887,3.4841,3.4454,3.3759,3.3548,3.3661,3.3216,3.308,3.3203,3.275,3.2587,3.2542,3.2183,3.2063,3.1958,3.1285,3.0806,3.0447,3.0163,2.9849,2.9639,2.9983,2.9849,2.9654,2.9983,2.9834,2.9669,2.9998,2.9609,2.9205,2.9505,2.934,2.931,2.9939,3.0372,3.0926,3.1884,3.2957,3.3691,3.3778,3.4982,3.5847,3.5473,3.6304,3.692,3.6831,3.8125,3.887,3.8531,3.9059,3.9315,3.8908,3.7831,3.6964,3.66,3.5894,3.5504,3.5504,3.5504,3.5504,3.5504,3.5504,3.5504,3.5504,3.5504,3.5504,3.5504,3.5504,3.5504,3.5504,3.5504,3.5504,3.5504,3.5504,3.5504,3.5504,3.5504,3.5504,3.5504,3.5504,3.5504,3.5504,4.007,4.007,4.007,4.007,4.007,4.007,4.007,4.007,4.007,4.007,4.007,4.007,4.007,4.007,4.007,4.007,4.007,4.007,4.007,4.007,4.0286,4.0703,4.0685,4.0427,3.9905,3.9997,3.98,3.9242,3.98,4.002,3.9782,3.8593,3.7871,3.7459,3.5718,3.4976,3.4976,3.444,3.4485,3.4864,3.4227,3.4136,3.4355,3.3728,3.3499,3.3425,3.2916,3.2736,3.2662,3.2153,3.1539,3.1001,3.115,3.0761,3.0387,3.1016,3.0761,3.0298,3.0462,3.0283,3.0148,3.0627,3.0268,2.9834,2.9998,3.0043,3.0223,3.0836,3.1509,3.2242,3.3065,3.4497,3.554,3.5274,3.647,3.7264,3.6702,3.717,3.7552,3.7638,3.8267,3.8706,3.8706,3.8672,3.858,3.8398,3.7306,3.6554,3.6322,3.5846,3.5504,3.5504,3.5504,3.5504,3.5504,3.5504,3.5504,3.5504,3.5504,3.5504,3.5504,3.5504,3.5504,3.5504,3.5504,3.5504,3.5504,3.5504,3.5504,3.5504,3.5504,3.5504,3.5504,3.5504,3.5504,3.5504,4.007,4.007,4.007,4.007,4.007,4.007,4.007,4.007,4.007,4.007,4.007,4.007,4.007,4.007,4.007,4.007,4.007,4.007,4.007,4.007,4.0121,4.0171,4.0171,4.0137,4.0086,4.0087,4.0054,4.0003,4.0054,3.9731,3.8978,3.8859,3.8092,3.6705,3.6537,3.646,3.646,3.6399,3.6043,3.553,3.5471,3.4698,3.3607,3.3499,3.3499,3.3484,3.344,3.3425,3.3425,3.3365,3.2916,3.2467,3.308,3.2826,3.2422,3.308,3.2811,3.2033,3.0836,3.0941,3.1405,3.145,3.0941,3.0612,3.124,3.139,3.1584,3.2228,3.2901,3.3774,3.5091,3.553,3.5857,3.671,3.7916,3.8117,3.6307,3.7667,3.8348,3.7026,3.7453,3.7906,3.7906,3.7897,3.7573,3.6843,3.6661,3.6275,3.5619,3.5504,3.5504,3.5504,3.5504,3.5504,3.5504,3.5504,3.5504,3.5504,3.5504,3.5504,3.5504,3.5504,3.5504,3.5504,3.5504,3.5504,3.5504,3.5504,3.5504,3.5504,3.5504,3.5504,3.5504,3.5504,3.5504,3.5504,4.007,4.007,4.007,4.007,4.007,4.007,4.007,4.007,4.007,4.007,4.007,4.007,4.007,4.007,4.007,4.007,4.007,4.007,4.007,4.007,4.007,4.007,4.007,4.007,4.007,4.007,4.007,4.007,3.961,3.9209,3.8854,3.793,3.7424,3.7338,3.6843,3.6843,3.7338,3.7338,3.718,3.6943,3.6409,3.5906,3.5385,3.4901,3.4741,3.4696,3.4262,3.4098,3.4038,3.3634,3.332,3.3155,3.3425,3.332,3.317,3.3425,3.332,3.3006,3.2497,3.2243,3.2138,3.2138,3.2243,3.2422,3.2691,3.2751,3.2931,3.3589,3.4319,3.5078,3.6028,3.7012,3.7753,3.8101,3.901,3.9377,3.8673,3.8789,3.855,3.7552,3.7654,3.7623,3.7171,3.7086,3.6904,3.66,3.6165,3.5782,3.5504,3.5504,3.5504,3.5504,3.5504,3.5504,3.5504,3.5504,3.5504,3.5504,3.5504,3.5504,3.5504,3.5504,3.5504,3.5504,3.5504,3.5504,3.5504,3.5504,3.5504,3.5504,3.5504,3.5504,3.5504,3.5504,3.5504,3.5504,4.007,4.007,4.007,4.007,4.007,4.007,4.007,4.007,4.007,4.007,4.007,4.007,4.007,4.007,4.007,4.007,4.007,4.007,4.007,4.007,4.007,4.007,4.007,4.007,4.007,4.007,4.007,4.007,3.9542,3.9032,3.8525,3.77,3.7365,3.7397,3.7084,3.744,3.8149,3.7921,3.7822,3.7748,3.6904,3.643,3.6228,3.5668,3.5504,3.5444,3.4966,3.4801,3.4726,3.4277,3.3978,3.3844,3.4053,3.4128,3.4128,3.4128,3.3978,3.3799,3.3799,3.3469,3.308,3.2871,3.3155,3.3499,3.3499,3.3649,3.398,3.4711,3.5431,3.6222,3.7152,3.8213,3.8962,3.9262,3.9731,3.9935,3.948,3.8913,3.829,3.753,3.7238,3.697,3.6701,3.6412,3.6275,3.6275,3.5782,3.5504,3.5504,3.5504,3.5504,3.5504,3.5504,3.5504,3.5504,3.5504,3.5504,3.5504,3.5504,3.5504,3.5504,3.5504,3.5504,3.5504,3.5504,3.5504,3.5504,3.5504,3.5504,3.5504,3.5504,3.5504,3.5504,3.5504,3.5504,3.5504,4.0087,4.0087,4.0087,4.0087,4.0087,4.0087,4.007,4.007,4.007,4.007,4.007,4.007,4.007,4.007,4.007,4.007,4.007,4.007,4.007,4.007,4.007,4.007,4.007,4.007,4.007,4.007,4.007,4.007,4.007,3.9279,3.7806,3.8525,3.8101,3.6661,3.7456,3.8206,3.8854,3.8149,3.7822,3.769,3.6904,3.6165,3.5504,3.5504,3.5504,3.5504,3.5504,3.5504,3.5504,3.5504,3.5055,3.4607,3.5295,3.5504,3.5504,3.5504,3.5026,3.4487,3.4487,3.4487,3.4322,3.3664,3.3499,3.3514,3.3499,3.4008,3.4708,3.5488,3.6135,3.7068,3.8619,3.8908,3.9139,3.9952,4.007,3.953,3.8022,3.7817,3.7535,3.6806,3.5962,3.5766,3.6538,3.5958,3.5504,3.5504,3.5504,3.5504,3.5504,3.5504,3.5504,3.5504,3.5504,3.5504,3.5504,3.5504,3.5504,3.5504,3.5504,3.5504,3.5504,3.5504,3.5504,3.5504,3.5504,3.5504,3.5504,3.5504,3.5504,3.5504,3.5504,3.5504,3.5504,3.5504,3.5504,3.5504,4.0764,4.0865,4.0865,4.0865,4.0865,4.0696,4.0155,4.007,4.007,4.007,4.007,4.007,4.007,4.007,4.007,4.007,4.007,4.007,4.007,4.007,4.007,4.007,4.007,4.007,4.007,4.007,4.007,4.007,3.9542,3.9032,3.858,3.8262,3.8189,3.8213,3.8453,3.869,3.8908,3.869,3.7946,3.6904,3.6737,3.6165,3.5504,3.5504,3.5504,3.5504,3.5504,3.5504,3.5504,3.5504,3.537,3.5235,3.5444,3.5504,3.5504,3.5504,3.5355,3.519,3.519,3.519,3.504,3.4352,3.4547,3.5003,3.5554,3.5815,3.6199,3.6963,3.7687,3.8325,3.8799,3.9368,3.9833,4.007,3.961,3.9126,3.8628,3.7625,3.6888,3.6667,3.5937,3.557,3.5816,3.5619,3.5504,3.5504,3.5504,3.5504,3.5504,3.5504,3.5504,3.5504,3.5504,3.5504,3.5504,3.5504,3.5504,3.5504,3.5504,3.5504,3.5504,3.5504,3.5504,3.5504,3.5504,3.5504,3.5504,3.5504,3.5504,3.5504,3.5504,3.5504,3.5504,3.5504,3.5504,3.5504,4.1119,4.1441,4.1644,4.1644,4.139,4.1052,4.0595,4.0273,4.007,4.007,4.007,4.0189,4.0493,4.0257,4.0307,4.0899,4.0679,4.0527,4.0527,4.024,4.007,4.007,4.0358,4.0392,4.0087,4.007,3.9952,3.961,3.9437,3.9032,3.8469,3.8652,3.8761,3.8908,3.9262,3.9209,3.8854,3.858,3.7716,3.6554,3.6275,3.5894,3.5504,3.5504,3.5668,3.5958,3.5958,3.5958,3.5958,3.5958,3.5718,3.5504,3.5504,3.5504,3.5504,3.5504,3.5504,3.5504,3.5504,3.5504,3.54,3.4996,3.5416,3.6054,3.6492,3.6843,3.7322,3.8076,3.858,3.9016,3.9315,3.9782,4.002,3.9662,3.9209,3.869,3.8101,3.7188,3.6492,3.6228,3.5782,3.5504,3.5504,3.5504,3.5504,3.5504,3.5504,3.5504,3.5504,3.5504,3.5504,3.5504,3.5504,3.5504,3.5504,3.5504,3.5504,3.5504,3.5504,3.5504,3.5504,3.5504,3.5504,3.5504,3.5504,3.5504,3.5504,3.5504,3.5504,3.5504,3.5504,3.5504,3.5504,3.5504,3.5669,3.5893,4.1288,4.188,4.2388,4.2388,4.1779,4.1305,4.1305,4.0663,4.0206,4.0273,4.0223,4.046,4.1221,4.0629,4.0747,4.2168,4.1694,4.1271,4.1204,4.0612,4.0257,4.0172,4.0899,4.0984,4.029,4.0273,3.9865,3.9032,3.9798,3.9468,3.8035,3.9454,3.9714,3.9032,3.9731,3.9542,3.8745,3.8019,3.7219,3.6446,3.5782,3.5504,3.5504,3.5504,3.5943,3.6615,3.6615,3.6676,3.6737,3.66,3.6117,3.5504,3.5504,3.5504,3.5504,3.5504,3.5504,3.5504,3.5504,3.5569,3.5619,3.5619,3.6228,3.6783,3.6722,3.7322,3.8092,3.8854,3.9032,3.9193,3.9885,4.0003,3.9731,3.8908,3.8728,3.8213,3.6783,3.6554,3.6275,3.5554,3.5504,3.5504,3.5504,3.5549,3.5564,3.5504,3.5609,3.5654,3.5594,3.5594,3.5594,3.5594,3.5534,3.5504,3.5504,3.5504,3.5504,3.5504,3.5504,3.5504,3.5504,3.5504,3.5504,3.5504,3.5504,3.5504,3.5504,3.5504,3.5504,3.5504,3.5504,3.5504,3.5504,3.5504,3.5923,3.6507,4.1948,4.2658,4.3166,4.3166,4.2557,4.2049,4.2049,4.1441,4.117,4.1745,4.1305,4.1238,4.1965,4.1407,4.1322,4.2219,4.2151,4.1813,4.1238,4.1593,4.1559,4.0984,4.166,4.1982,4.1813,4.1813,4.1169,3.9833,4.0611,4.0474,3.9627,3.9952,4.002,3.9833,3.9368,3.8745,3.7978,3.7203,3.6399,3.5718,3.5554,3.5504,3.5504,3.5504,3.5943,3.6615,3.6615,3.7024,3.7456,3.6783,3.6117,3.5504,3.5504,3.5504,3.5504,3.5504,3.5504,3.5504,3.5504,3.5958,3.6384,3.6384,3.7365,3.823,3.7674,3.8133,3.887,3.9662,3.9833,3.9731,3.9246,3.9139,3.8908,3.8149,3.7499,3.7008,3.6661,3.6117,3.5668,3.5504,3.5504,3.5504,3.5504,3.5968,3.6058,3.5549,3.6432,3.6791,3.6297,3.6267,3.6267,3.6267,3.5774,3.5504,3.5504,3.5504,3.5504,3.5504,3.5504,3.5504,3.5504,3.5504,3.5504,3.5504,3.5504,3.5504,3.5504,3.5504,3.5504,3.5504,3.5504,3.5504,3.5504,3.5504,3.5923,3.6626,4.276,4.3436,4.3978,4.3978,4.3335,4.2828,4.2828,4.2202,4.1863,4.2236,4.1965,4.2016,4.2743,4.2168,4.2016,4.276,4.2828,4.2658,4.2286,4.2286,4.2117,4.1745,4.2439,4.2658,4.2303,4.3014,4.2463,4.0628,4.135,4.1165,4.0093,4.0441,4.0238,3.9489,3.9086,3.8286,3.7203,3.6783,3.6165,3.5504,3.5504,3.5733,3.6037,3.642,3.7033,3.7738,3.8065,3.8196,3.798,3.6936,3.6315,3.5923,3.5609,3.5504,3.5504,3.5504,3.5504,3.5554,3.5958,3.6568,3.7219,3.7571,3.8892,3.9726,3.8576,3.8924,3.961,4.002,4.0068,3.9901,3.9473,3.9364,3.9092,3.8333,3.7857,3.7417,3.7048,3.6637,3.6417,3.6417,3.6417,3.6417,3.6417,3.6731,3.6791,3.6432,3.703,3.727,3.6941,3.6926,3.6926,3.6926,3.6596,3.6417,3.6417,3.6417,3.6417,3.6402,3.5789,3.5504,3.5519,3.5833,3.5804,3.5519,3.5833,3.5804,3.5504,3.5504,3.5504,3.5504,3.5504,3.5699,3.5938,3.5624,3.6103,3.712,4.3453,4.4147,4.4722,4.4604,4.3927,4.347,4.3589,4.2963,4.2523,4.2658,4.2557,4.2777,4.3538,4.3064,4.2929,4.3555,4.3623,4.3555,4.342,4.2963,4.2625,4.2489,4.3217,4.3386,4.2878,4.3995,4.353,4.1359,4.2135,4.1799,4.0503,4.1093,4.0567,3.9106,3.9057,3.8155,3.6631,3.6677,3.6329,3.5684,3.5969,3.6405,3.7018,3.7764,3.8499,3.9161,3.972,3.9345,3.8388,3.7122,3.6595,3.6387,3.5848,3.5669,3.5684,3.5804,3.5833,3.5934,3.6549,3.7374,3.8231,3.8886,4.0121,4.0859,3.9567,3.9751,4.022,4.0065,3.9946,3.9822,3.9707,3.9606,3.9361,3.8561,3.8365,3.8167,3.7473,3.7404,3.7404,3.7404,3.7404,3.7404,3.7404,3.7509,3.7524,3.7419,3.7614,3.7704,3.7584,3.7584,3.7584,3.7584,3.7464,3.7404,3.7404,3.7404,3.7404,3.7404,3.6342,3.5833,3.5848,3.6387,3.6342,3.5863,3.6402,3.6327,3.5833,3.5833,3.5833,3.5833,3.5833,3.6163,3.6596,3.6163,3.6671,3.7764,4.3555,4.457,4.5348,4.4688,4.3927,4.3639,4.4316,4.3758,4.3504,4.4181,4.3673,4.3555,4.4333,4.4333,4.4316,4.4418,4.4418,4.413,4.347,4.3961,4.3978,4.3301,4.4012,4.4688,4.5229,4.4807,4.3826,4.2179,4.2892,4.2824,4.2011,4.2081,4.1339,3.9896,3.98,3.861,3.6631,3.7076,3.6955,3.6469,3.7728,3.8317,3.851,3.9372,3.9768,3.9923,3.9898,3.9345,3.8453,3.7679,3.706,3.6477,3.6372,3.6357,3.6462,3.7,3.715,3.715,3.7271,3.8443,3.962,3.9742,4.042,4.0976,4.0778,4.0802,4.0672,3.9973,3.9814,3.9575,3.8905,3.8743,3.8481,3.7662,3.7526,3.7526,3.7404,3.7404,3.7404,3.7404,3.7404,3.7404,3.7404,3.7913,3.8018,3.7449,3.8482,3.8886,3.8287,3.8257,3.8257,3.8257,3.7704,3.7404,3.7404,3.7404,3.7404,3.7404,3.724,3.715,3.7165,3.724,3.724,3.7165,3.724,3.724,3.715,3.715,3.715,3.715,3.715,3.721,3.7345,3.7823,3.8108,3.8362,4.413,4.4604,4.4976,4.4637,4.4299,4.4316,4.5094,4.4908,4.4823,4.5162,4.4908,4.4654,4.4587,4.4587,4.4908,4.5737,4.5449,4.506,4.4722,4.5399,4.5483,4.4722,4.5415,4.5974,4.6312,4.5585,4.4874,4.4198,4.4113,4.3673,4.2912,4.2489,4.1293,3.943,3.8942,3.7885,3.6535,3.676,3.7246,3.777,3.8422,3.9267,4.0176,4.0983,4.1304,4.1255,4.0663,3.9875,3.8948,3.825,3.785,3.7616,3.7679,3.7739,3.7851,3.8616,3.8871,3.8823,3.8823,3.9614,4.0478,4.0494,4.1029,4.1426,4.0912,4.0849,4.0642,3.9939,3.9724,3.956,3.9249,3.9122,3.8931,3.8597,3.8527,3.8527,3.8527,3.8527,3.8527,3.8527,3.8527,3.8527,3.8527,3.8796,3.8841,3.8556,3.9095,3.929,3.8975,3.896,3.896,3.896,3.8676,3.8527,3.8527,3.8527,3.8527,3.8527,3.8527,3.8138,3.7419,3.7793,3.7749,3.7434,3.7808,3.7749,3.7404,3.7404,3.7404,3.7404,3.7404,3.7404,3.7539,3.8571,3.8721,3.8497]}]]